<?xml version="1.0" encoding="UTF-8" standalone="no" ?>
<gpx xmlns="http://www.topografix.com/GPX/1/1" xmlns:xsi="http://www.w3.org/2001/XMLSchema-instance" xsi:schemaLocation="http://www.topografix.com/GPX/1/1 http://www.topografix.com/GPX/1/1/gpx.xsd" version="1.1" creator="VisuGPX - https://www.visugpx.com">
  <metadata>
    <name>83 - M - Taradeau</name>
    <desc><![CDATA[grp_trc:]]></desc>
  </metadata>
  <trk>
    <name><![CDATA[8 janv. 2025]]></name>
    <cmt><![CDATA[13:50:02]]></cmt>
    <desc><![CDATA[comment ...]]></desc>
    <trkseg>
      <trkpt lat="43.45332" lon="6.42636">
        <ele>82</ele>
        <time>2025-01-08T12:50:01Z</time>
      </trkpt>
      <trkpt lat="43.4533" lon="6.42635">
        <ele>83</ele>
        <time>2025-01-08T12:50:02Z</time>
      </trkpt>
      <trkpt lat="43.45327" lon="6.42642">
        <ele>83</ele>
        <time>2025-01-08T12:50:05Z</time>
      </trkpt>
      <trkpt lat="43.45319" lon="6.4264">
        <ele>100</ele>
        <time>2025-01-08T12:50:07Z</time>
      </trkpt>
      <trkpt lat="43.45321" lon="6.42637">
        <ele>103</ele>
        <time>2025-01-08T12:50:09Z</time>
      </trkpt>
      <trkpt lat="43.45323" lon="6.42637">
        <ele>104</ele>
        <time>2025-01-08T12:50:11Z</time>
      </trkpt>
      <trkpt lat="43.45329" lon="6.42638">
        <ele>101</ele>
        <time>2025-01-08T12:50:15Z</time>
      </trkpt>
      <trkpt lat="43.45333" lon="6.42639">
        <ele>98</ele>
        <time>2025-01-08T12:50:17Z</time>
      </trkpt>
      <trkpt lat="43.45338" lon="6.4264">
        <ele>95</ele>
        <time>2025-01-08T12:50:19Z</time>
      </trkpt>
      <trkpt lat="43.45342" lon="6.42641">
        <ele>91</ele>
        <time>2025-01-08T12:50:21Z</time>
      </trkpt>
      <trkpt lat="43.45345" lon="6.42643">
        <ele>88</ele>
        <time>2025-01-08T12:50:23Z</time>
      </trkpt>
      <trkpt lat="43.45354" lon="6.42646">
        <ele>83</ele>
        <time>2025-01-08T12:50:29Z</time>
      </trkpt>
      <trkpt lat="43.45361" lon="6.42642">
        <ele>82</ele>
        <time>2025-01-08T12:50:37Z</time>
      </trkpt>
      <trkpt lat="43.45364" lon="6.42644">
        <ele>81</ele>
        <time>2025-01-08T12:50:41Z</time>
      </trkpt>
      <trkpt lat="43.45366" lon="6.42646">
        <ele>80</ele>
        <time>2025-01-08T12:50:45Z</time>
      </trkpt>
      <trkpt lat="43.45368" lon="6.42652">
        <ele>81</ele>
        <time>2025-01-08T12:50:49Z</time>
      </trkpt>
      <trkpt lat="43.45368" lon="6.42656">
        <ele>82</ele>
        <time>2025-01-08T12:50:51Z</time>
      </trkpt>
      <trkpt lat="43.45373" lon="6.4266">
        <ele>83</ele>
        <time>2025-01-08T12:50:55Z</time>
      </trkpt>
      <trkpt lat="43.4538" lon="6.42671">
        <ele>77</ele>
        <time>2025-01-08T12:51:03Z</time>
      </trkpt>
      <trkpt lat="43.4538" lon="6.42678">
        <ele>74</ele>
        <time>2025-01-08T12:51:09Z</time>
      </trkpt>
      <trkpt lat="43.45381" lon="6.42687">
        <ele>72</ele>
        <time>2025-01-08T12:51:15Z</time>
      </trkpt>
      <trkpt lat="43.45383" lon="6.42695">
        <ele>71</ele>
        <time>2025-01-08T12:51:21Z</time>
      </trkpt>
      <trkpt lat="43.45381" lon="6.42714">
        <ele>73</ele>
        <time>2025-01-08T12:51:27Z</time>
      </trkpt>
      <trkpt lat="43.4538" lon="6.42718">
        <ele>74</ele>
        <time>2025-01-08T12:51:31Z</time>
      </trkpt>
      <trkpt lat="43.45377" lon="6.4274">
        <ele>74</ele>
        <time>2025-01-08T12:51:45Z</time>
      </trkpt>
      <trkpt lat="43.45376" lon="6.42743">
        <ele>74</ele>
        <time>2025-01-08T12:51:47Z</time>
      </trkpt>
      <trkpt lat="43.45378" lon="6.42745">
        <ele>74</ele>
        <time>2025-01-08T12:51:49Z</time>
      </trkpt>
      <trkpt lat="43.45379" lon="6.42742">
        <ele>75</ele>
        <time>2025-01-08T12:51:51Z</time>
      </trkpt>
      <trkpt lat="43.4538" lon="6.42749">
        <ele>78</ele>
        <time>2025-01-08T12:51:53Z</time>
      </trkpt>
      <trkpt lat="43.45382" lon="6.42751">
        <ele>78</ele>
        <time>2025-01-08T12:51:55Z</time>
      </trkpt>
      <trkpt lat="43.45383" lon="6.42754">
        <ele>78</ele>
        <time>2025-01-08T12:51:57Z</time>
      </trkpt>
      <trkpt lat="43.45383" lon="6.4276">
        <ele>78</ele>
        <time>2025-01-08T12:52:01Z</time>
      </trkpt>
      <trkpt lat="43.4538" lon="6.42771">
        <ele>78</ele>
        <time>2025-01-08T12:52:07Z</time>
      </trkpt>
      <trkpt lat="43.4538" lon="6.42774">
        <ele>78</ele>
        <time>2025-01-08T12:52:11Z</time>
      </trkpt>
      <trkpt lat="43.45382" lon="6.42775">
        <ele>78</ele>
        <time>2025-01-08T12:52:17Z</time>
      </trkpt>
      <trkpt lat="43.45385" lon="6.4278">
        <ele>78</ele>
        <time>2025-01-08T12:52:27Z</time>
      </trkpt>
      <trkpt lat="43.45389" lon="6.42786">
        <ele>78</ele>
        <time>2025-01-08T12:52:33Z</time>
      </trkpt>
      <trkpt lat="43.45393" lon="6.42789">
        <ele>78</ele>
        <time>2025-01-08T12:52:39Z</time>
      </trkpt>
      <trkpt lat="43.45396" lon="6.4279">
        <ele>78</ele>
        <time>2025-01-08T12:52:43Z</time>
      </trkpt>
      <trkpt lat="43.45397" lon="6.42797">
        <ele>79</ele>
        <time>2025-01-08T12:52:47Z</time>
      </trkpt>
      <trkpt lat="43.45402" lon="6.428">
        <ele>80</ele>
        <time>2025-01-08T12:52:51Z</time>
      </trkpt>
      <trkpt lat="43.45406" lon="6.42803">
        <ele>77</ele>
        <time>2025-01-08T12:52:59Z</time>
      </trkpt>
      <trkpt lat="43.45408" lon="6.42804">
        <ele>76</ele>
        <time>2025-01-08T12:53:03Z</time>
      </trkpt>
      <trkpt lat="43.4541" lon="6.42812">
        <ele>75</ele>
        <time>2025-01-08T12:53:11Z</time>
      </trkpt>
      <trkpt lat="43.45409" lon="6.42821">
        <ele>76</ele>
        <time>2025-01-08T12:53:19Z</time>
      </trkpt>
      <trkpt lat="43.45411" lon="6.42837">
        <ele>76</ele>
        <time>2025-01-08T12:53:29Z</time>
      </trkpt>
      <trkpt lat="43.4541" lon="6.42841">
        <ele>76</ele>
        <time>2025-01-08T12:53:33Z</time>
      </trkpt>
      <trkpt lat="43.4541" lon="6.42846">
        <ele>76</ele>
        <time>2025-01-08T12:53:37Z</time>
      </trkpt>
      <trkpt lat="43.45411" lon="6.4285">
        <ele>76</ele>
        <time>2025-01-08T12:53:39Z</time>
      </trkpt>
      <trkpt lat="43.4541" lon="6.42866">
        <ele>75</ele>
        <time>2025-01-08T12:53:47Z</time>
      </trkpt>
      <trkpt lat="43.45409" lon="6.42872">
        <ele>76</ele>
        <time>2025-01-08T12:53:51Z</time>
      </trkpt>
      <trkpt lat="43.4541" lon="6.42883">
        <ele>78</ele>
        <time>2025-01-08T12:53:57Z</time>
      </trkpt>
      <trkpt lat="43.4541" lon="6.42886">
        <ele>79</ele>
        <time>2025-01-08T12:53:59Z</time>
      </trkpt>
      <trkpt lat="43.45411" lon="6.42893">
        <ele>80</ele>
        <time>2025-01-08T12:54:03Z</time>
      </trkpt>
      <trkpt lat="43.45413" lon="6.42898">
        <ele>80</ele>
        <time>2025-01-08T12:54:05Z</time>
      </trkpt>
      <trkpt lat="43.45413" lon="6.42903">
        <ele>80</ele>
        <time>2025-01-08T12:54:07Z</time>
      </trkpt>
      <trkpt lat="43.45415" lon="6.42906">
        <ele>81</ele>
        <time>2025-01-08T12:54:09Z</time>
      </trkpt>
      <trkpt lat="43.45415" lon="6.42915">
        <ele>80</ele>
        <time>2025-01-08T12:54:15Z</time>
      </trkpt>
      <trkpt lat="43.45419" lon="6.42931">
        <ele>79</ele>
        <time>2025-01-08T12:54:25Z</time>
      </trkpt>
      <trkpt lat="43.45418" lon="6.42936">
        <ele>79</ele>
        <time>2025-01-08T12:54:29Z</time>
      </trkpt>
      <trkpt lat="43.45416" lon="6.42945">
        <ele>80</ele>
        <time>2025-01-08T12:54:33Z</time>
      </trkpt>
      <trkpt lat="43.45417" lon="6.4295">
        <ele>81</ele>
        <time>2025-01-08T12:54:35Z</time>
      </trkpt>
      <trkpt lat="43.45418" lon="6.42954">
        <ele>82</ele>
        <time>2025-01-08T12:54:39Z</time>
      </trkpt>
      <trkpt lat="43.45416" lon="6.42956">
        <ele>82</ele>
        <time>2025-01-08T12:54:43Z</time>
      </trkpt>
      <trkpt lat="43.45416" lon="6.4296">
        <ele>82</ele>
        <time>2025-01-08T12:54:45Z</time>
      </trkpt>
      <trkpt lat="43.45418" lon="6.42966">
        <ele>82</ele>
        <time>2025-01-08T12:54:49Z</time>
      </trkpt>
      <trkpt lat="43.45418" lon="6.42969">
        <ele>83</ele>
        <time>2025-01-08T12:54:51Z</time>
      </trkpt>
      <trkpt lat="43.4542" lon="6.42975">
        <ele>84</ele>
        <time>2025-01-08T12:54:55Z</time>
      </trkpt>
      <trkpt lat="43.4542" lon="6.42984">
        <ele>87</ele>
        <time>2025-01-08T12:55:01Z</time>
      </trkpt>
      <trkpt lat="43.45422" lon="6.42989">
        <ele>87</ele>
        <time>2025-01-08T12:55:03Z</time>
      </trkpt>
      <trkpt lat="43.45425" lon="6.42993">
        <ele>89</ele>
        <time>2025-01-08T12:55:09Z</time>
      </trkpt>
      <trkpt lat="43.45428" lon="6.42997">
        <ele>89</ele>
        <time>2025-01-08T12:55:11Z</time>
      </trkpt>
      <trkpt lat="43.45429" lon="6.43">
        <ele>90</ele>
        <time>2025-01-08T12:55:13Z</time>
      </trkpt>
      <trkpt lat="43.45431" lon="6.43005">
        <ele>91</ele>
        <time>2025-01-08T12:55:19Z</time>
      </trkpt>
      <trkpt lat="43.45432" lon="6.43009">
        <ele>91</ele>
        <time>2025-01-08T12:55:23Z</time>
      </trkpt>
      <trkpt lat="43.45431" lon="6.43017">
        <ele>92</ele>
        <time>2025-01-08T12:55:29Z</time>
      </trkpt>
      <trkpt lat="43.45431" lon="6.43033">
        <ele>93</ele>
        <time>2025-01-08T12:55:39Z</time>
      </trkpt>
      <trkpt lat="43.45431" lon="6.43036">
        <ele>93</ele>
        <time>2025-01-08T12:55:41Z</time>
      </trkpt>
      <trkpt lat="43.45428" lon="6.43041">
        <ele>95</ele>
        <time>2025-01-08T12:55:45Z</time>
      </trkpt>
      <trkpt lat="43.45426" lon="6.43043">
        <ele>95</ele>
        <time>2025-01-08T12:55:47Z</time>
      </trkpt>
      <trkpt lat="43.45424" lon="6.43046">
        <ele>96</ele>
        <time>2025-01-08T12:55:49Z</time>
      </trkpt>
      <trkpt lat="43.45424" lon="6.43049">
        <ele>96</ele>
        <time>2025-01-08T12:55:51Z</time>
      </trkpt>
      <trkpt lat="43.45419" lon="6.43054">
        <ele>97</ele>
        <time>2025-01-08T12:55:57Z</time>
      </trkpt>
      <trkpt lat="43.45417" lon="6.43058">
        <ele>96</ele>
        <time>2025-01-08T12:56:01Z</time>
      </trkpt>
      <trkpt lat="43.45417" lon="6.43063">
        <ele>96</ele>
        <time>2025-01-08T12:56:07Z</time>
      </trkpt>
      <trkpt lat="43.45424" lon="6.43075">
        <ele>91</ele>
        <time>2025-01-08T12:56:19Z</time>
      </trkpt>
      <trkpt lat="43.45428" lon="6.43077">
        <ele>90</ele>
        <time>2025-01-08T12:56:29Z</time>
      </trkpt>
      <trkpt lat="43.45431" lon="6.43078">
        <ele>90</ele>
        <time>2025-01-08T12:56:33Z</time>
      </trkpt>
      <trkpt lat="43.45435" lon="6.43079">
        <ele>89</ele>
        <time>2025-01-08T12:56:37Z</time>
      </trkpt>
      <trkpt lat="43.45437" lon="6.43079">
        <ele>89</ele>
        <time>2025-01-08T12:56:39Z</time>
      </trkpt>
      <trkpt lat="43.4544" lon="6.4308">
        <ele>89</ele>
        <time>2025-01-08T12:56:41Z</time>
      </trkpt>
      <trkpt lat="43.45443" lon="6.43081">
        <ele>89</ele>
        <time>2025-01-08T12:56:43Z</time>
      </trkpt>
      <trkpt lat="43.45445" lon="6.43086">
        <ele>90</ele>
        <time>2025-01-08T12:56:45Z</time>
      </trkpt>
      <trkpt lat="43.4545" lon="6.43082">
        <ele>93</ele>
        <time>2025-01-08T12:56:49Z</time>
      </trkpt>
      <trkpt lat="43.45452" lon="6.43083">
        <ele>93</ele>
        <time>2025-01-08T12:56:51Z</time>
      </trkpt>
      <trkpt lat="43.45456" lon="6.43077">
        <ele>94</ele>
        <time>2025-01-08T12:56:55Z</time>
      </trkpt>
      <trkpt lat="43.45458" lon="6.43075">
        <ele>94</ele>
        <time>2025-01-08T12:56:59Z</time>
      </trkpt>
      <trkpt lat="43.45459" lon="6.43078">
        <ele>95</ele>
        <time>2025-01-08T12:57:07Z</time>
      </trkpt>
      <trkpt lat="43.45458" lon="6.43081">
        <ele>96</ele>
        <time>2025-01-08T12:57:11Z</time>
      </trkpt>
      <trkpt lat="43.45455" lon="6.43087">
        <ele>99</ele>
        <time>2025-01-08T12:57:17Z</time>
      </trkpt>
      <trkpt lat="43.45452" lon="6.43089">
        <ele>99</ele>
        <time>2025-01-08T12:57:19Z</time>
      </trkpt>
      <trkpt lat="43.45451" lon="6.43091">
        <ele>100</ele>
        <time>2025-01-08T12:57:23Z</time>
      </trkpt>
      <trkpt lat="43.4545" lon="6.43096">
        <ele>100</ele>
        <time>2025-01-08T12:57:29Z</time>
      </trkpt>
      <trkpt lat="43.45453" lon="6.43108">
        <ele>104</ele>
        <time>2025-01-08T12:58:13Z</time>
      </trkpt>
      <trkpt lat="43.45448" lon="6.43096">
        <ele>103</ele>
        <time>2025-01-08T12:58:29Z</time>
      </trkpt>
      <trkpt lat="43.45446" lon="6.4309">
        <ele>100</ele>
        <time>2025-01-08T12:58:59Z</time>
      </trkpt>
      <trkpt lat="43.45449" lon="6.43097">
        <ele>99</ele>
        <time>2025-01-08T12:59:21Z</time>
      </trkpt>
      <trkpt lat="43.4545" lon="6.43099">
        <ele>99</ele>
        <time>2025-01-08T12:59:23Z</time>
      </trkpt>
      <trkpt lat="43.45452" lon="6.43101">
        <ele>99</ele>
        <time>2025-01-08T12:59:27Z</time>
      </trkpt>
      <trkpt lat="43.45452" lon="6.43097">
        <ele>100</ele>
        <time>2025-01-08T12:59:31Z</time>
      </trkpt>
      <trkpt lat="43.45456" lon="6.43097">
        <ele>101</ele>
        <time>2025-01-08T12:59:41Z</time>
      </trkpt>
      <trkpt lat="43.45459" lon="6.431">
        <ele>101</ele>
        <time>2025-01-08T12:59:47Z</time>
      </trkpt>
      <trkpt lat="43.45464" lon="6.43103">
        <ele>103</ele>
        <time>2025-01-08T12:59:59Z</time>
      </trkpt>
      <trkpt lat="43.45467" lon="6.43102">
        <ele>105</ele>
        <time>2025-01-08T13:00:07Z</time>
      </trkpt>
      <trkpt lat="43.45469" lon="6.43105">
        <ele>107</ele>
        <time>2025-01-08T13:00:11Z</time>
      </trkpt>
      <trkpt lat="43.45465" lon="6.43107">
        <ele>108</ele>
        <time>2025-01-08T13:00:15Z</time>
      </trkpt>
      <trkpt lat="43.45461" lon="6.4311">
        <ele>109</ele>
        <time>2025-01-08T13:00:21Z</time>
      </trkpt>
      <trkpt lat="43.4546" lon="6.43113">
        <ele>110</ele>
        <time>2025-01-08T13:00:25Z</time>
      </trkpt>
      <trkpt lat="43.45459" lon="6.43117">
        <ele>111</ele>
        <time>2025-01-08T13:00:29Z</time>
      </trkpt>
      <trkpt lat="43.45458" lon="6.43119">
        <ele>111</ele>
        <time>2025-01-08T13:00:35Z</time>
      </trkpt>
      <trkpt lat="43.45451" lon="6.43122">
        <ele>114</ele>
        <time>2025-01-08T13:00:45Z</time>
      </trkpt>
      <trkpt lat="43.45448" lon="6.43127">
        <ele>116</ele>
        <time>2025-01-08T13:00:53Z</time>
      </trkpt>
      <trkpt lat="43.45448" lon="6.43138">
        <ele>117</ele>
        <time>2025-01-08T13:01:07Z</time>
      </trkpt>
      <trkpt lat="43.45444" lon="6.43143">
        <ele>119</ele>
        <time>2025-01-08T13:01:15Z</time>
      </trkpt>
      <trkpt lat="43.45441" lon="6.43144">
        <ele>119</ele>
        <time>2025-01-08T13:01:19Z</time>
      </trkpt>
      <trkpt lat="43.45439" lon="6.43144">
        <ele>120</ele>
        <time>2025-01-08T13:01:21Z</time>
      </trkpt>
      <trkpt lat="43.45437" lon="6.43144">
        <ele>121</ele>
        <time>2025-01-08T13:01:23Z</time>
      </trkpt>
      <trkpt lat="43.45433" lon="6.43149">
        <ele>124</ele>
        <time>2025-01-08T13:01:31Z</time>
      </trkpt>
      <trkpt lat="43.45431" lon="6.43151">
        <ele>125</ele>
        <time>2025-01-08T13:01:35Z</time>
      </trkpt>
      <trkpt lat="43.4542" lon="6.43161">
        <ele>130</ele>
        <time>2025-01-08T13:01:59Z</time>
      </trkpt>
      <trkpt lat="43.45417" lon="6.43165">
        <ele>132</ele>
        <time>2025-01-08T13:02:03Z</time>
      </trkpt>
      <trkpt lat="43.45414" lon="6.43171">
        <ele>133</ele>
        <time>2025-01-08T13:02:11Z</time>
      </trkpt>
      <trkpt lat="43.45416" lon="6.43178">
        <ele>135</ele>
        <time>2025-01-08T13:02:19Z</time>
      </trkpt>
      <trkpt lat="43.45415" lon="6.43182">
        <ele>136</ele>
        <time>2025-01-08T13:02:23Z</time>
      </trkpt>
      <trkpt lat="43.45411" lon="6.43187">
        <ele>138</ele>
        <time>2025-01-08T13:02:31Z</time>
      </trkpt>
      <trkpt lat="43.4541" lon="6.4319">
        <ele>139</ele>
        <time>2025-01-08T13:02:35Z</time>
      </trkpt>
      <trkpt lat="43.45408" lon="6.43188">
        <ele>140</ele>
        <time>2025-01-08T13:04:57Z</time>
      </trkpt>
      <trkpt lat="43.45406" lon="6.43188">
        <ele>144</ele>
        <time>2025-01-08T13:05:01Z</time>
      </trkpt>
      <trkpt lat="43.45404" lon="6.43192">
        <ele>147</ele>
        <time>2025-01-08T13:05:13Z</time>
      </trkpt>
      <trkpt lat="43.45402" lon="6.43194">
        <ele>148</ele>
        <time>2025-01-08T13:05:17Z</time>
      </trkpt>
      <trkpt lat="43.45401" lon="6.43197">
        <ele>147</ele>
        <time>2025-01-08T13:06:33Z</time>
      </trkpt>
      <trkpt lat="43.454" lon="6.432">
        <ele>149</ele>
        <time>2025-01-08T13:06:37Z</time>
      </trkpt>
      <trkpt lat="43.454" lon="6.43207">
        <ele>150</ele>
        <time>2025-01-08T13:06:47Z</time>
      </trkpt>
      <trkpt lat="43.45397" lon="6.43209">
        <ele>151</ele>
        <time>2025-01-08T13:06:51Z</time>
      </trkpt>
      <trkpt lat="43.45396" lon="6.43211">
        <ele>151</ele>
        <time>2025-01-08T13:06:57Z</time>
      </trkpt>
      <trkpt lat="43.45394" lon="6.43216">
        <ele>152</ele>
        <time>2025-01-08T13:07:13Z</time>
      </trkpt>
      <trkpt lat="43.45394" lon="6.43219">
        <ele>153</ele>
        <time>2025-01-08T13:07:17Z</time>
      </trkpt>
      <trkpt lat="43.45394" lon="6.43221">
        <ele>154</ele>
        <time>2025-01-08T13:07:23Z</time>
      </trkpt>
      <trkpt lat="43.45392" lon="6.43223">
        <ele>154</ele>
        <time>2025-01-08T13:07:31Z</time>
      </trkpt>
      <trkpt lat="43.45391" lon="6.43225">
        <ele>154</ele>
        <time>2025-01-08T13:07:35Z</time>
      </trkpt>
      <trkpt lat="43.45392" lon="6.4323">
        <ele>155</ele>
        <time>2025-01-08T13:07:45Z</time>
      </trkpt>
      <trkpt lat="43.45388" lon="6.43231">
        <ele>156</ele>
        <time>2025-01-08T13:07:53Z</time>
      </trkpt>
      <trkpt lat="43.45386" lon="6.4323">
        <ele>156</ele>
        <time>2025-01-08T13:07:55Z</time>
      </trkpt>
      <trkpt lat="43.45384" lon="6.43231">
        <ele>157</ele>
        <time>2025-01-08T13:07:59Z</time>
      </trkpt>
      <trkpt lat="43.4538" lon="6.43235">
        <ele>159</ele>
        <time>2025-01-08T13:08:05Z</time>
      </trkpt>
      <trkpt lat="43.45378" lon="6.43238">
        <ele>160</ele>
        <time>2025-01-08T13:08:09Z</time>
      </trkpt>
      <trkpt lat="43.45377" lon="6.4324">
        <ele>160</ele>
        <time>2025-01-08T13:08:11Z</time>
      </trkpt>
      <trkpt lat="43.45378" lon="6.43242">
        <ele>161</ele>
        <time>2025-01-08T13:08:17Z</time>
      </trkpt>
      <trkpt lat="43.4538" lon="6.43243">
        <ele>162</ele>
        <time>2025-01-08T13:08:23Z</time>
      </trkpt>
      <trkpt lat="43.45376" lon="6.43246">
        <ele>163</ele>
        <time>2025-01-08T13:08:31Z</time>
      </trkpt>
      <trkpt lat="43.45373" lon="6.43247">
        <ele>163</ele>
        <time>2025-01-08T13:08:35Z</time>
      </trkpt>
      <trkpt lat="43.45373" lon="6.43251">
        <ele>165</ele>
        <time>2025-01-08T13:08:45Z</time>
      </trkpt>
      <trkpt lat="43.45372" lon="6.43253">
        <ele>165</ele>
        <time>2025-01-08T13:08:55Z</time>
      </trkpt>
      <trkpt lat="43.4537" lon="6.43253">
        <ele>166</ele>
        <time>2025-01-08T13:08:57Z</time>
      </trkpt>
      <trkpt lat="43.45368" lon="6.43254">
        <ele>167</ele>
        <time>2025-01-08T13:09:01Z</time>
      </trkpt>
      <trkpt lat="43.45366" lon="6.43256">
        <ele>168</ele>
        <time>2025-01-08T13:09:11Z</time>
      </trkpt>
      <trkpt lat="43.45365" lon="6.43258">
        <ele>168</ele>
        <time>2025-01-08T13:09:17Z</time>
      </trkpt>
      <trkpt lat="43.45366" lon="6.43265">
        <ele>168</ele>
        <time>2025-01-08T13:09:23Z</time>
      </trkpt>
      <trkpt lat="43.45361" lon="6.43269">
        <ele>168</ele>
        <time>2025-01-08T13:09:27Z</time>
      </trkpt>
      <trkpt lat="43.45362" lon="6.4327">
        <ele>168</ele>
        <time>2025-01-08T13:09:39Z</time>
      </trkpt>
      <trkpt lat="43.45363" lon="6.43273">
        <ele>168</ele>
        <time>2025-01-08T13:09:41Z</time>
      </trkpt>
      <trkpt lat="43.45362" lon="6.43276">
        <ele>168</ele>
        <time>2025-01-08T13:09:45Z</time>
      </trkpt>
      <trkpt lat="43.45361" lon="6.43276">
        <ele>167</ele>
        <time>2025-01-08T13:09:51Z</time>
      </trkpt>
      <trkpt lat="43.45359" lon="6.43288">
        <ele>166</ele>
        <time>2025-01-08T13:10:59Z</time>
      </trkpt>
      <trkpt lat="43.4536" lon="6.43298">
        <ele>167</ele>
        <time>2025-01-08T13:11:39Z</time>
      </trkpt>
      <trkpt lat="43.45358" lon="6.43296">
        <ele>168</ele>
        <time>2025-01-08T13:11:43Z</time>
      </trkpt>
      <trkpt lat="43.45356" lon="6.43295">
        <ele>169</ele>
        <time>2025-01-08T13:11:45Z</time>
      </trkpt>
      <trkpt lat="43.45355" lon="6.43292">
        <ele>169</ele>
        <time>2025-01-08T13:11:49Z</time>
      </trkpt>
      <trkpt lat="43.45357" lon="6.43289">
        <ele>169</ele>
        <time>2025-01-08T13:13:23Z</time>
      </trkpt>
      <trkpt lat="43.45356" lon="6.43286">
        <ele>169</ele>
        <time>2025-01-08T13:13:39Z</time>
      </trkpt>
      <trkpt lat="43.45354" lon="6.43289">
        <ele>168</ele>
        <time>2025-01-08T13:17:01Z</time>
      </trkpt>
      <trkpt lat="43.45353" lon="6.4329">
        <ele>168</ele>
        <time>2025-01-08T13:17:03Z</time>
      </trkpt>
      <trkpt lat="43.45352" lon="6.43292">
        <ele>169</ele>
        <time>2025-01-08T13:17:11Z</time>
      </trkpt>
      <trkpt lat="43.45359" lon="6.43287">
        <ele>169</ele>
        <time>2025-01-08T13:17:41Z</time>
      </trkpt>
      <trkpt lat="43.4536" lon="6.4329">
        <ele>169</ele>
        <time>2025-01-08T13:17:53Z</time>
      </trkpt>
      <trkpt lat="43.45352" lon="6.43302">
        <ele>170</ele>
        <time>2025-01-08T13:18:05Z</time>
      </trkpt>
      <trkpt lat="43.45352" lon="6.43309">
        <ele>168</ele>
        <time>2025-01-08T13:18:11Z</time>
      </trkpt>
      <trkpt lat="43.45352" lon="6.43312">
        <ele>168</ele>
        <time>2025-01-08T13:18:13Z</time>
      </trkpt>
      <trkpt lat="43.4534" lon="6.43352">
        <ele>158</ele>
        <time>2025-01-08T13:18:43Z</time>
      </trkpt>
      <trkpt lat="43.45335" lon="6.43363">
        <ele>155</ele>
        <time>2025-01-08T13:18:51Z</time>
      </trkpt>
      <trkpt lat="43.45334" lon="6.43366">
        <ele>155</ele>
        <time>2025-01-08T13:18:53Z</time>
      </trkpt>
      <trkpt lat="43.45332" lon="6.43373">
        <ele>154</ele>
        <time>2025-01-08T13:18:57Z</time>
      </trkpt>
      <trkpt lat="43.45331" lon="6.43376">
        <ele>153</ele>
        <time>2025-01-08T13:18:59Z</time>
      </trkpt>
      <trkpt lat="43.45331" lon="6.43386">
        <ele>152</ele>
        <time>2025-01-08T13:19:05Z</time>
      </trkpt>
      <trkpt lat="43.45328" lon="6.43399">
        <ele>150</ele>
        <time>2025-01-08T13:19:13Z</time>
      </trkpt>
      <trkpt lat="43.45327" lon="6.43403">
        <ele>150</ele>
        <time>2025-01-08T13:19:17Z</time>
      </trkpt>
      <trkpt lat="43.45327" lon="6.43406">
        <ele>150</ele>
        <time>2025-01-08T13:19:19Z</time>
      </trkpt>
      <trkpt lat="43.45326" lon="6.43417">
        <ele>152</ele>
        <time>2025-01-08T13:19:27Z</time>
      </trkpt>
      <trkpt lat="43.45325" lon="6.43428">
        <ele>152</ele>
        <time>2025-01-08T13:19:35Z</time>
      </trkpt>
      <trkpt lat="43.45325" lon="6.43432">
        <ele>152</ele>
        <time>2025-01-08T13:19:37Z</time>
      </trkpt>
      <trkpt lat="43.45326" lon="6.43438">
        <ele>152</ele>
        <time>2025-01-08T13:19:41Z</time>
      </trkpt>
      <trkpt lat="43.45327" lon="6.4344">
        <ele>152</ele>
        <time>2025-01-08T13:19:43Z</time>
      </trkpt>
      <trkpt lat="43.45333" lon="6.43442">
        <ele>153</ele>
        <time>2025-01-08T13:19:49Z</time>
      </trkpt>
      <trkpt lat="43.45336" lon="6.43442">
        <ele>153</ele>
        <time>2025-01-08T13:19:51Z</time>
      </trkpt>
      <trkpt lat="43.45349" lon="6.43444">
        <ele>154</ele>
        <time>2025-01-08T13:20:01Z</time>
      </trkpt>
      <trkpt lat="43.45351" lon="6.43444">
        <ele>154</ele>
        <time>2025-01-08T13:20:03Z</time>
      </trkpt>
      <trkpt lat="43.45353" lon="6.43444">
        <ele>154</ele>
        <time>2025-01-08T13:20:05Z</time>
      </trkpt>
      <trkpt lat="43.45356" lon="6.43444">
        <ele>154</ele>
        <time>2025-01-08T13:20:07Z</time>
      </trkpt>
      <trkpt lat="43.45358" lon="6.43443">
        <ele>155</ele>
        <time>2025-01-08T13:20:09Z</time>
      </trkpt>
      <trkpt lat="43.45359" lon="6.43442">
        <ele>155</ele>
        <time>2025-01-08T13:20:11Z</time>
      </trkpt>
      <trkpt lat="43.45364" lon="6.43438">
        <ele>155</ele>
        <time>2025-01-08T13:20:15Z</time>
      </trkpt>
      <trkpt lat="43.45375" lon="6.4343">
        <ele>156</ele>
        <time>2025-01-08T13:20:25Z</time>
      </trkpt>
      <trkpt lat="43.45383" lon="6.43423">
        <ele>155</ele>
        <time>2025-01-08T13:20:33Z</time>
      </trkpt>
      <trkpt lat="43.45388" lon="6.43424">
        <ele>155</ele>
        <time>2025-01-08T13:20:37Z</time>
      </trkpt>
      <trkpt lat="43.45393" lon="6.43422">
        <ele>155</ele>
        <time>2025-01-08T13:20:45Z</time>
      </trkpt>
      <trkpt lat="43.45395" lon="6.43419">
        <ele>155</ele>
        <time>2025-01-08T13:20:47Z</time>
      </trkpt>
      <trkpt lat="43.45402" lon="6.43418">
        <ele>154</ele>
        <time>2025-01-08T13:20:53Z</time>
      </trkpt>
      <trkpt lat="43.45411" lon="6.43415">
        <ele>154</ele>
        <time>2025-01-08T13:21:03Z</time>
      </trkpt>
      <trkpt lat="43.45414" lon="6.43415">
        <ele>154</ele>
        <time>2025-01-08T13:21:07Z</time>
      </trkpt>
      <trkpt lat="43.45418" lon="6.43419">
        <ele>154</ele>
        <time>2025-01-08T13:21:11Z</time>
      </trkpt>
      <trkpt lat="43.45419" lon="6.43421">
        <ele>154</ele>
        <time>2025-01-08T13:21:15Z</time>
      </trkpt>
      <trkpt lat="43.45404" lon="6.43443">
        <ele>155</ele>
        <time>2025-01-08T13:21:37Z</time>
      </trkpt>
      <trkpt lat="43.45401" lon="6.43451">
        <ele>155</ele>
        <time>2025-01-08T13:21:45Z</time>
      </trkpt>
      <trkpt lat="43.45403" lon="6.43454">
        <ele>155</ele>
        <time>2025-01-08T13:21:49Z</time>
      </trkpt>
      <trkpt lat="43.45406" lon="6.4346">
        <ele>156</ele>
        <time>2025-01-08T13:21:57Z</time>
      </trkpt>
      <trkpt lat="43.45409" lon="6.43462">
        <ele>156</ele>
        <time>2025-01-08T13:22:01Z</time>
      </trkpt>
      <trkpt lat="43.45412" lon="6.43461">
        <ele>157</ele>
        <time>2025-01-08T13:22:05Z</time>
      </trkpt>
      <trkpt lat="43.45414" lon="6.43457">
        <ele>159</ele>
        <time>2025-01-08T13:22:09Z</time>
      </trkpt>
      <trkpt lat="43.45422" lon="6.43452">
        <ele>162</ele>
        <time>2025-01-08T13:22:19Z</time>
      </trkpt>
      <trkpt lat="43.45437" lon="6.43448">
        <ele>169</ele>
        <time>2025-01-08T13:22:37Z</time>
      </trkpt>
      <trkpt lat="43.45443" lon="6.43441">
        <ele>172</ele>
        <time>2025-01-08T13:22:43Z</time>
      </trkpt>
      <trkpt lat="43.45447" lon="6.43435">
        <ele>174</ele>
        <time>2025-01-08T13:22:47Z</time>
      </trkpt>
      <trkpt lat="43.45448" lon="6.43432">
        <ele>175</ele>
        <time>2025-01-08T13:22:49Z</time>
      </trkpt>
      <trkpt lat="43.4545" lon="6.4343">
        <ele>175</ele>
        <time>2025-01-08T13:22:51Z</time>
      </trkpt>
      <trkpt lat="43.45452" lon="6.43428">
        <ele>176</ele>
        <time>2025-01-08T13:22:53Z</time>
      </trkpt>
      <trkpt lat="43.45454" lon="6.43426">
        <ele>176</ele>
        <time>2025-01-08T13:22:57Z</time>
      </trkpt>
      <trkpt lat="43.45462" lon="6.43424">
        <ele>177</ele>
        <time>2025-01-08T13:23:05Z</time>
      </trkpt>
      <trkpt lat="43.45466" lon="6.43423">
        <ele>178</ele>
        <time>2025-01-08T13:23:09Z</time>
      </trkpt>
      <trkpt lat="43.45468" lon="6.43423">
        <ele>178</ele>
        <time>2025-01-08T13:23:11Z</time>
      </trkpt>
      <trkpt lat="43.45474" lon="6.43424">
        <ele>179</ele>
        <time>2025-01-08T13:23:17Z</time>
      </trkpt>
      <trkpt lat="43.45476" lon="6.43423">
        <ele>180</ele>
        <time>2025-01-08T13:23:21Z</time>
      </trkpt>
      <trkpt lat="43.45478" lon="6.43424">
        <ele>181</ele>
        <time>2025-01-08T13:23:27Z</time>
      </trkpt>
      <trkpt lat="43.45477" lon="6.43433">
        <ele>181</ele>
        <time>2025-01-08T13:23:37Z</time>
      </trkpt>
      <trkpt lat="43.45476" lon="6.43438">
        <ele>181</ele>
        <time>2025-01-08T13:23:41Z</time>
      </trkpt>
      <trkpt lat="43.45478" lon="6.43442">
        <ele>181</ele>
        <time>2025-01-08T13:23:45Z</time>
      </trkpt>
      <trkpt lat="43.45496" lon="6.43452">
        <ele>186</ele>
        <time>2025-01-08T13:24:11Z</time>
      </trkpt>
      <trkpt lat="43.45499" lon="6.43451">
        <ele>188</ele>
        <time>2025-01-08T13:24:15Z</time>
      </trkpt>
      <trkpt lat="43.45502" lon="6.43448">
        <ele>189</ele>
        <time>2025-01-08T13:24:19Z</time>
      </trkpt>
      <trkpt lat="43.45505" lon="6.43448">
        <ele>190</ele>
        <time>2025-01-08T13:24:23Z</time>
      </trkpt>
      <trkpt lat="43.45506" lon="6.43451">
        <ele>191</ele>
        <time>2025-01-08T13:24:27Z</time>
      </trkpt>
      <trkpt lat="43.45501" lon="6.43459">
        <ele>194</ele>
        <time>2025-01-08T13:24:37Z</time>
      </trkpt>
      <trkpt lat="43.455" lon="6.43463">
        <ele>195</ele>
        <time>2025-01-08T13:24:41Z</time>
      </trkpt>
      <trkpt lat="43.45501" lon="6.43466">
        <ele>196</ele>
        <time>2025-01-08T13:24:45Z</time>
      </trkpt>
      <trkpt lat="43.45507" lon="6.43468">
        <ele>198</ele>
        <time>2025-01-08T13:24:53Z</time>
      </trkpt>
      <trkpt lat="43.45509" lon="6.43469">
        <ele>199</ele>
        <time>2025-01-08T13:24:57Z</time>
      </trkpt>
      <trkpt lat="43.4551" lon="6.43472">
        <ele>199</ele>
        <time>2025-01-08T13:25:01Z</time>
      </trkpt>
      <trkpt lat="43.45519" lon="6.43477">
        <ele>200</ele>
        <time>2025-01-08T13:25:13Z</time>
      </trkpt>
      <trkpt lat="43.45524" lon="6.43478">
        <ele>201</ele>
        <time>2025-01-08T13:25:17Z</time>
      </trkpt>
      <trkpt lat="43.45532" lon="6.43484">
        <ele>203</ele>
        <time>2025-01-08T13:25:29Z</time>
      </trkpt>
      <trkpt lat="43.45534" lon="6.43487">
        <ele>204</ele>
        <time>2025-01-08T13:25:33Z</time>
      </trkpt>
      <trkpt lat="43.45535" lon="6.4349">
        <ele>204</ele>
        <time>2025-01-08T13:25:37Z</time>
      </trkpt>
      <trkpt lat="43.45532" lon="6.43495">
        <ele>207</ele>
        <time>2025-01-08T13:25:47Z</time>
      </trkpt>
      <trkpt lat="43.45531" lon="6.43497">
        <ele>210</ele>
        <time>2025-01-08T13:25:53Z</time>
      </trkpt>
      <trkpt lat="43.45529" lon="6.43505">
        <ele>212</ele>
        <time>2025-01-08T13:25:59Z</time>
      </trkpt>
      <trkpt lat="43.45529" lon="6.43508">
        <ele>214</ele>
        <time>2025-01-08T13:26:03Z</time>
      </trkpt>
      <trkpt lat="43.4553" lon="6.43511">
        <ele>216</ele>
        <time>2025-01-08T13:26:07Z</time>
      </trkpt>
      <trkpt lat="43.45531" lon="6.43514">
        <ele>218</ele>
        <time>2025-01-08T13:26:11Z</time>
      </trkpt>
      <trkpt lat="43.45534" lon="6.43519">
        <ele>220</ele>
        <time>2025-01-08T13:26:17Z</time>
      </trkpt>
      <trkpt lat="43.45535" lon="6.43521">
        <ele>220</ele>
        <time>2025-01-08T13:26:19Z</time>
      </trkpt>
      <trkpt lat="43.45536" lon="6.43523">
        <ele>221</ele>
        <time>2025-01-08T13:26:21Z</time>
      </trkpt>
      <trkpt lat="43.45537" lon="6.43524">
        <ele>221</ele>
        <time>2025-01-08T13:26:23Z</time>
      </trkpt>
      <trkpt lat="43.45544" lon="6.43526">
        <ele>224</ele>
        <time>2025-01-08T13:26:33Z</time>
      </trkpt>
      <trkpt lat="43.4555" lon="6.43529">
        <ele>225</ele>
        <time>2025-01-08T13:26:39Z</time>
      </trkpt>
      <trkpt lat="43.45553" lon="6.43534">
        <ele>225</ele>
        <time>2025-01-08T13:26:45Z</time>
      </trkpt>
      <trkpt lat="43.45556" lon="6.43536">
        <ele>225</ele>
        <time>2025-01-08T13:26:47Z</time>
      </trkpt>
      <trkpt lat="43.45557" lon="6.43538">
        <ele>225</ele>
        <time>2025-01-08T13:26:49Z</time>
      </trkpt>
      <trkpt lat="43.45562" lon="6.43544">
        <ele>226</ele>
        <time>2025-01-08T13:26:55Z</time>
      </trkpt>
      <trkpt lat="43.45564" lon="6.43553">
        <ele>227</ele>
        <time>2025-01-08T13:27:03Z</time>
      </trkpt>
      <trkpt lat="43.45567" lon="6.43558">
        <ele>228</ele>
        <time>2025-01-08T13:27:07Z</time>
      </trkpt>
      <trkpt lat="43.4557" lon="6.43564">
        <ele>228</ele>
        <time>2025-01-08T13:27:11Z</time>
      </trkpt>
      <trkpt lat="43.45572" lon="6.43569">
        <ele>228</ele>
        <time>2025-01-08T13:27:15Z</time>
      </trkpt>
      <trkpt lat="43.45574" lon="6.43572">
        <ele>228</ele>
        <time>2025-01-08T13:27:17Z</time>
      </trkpt>
      <trkpt lat="43.45574" lon="6.43576">
        <ele>228</ele>
        <time>2025-01-08T13:27:21Z</time>
      </trkpt>
      <trkpt lat="43.45578" lon="6.43586">
        <ele>229</ele>
        <time>2025-01-08T13:27:29Z</time>
      </trkpt>
      <trkpt lat="43.45579" lon="6.43588">
        <ele>229</ele>
        <time>2025-01-08T13:27:31Z</time>
      </trkpt>
      <trkpt lat="43.45582" lon="6.43593">
        <ele>230</ele>
        <time>2025-01-08T13:27:37Z</time>
      </trkpt>
      <trkpt lat="43.45581" lon="6.43594">
        <ele>231</ele>
        <time>2025-01-08T13:35:09Z</time>
      </trkpt>
      <trkpt lat="43.45584" lon="6.43597">
        <ele>233</ele>
        <time>2025-01-08T13:36:11Z</time>
      </trkpt>
      <trkpt lat="43.45588" lon="6.43603">
        <ele>234</ele>
        <time>2025-01-08T13:36:17Z</time>
      </trkpt>
      <trkpt lat="43.4559" lon="6.43606">
        <ele>235</ele>
        <time>2025-01-08T13:36:21Z</time>
      </trkpt>
      <trkpt lat="43.45591" lon="6.43609">
        <ele>235</ele>
        <time>2025-01-08T13:36:25Z</time>
      </trkpt>
      <trkpt lat="43.45592" lon="6.43613">
        <ele>235</ele>
        <time>2025-01-08T13:36:29Z</time>
      </trkpt>
      <trkpt lat="43.45592" lon="6.43622">
        <ele>234</ele>
        <time>2025-01-08T13:36:37Z</time>
      </trkpt>
      <trkpt lat="43.45591" lon="6.43626">
        <ele>234</ele>
        <time>2025-01-08T13:36:41Z</time>
      </trkpt>
      <trkpt lat="43.4559" lon="6.43629">
        <ele>234</ele>
        <time>2025-01-08T13:36:43Z</time>
      </trkpt>
      <trkpt lat="43.45589" lon="6.43631">
        <ele>234</ele>
        <time>2025-01-08T13:36:45Z</time>
      </trkpt>
      <trkpt lat="43.45588" lon="6.43635">
        <ele>234</ele>
        <time>2025-01-08T13:36:49Z</time>
      </trkpt>
      <trkpt lat="43.45587" lon="6.43638">
        <ele>234</ele>
        <time>2025-01-08T13:36:51Z</time>
      </trkpt>
      <trkpt lat="43.45584" lon="6.43649">
        <ele>235</ele>
        <time>2025-01-08T13:37:01Z</time>
      </trkpt>
      <trkpt lat="43.45585" lon="6.43652">
        <ele>236</ele>
        <time>2025-01-08T13:37:03Z</time>
      </trkpt>
      <trkpt lat="43.45584" lon="6.43655">
        <ele>236</ele>
        <time>2025-01-08T13:37:05Z</time>
      </trkpt>
      <trkpt lat="43.45583" lon="6.43661">
        <ele>237</ele>
        <time>2025-01-08T13:37:09Z</time>
      </trkpt>
      <trkpt lat="43.45582" lon="6.43665">
        <ele>237</ele>
        <time>2025-01-08T13:37:11Z</time>
      </trkpt>
      <trkpt lat="43.45581" lon="6.43667">
        <ele>238</ele>
        <time>2025-01-08T13:37:13Z</time>
      </trkpt>
      <trkpt lat="43.4558" lon="6.43671">
        <ele>239</ele>
        <time>2025-01-08T13:37:15Z</time>
      </trkpt>
      <trkpt lat="43.45579" lon="6.43687">
        <ele>240</ele>
        <time>2025-01-08T13:37:25Z</time>
      </trkpt>
      <trkpt lat="43.45578" lon="6.43692">
        <ele>240</ele>
        <time>2025-01-08T13:37:29Z</time>
      </trkpt>
      <trkpt lat="43.45577" lon="6.43694">
        <ele>240</ele>
        <time>2025-01-08T13:37:31Z</time>
      </trkpt>
      <trkpt lat="43.45569" lon="6.43694">
        <ele>241</ele>
        <time>2025-01-08T13:37:39Z</time>
      </trkpt>
      <trkpt lat="43.45567" lon="6.43696">
        <ele>241</ele>
        <time>2025-01-08T13:37:41Z</time>
      </trkpt>
      <trkpt lat="43.45565" lon="6.43697">
        <ele>242</ele>
        <time>2025-01-08T13:37:43Z</time>
      </trkpt>
      <trkpt lat="43.45562" lon="6.43697">
        <ele>242</ele>
        <time>2025-01-08T13:37:45Z</time>
      </trkpt>
      <trkpt lat="43.4556" lon="6.43696">
        <ele>242</ele>
        <time>2025-01-08T13:37:47Z</time>
      </trkpt>
      <trkpt lat="43.45558" lon="6.43696">
        <ele>242</ele>
        <time>2025-01-08T13:37:49Z</time>
      </trkpt>
      <trkpt lat="43.45556" lon="6.43694">
        <ele>243</ele>
        <time>2025-01-08T13:37:51Z</time>
      </trkpt>
      <trkpt lat="43.45541" lon="6.43681">
        <ele>243</ele>
        <time>2025-01-08T13:38:09Z</time>
      </trkpt>
      <trkpt lat="43.45539" lon="6.43681">
        <ele>242</ele>
        <time>2025-01-08T13:38:13Z</time>
      </trkpt>
      <trkpt lat="43.45537" lon="6.4368">
        <ele>242</ele>
        <time>2025-01-08T13:39:17Z</time>
      </trkpt>
      <trkpt lat="43.45538" lon="6.43673">
        <ele>243</ele>
        <time>2025-01-08T13:40:19Z</time>
      </trkpt>
      <trkpt lat="43.45539" lon="6.43677">
        <ele>245</ele>
        <time>2025-01-08T13:40:53Z</time>
      </trkpt>
      <trkpt lat="43.45541" lon="6.43678">
        <ele>242</ele>
        <time>2025-01-08T13:42:17Z</time>
      </trkpt>
      <trkpt lat="43.45537" lon="6.43677">
        <ele>242</ele>
        <time>2025-01-08T13:43:23Z</time>
      </trkpt>
      <trkpt lat="43.45537" lon="6.43671">
        <ele>244</ele>
        <time>2025-01-08T13:43:35Z</time>
      </trkpt>
      <trkpt lat="43.4554" lon="6.43669">
        <ele>244</ele>
        <time>2025-01-08T13:43:41Z</time>
      </trkpt>
      <trkpt lat="43.45543" lon="6.43667">
        <ele>244</ele>
        <time>2025-01-08T13:43:45Z</time>
      </trkpt>
      <trkpt lat="43.45544" lon="6.43666">
        <ele>244</ele>
        <time>2025-01-08T13:43:47Z</time>
      </trkpt>
      <trkpt lat="43.45547" lon="6.43665">
        <ele>243</ele>
        <time>2025-01-08T13:43:51Z</time>
      </trkpt>
      <trkpt lat="43.45563" lon="6.43672">
        <ele>243</ele>
        <time>2025-01-08T13:44:11Z</time>
      </trkpt>
      <trkpt lat="43.45565" lon="6.43671">
        <ele>242</ele>
        <time>2025-01-08T13:44:15Z</time>
      </trkpt>
      <trkpt lat="43.45566" lon="6.43669">
        <ele>242</ele>
        <time>2025-01-08T13:44:19Z</time>
      </trkpt>
      <trkpt lat="43.45568" lon="6.43663">
        <ele>242</ele>
        <time>2025-01-08T13:44:25Z</time>
      </trkpt>
      <trkpt lat="43.45569" lon="6.43659">
        <ele>241</ele>
        <time>2025-01-08T13:44:29Z</time>
      </trkpt>
      <trkpt lat="43.4557" lon="6.43657">
        <ele>241</ele>
        <time>2025-01-08T13:44:31Z</time>
      </trkpt>
      <trkpt lat="43.45572" lon="6.43649">
        <ele>240</ele>
        <time>2025-01-08T13:44:39Z</time>
      </trkpt>
      <trkpt lat="43.45573" lon="6.43639">
        <ele>239</ele>
        <time>2025-01-08T13:44:47Z</time>
      </trkpt>
      <trkpt lat="43.45573" lon="6.43637">
        <ele>238</ele>
        <time>2025-01-08T13:44:49Z</time>
      </trkpt>
      <trkpt lat="43.45573" lon="6.43632">
        <ele>238</ele>
        <time>2025-01-08T13:44:53Z</time>
      </trkpt>
      <trkpt lat="43.45572" lon="6.43627">
        <ele>237</ele>
        <time>2025-01-08T13:44:57Z</time>
      </trkpt>
      <trkpt lat="43.45572" lon="6.43625">
        <ele>237</ele>
        <time>2025-01-08T13:44:59Z</time>
      </trkpt>
      <trkpt lat="43.45572" lon="6.43623">
        <ele>236</ele>
        <time>2025-01-08T13:45:01Z</time>
      </trkpt>
      <trkpt lat="43.45572" lon="6.4362">
        <ele>236</ele>
        <time>2025-01-08T13:45:03Z</time>
      </trkpt>
      <trkpt lat="43.45572" lon="6.43618">
        <ele>236</ele>
        <time>2025-01-08T13:45:05Z</time>
      </trkpt>
      <trkpt lat="43.45573" lon="6.43616">
        <ele>236</ele>
        <time>2025-01-08T13:45:07Z</time>
      </trkpt>
      <trkpt lat="43.45574" lon="6.43614">
        <ele>236</ele>
        <time>2025-01-08T13:45:11Z</time>
      </trkpt>
      <trkpt lat="43.45572" lon="6.43613">
        <ele>235</ele>
        <time>2025-01-08T13:45:19Z</time>
      </trkpt>
      <trkpt lat="43.45571" lon="6.43614">
        <ele>235</ele>
        <time>2025-01-08T13:45:23Z</time>
      </trkpt>
      <trkpt lat="43.45569" lon="6.43612">
        <ele>235</ele>
        <time>2025-01-08T13:45:29Z</time>
      </trkpt>
      <trkpt lat="43.45566" lon="6.43607">
        <ele>235</ele>
        <time>2025-01-08T13:45:33Z</time>
      </trkpt>
      <trkpt lat="43.45566" lon="6.43605">
        <ele>235</ele>
        <time>2025-01-08T13:45:35Z</time>
      </trkpt>
      <trkpt lat="43.45561" lon="6.43595">
        <ele>235</ele>
        <time>2025-01-08T13:45:45Z</time>
      </trkpt>
      <trkpt lat="43.45557" lon="6.4359">
        <ele>234</ele>
        <time>2025-01-08T13:45:53Z</time>
      </trkpt>
      <trkpt lat="43.45555" lon="6.43587">
        <ele>234</ele>
        <time>2025-01-08T13:45:57Z</time>
      </trkpt>
      <trkpt lat="43.45552" lon="6.43586">
        <ele>234</ele>
        <time>2025-01-08T13:45:59Z</time>
      </trkpt>
      <trkpt lat="43.45537" lon="6.43567">
        <ele>236</ele>
        <time>2025-01-08T13:46:23Z</time>
      </trkpt>
      <trkpt lat="43.45535" lon="6.43565">
        <ele>236</ele>
        <time>2025-01-08T13:46:31Z</time>
      </trkpt>
      <trkpt lat="43.45533" lon="6.43566">
        <ele>234</ele>
        <time>2025-01-08T13:47:05Z</time>
      </trkpt>
      <trkpt lat="43.45532" lon="6.43566">
        <ele>234</ele>
        <time>2025-01-08T13:47:07Z</time>
      </trkpt>
      <trkpt lat="43.4553" lon="6.43568">
        <ele>234</ele>
        <time>2025-01-08T13:47:11Z</time>
      </trkpt>
      <trkpt lat="43.45519" lon="6.43575">
        <ele>235</ele>
        <time>2025-01-08T13:47:27Z</time>
      </trkpt>
      <trkpt lat="43.45514" lon="6.43578">
        <ele>235</ele>
        <time>2025-01-08T13:47:35Z</time>
      </trkpt>
      <trkpt lat="43.4551" lon="6.43582">
        <ele>235</ele>
        <time>2025-01-08T13:47:41Z</time>
      </trkpt>
      <trkpt lat="43.45507" lon="6.43582">
        <ele>235</ele>
        <time>2025-01-08T13:47:45Z</time>
      </trkpt>
      <trkpt lat="43.45503" lon="6.43581">
        <ele>235</ele>
        <time>2025-01-08T13:47:49Z</time>
      </trkpt>
      <trkpt lat="43.45492" lon="6.43579">
        <ele>234</ele>
        <time>2025-01-08T13:48:03Z</time>
      </trkpt>
      <trkpt lat="43.4549" lon="6.43577">
        <ele>234</ele>
        <time>2025-01-08T13:48:07Z</time>
      </trkpt>
      <trkpt lat="43.4549" lon="6.43578">
        <ele>234</ele>
        <time>2025-01-08T13:48:31Z</time>
      </trkpt>
      <trkpt lat="43.45491" lon="6.43581">
        <ele>234</ele>
        <time>2025-01-08T13:48:35Z</time>
      </trkpt>
      <trkpt lat="43.45492" lon="6.43585">
        <ele>233</ele>
        <time>2025-01-08T13:48:39Z</time>
      </trkpt>
      <trkpt lat="43.45491" lon="6.43592">
        <ele>233</ele>
        <time>2025-01-08T13:48:47Z</time>
      </trkpt>
      <trkpt lat="43.45491" lon="6.43598">
        <ele>232</ele>
        <time>2025-01-08T13:48:51Z</time>
      </trkpt>
      <trkpt lat="43.45492" lon="6.43608">
        <ele>233</ele>
        <time>2025-01-08T13:48:59Z</time>
      </trkpt>
      <trkpt lat="43.4549" lon="6.43614">
        <ele>233</ele>
        <time>2025-01-08T13:49:05Z</time>
      </trkpt>
      <trkpt lat="43.45487" lon="6.43624">
        <ele>233</ele>
        <time>2025-01-08T13:49:13Z</time>
      </trkpt>
      <trkpt lat="43.45487" lon="6.43638">
        <ele>233</ele>
        <time>2025-01-08T13:49:21Z</time>
      </trkpt>
      <trkpt lat="43.45487" lon="6.43644">
        <ele>234</ele>
        <time>2025-01-08T13:49:25Z</time>
      </trkpt>
      <trkpt lat="43.45488" lon="6.43647">
        <ele>234</ele>
        <time>2025-01-08T13:49:27Z</time>
      </trkpt>
      <trkpt lat="43.45488" lon="6.43652">
        <ele>235</ele>
        <time>2025-01-08T13:49:31Z</time>
      </trkpt>
      <trkpt lat="43.45488" lon="6.43655">
        <ele>236</ele>
        <time>2025-01-08T13:49:33Z</time>
      </trkpt>
      <trkpt lat="43.45487" lon="6.43657">
        <ele>236</ele>
        <time>2025-01-08T13:49:35Z</time>
      </trkpt>
      <trkpt lat="43.45485" lon="6.43659">
        <ele>237</ele>
        <time>2025-01-08T13:49:37Z</time>
      </trkpt>
      <trkpt lat="43.45484" lon="6.4366">
        <ele>237</ele>
        <time>2025-01-08T13:49:39Z</time>
      </trkpt>
      <trkpt lat="43.45479" lon="6.43661">
        <ele>237</ele>
        <time>2025-01-08T13:49:45Z</time>
      </trkpt>
      <trkpt lat="43.45477" lon="6.43663">
        <ele>237</ele>
        <time>2025-01-08T13:49:49Z</time>
      </trkpt>
      <trkpt lat="43.45478" lon="6.43667">
        <ele>237</ele>
        <time>2025-01-08T13:49:53Z</time>
      </trkpt>
      <trkpt lat="43.45481" lon="6.43668">
        <ele>237</ele>
        <time>2025-01-08T13:49:57Z</time>
      </trkpt>
      <trkpt lat="43.45483" lon="6.43669">
        <ele>238</ele>
        <time>2025-01-08T13:50:01Z</time>
      </trkpt>
      <trkpt lat="43.45485" lon="6.43672">
        <ele>238</ele>
        <time>2025-01-08T13:50:07Z</time>
      </trkpt>
      <trkpt lat="43.45487" lon="6.43682">
        <ele>238</ele>
        <time>2025-01-08T13:50:17Z</time>
      </trkpt>
      <trkpt lat="43.45487" lon="6.43693">
        <ele>238</ele>
        <time>2025-01-08T13:50:29Z</time>
      </trkpt>
      <trkpt lat="43.45489" lon="6.43698">
        <ele>238</ele>
        <time>2025-01-08T13:50:35Z</time>
      </trkpt>
      <trkpt lat="43.45499" lon="6.43732">
        <ele>240</ele>
        <time>2025-01-08T13:51:03Z</time>
      </trkpt>
      <trkpt lat="43.45502" lon="6.43736">
        <ele>240</ele>
        <time>2025-01-08T13:51:07Z</time>
      </trkpt>
      <trkpt lat="43.45503" lon="6.43738">
        <ele>240</ele>
        <time>2025-01-08T13:51:09Z</time>
      </trkpt>
      <trkpt lat="43.45506" lon="6.43744">
        <ele>241</ele>
        <time>2025-01-08T13:51:15Z</time>
      </trkpt>
      <trkpt lat="43.45506" lon="6.43748">
        <ele>241</ele>
        <time>2025-01-08T13:51:19Z</time>
      </trkpt>
      <trkpt lat="43.45506" lon="6.43751">
        <ele>242</ele>
        <time>2025-01-08T13:51:21Z</time>
      </trkpt>
      <trkpt lat="43.45505" lon="6.43763">
        <ele>243</ele>
        <time>2025-01-08T13:51:29Z</time>
      </trkpt>
      <trkpt lat="43.45503" lon="6.4377">
        <ele>243</ele>
        <time>2025-01-08T13:51:35Z</time>
      </trkpt>
      <trkpt lat="43.455" lon="6.43772">
        <ele>243</ele>
        <time>2025-01-08T13:51:39Z</time>
      </trkpt>
      <trkpt lat="43.45497" lon="6.43777">
        <ele>244</ele>
        <time>2025-01-08T13:51:43Z</time>
      </trkpt>
      <trkpt lat="43.45497" lon="6.43785">
        <ele>244</ele>
        <time>2025-01-08T13:51:47Z</time>
      </trkpt>
      <trkpt lat="43.45496" lon="6.43793">
        <ele>245</ele>
        <time>2025-01-08T13:51:51Z</time>
      </trkpt>
      <trkpt lat="43.45496" lon="6.43796">
        <ele>245</ele>
        <time>2025-01-08T13:51:53Z</time>
      </trkpt>
      <trkpt lat="43.4549" lon="6.43814">
        <ele>246</ele>
        <time>2025-01-08T13:52:07Z</time>
      </trkpt>
      <trkpt lat="43.4549" lon="6.43816">
        <ele>245</ele>
        <time>2025-01-08T13:52:09Z</time>
      </trkpt>
      <trkpt lat="43.45482" lon="6.43829">
        <ele>244</ele>
        <time>2025-01-08T13:52:25Z</time>
      </trkpt>
      <trkpt lat="43.4548" lon="6.4383">
        <ele>244</ele>
        <time>2025-01-08T13:52:29Z</time>
      </trkpt>
      <trkpt lat="43.45479" lon="6.43835">
        <ele>246</ele>
        <time>2025-01-08T13:53:37Z</time>
      </trkpt>
      <trkpt lat="43.45478" lon="6.43834">
        <ele>247</ele>
        <time>2025-01-08T13:53:41Z</time>
      </trkpt>
      <trkpt lat="43.45476" lon="6.43833">
        <ele>249</ele>
        <time>2025-01-08T13:55:55Z</time>
      </trkpt>
      <trkpt lat="43.45475" lon="6.43836">
        <ele>250</ele>
        <time>2025-01-08T13:56:03Z</time>
      </trkpt>
      <trkpt lat="43.45475" lon="6.43829">
        <ele>252</ele>
        <time>2025-01-08T13:56:33Z</time>
      </trkpt>
      <trkpt lat="43.45474" lon="6.4383">
        <ele>250</ele>
        <time>2025-01-08T13:57:11Z</time>
      </trkpt>
      <trkpt lat="43.45477" lon="6.4383">
        <ele>250</ele>
        <time>2025-01-08T13:58:33Z</time>
      </trkpt>
      <trkpt lat="43.45481" lon="6.4383">
        <ele>248</ele>
        <time>2025-01-08T13:58:41Z</time>
      </trkpt>
      <trkpt lat="43.45484" lon="6.4383">
        <ele>248</ele>
        <time>2025-01-08T13:58:45Z</time>
      </trkpt>
      <trkpt lat="43.45487" lon="6.43827">
        <ele>247</ele>
        <time>2025-01-08T13:58:49Z</time>
      </trkpt>
      <trkpt lat="43.45489" lon="6.43824">
        <ele>246</ele>
        <time>2025-01-08T13:58:51Z</time>
      </trkpt>
      <trkpt lat="43.4549" lon="6.43821">
        <ele>245</ele>
        <time>2025-01-08T13:58:53Z</time>
      </trkpt>
      <trkpt lat="43.45492" lon="6.43812">
        <ele>243</ele>
        <time>2025-01-08T13:58:59Z</time>
      </trkpt>
      <trkpt lat="43.45494" lon="6.43807">
        <ele>242</ele>
        <time>2025-01-08T13:59:03Z</time>
      </trkpt>
      <trkpt lat="43.455" lon="6.43797">
        <ele>242</ele>
        <time>2025-01-08T13:59:11Z</time>
      </trkpt>
      <trkpt lat="43.45502" lon="6.43796">
        <ele>242</ele>
        <time>2025-01-08T13:59:13Z</time>
      </trkpt>
      <trkpt lat="43.45503" lon="6.43794">
        <ele>243</ele>
        <time>2025-01-08T13:59:15Z</time>
      </trkpt>
      <trkpt lat="43.4551" lon="6.43778">
        <ele>244</ele>
        <time>2025-01-08T13:59:23Z</time>
      </trkpt>
      <trkpt lat="43.45512" lon="6.43773">
        <ele>244</ele>
        <time>2025-01-08T13:59:27Z</time>
      </trkpt>
      <trkpt lat="43.45514" lon="6.4377">
        <ele>244</ele>
        <time>2025-01-08T13:59:29Z</time>
      </trkpt>
      <trkpt lat="43.45519" lon="6.43767">
        <ele>243</ele>
        <time>2025-01-08T13:59:33Z</time>
      </trkpt>
      <trkpt lat="43.45538" lon="6.43754">
        <ele>244</ele>
        <time>2025-01-08T13:59:49Z</time>
      </trkpt>
      <trkpt lat="43.45543" lon="6.43751">
        <ele>244</ele>
        <time>2025-01-08T13:59:55Z</time>
      </trkpt>
      <trkpt lat="43.45545" lon="6.43749">
        <ele>244</ele>
        <time>2025-01-08T13:59:57Z</time>
      </trkpt>
      <trkpt lat="43.45547" lon="6.43747">
        <ele>243</ele>
        <time>2025-01-08T13:59:59Z</time>
      </trkpt>
      <trkpt lat="43.45556" lon="6.43742">
        <ele>241</ele>
        <time>2025-01-08T14:00:09Z</time>
      </trkpt>
      <trkpt lat="43.45559" lon="6.43739">
        <ele>240</ele>
        <time>2025-01-08T14:00:13Z</time>
      </trkpt>
      <trkpt lat="43.4556" lon="6.43736">
        <ele>240</ele>
        <time>2025-01-08T14:00:15Z</time>
      </trkpt>
      <trkpt lat="43.45561" lon="6.43734">
        <ele>240</ele>
        <time>2025-01-08T14:00:19Z</time>
      </trkpt>
      <trkpt lat="43.45571" lon="6.43731">
        <ele>237</ele>
        <time>2025-01-08T14:00:27Z</time>
      </trkpt>
      <trkpt lat="43.45575" lon="6.43731">
        <ele>237</ele>
        <time>2025-01-08T14:00:29Z</time>
      </trkpt>
      <trkpt lat="43.45603" lon="6.43726">
        <ele>235</ele>
        <time>2025-01-08T14:00:59Z</time>
      </trkpt>
      <trkpt lat="43.45606" lon="6.43726">
        <ele>234</ele>
        <time>2025-01-08T14:01:03Z</time>
      </trkpt>
      <trkpt lat="43.4562" lon="6.43723">
        <ele>229</ele>
        <time>2025-01-08T14:01:17Z</time>
      </trkpt>
      <trkpt lat="43.45634" lon="6.43726">
        <ele>228</ele>
        <time>2025-01-08T14:01:29Z</time>
      </trkpt>
      <trkpt lat="43.45636" lon="6.43726">
        <ele>228</ele>
        <time>2025-01-08T14:01:31Z</time>
      </trkpt>
      <trkpt lat="43.45642" lon="6.43728">
        <ele>228</ele>
        <time>2025-01-08T14:01:37Z</time>
      </trkpt>
      <trkpt lat="43.45646" lon="6.43732">
        <ele>229</ele>
        <time>2025-01-08T14:01:43Z</time>
      </trkpt>
      <trkpt lat="43.45651" lon="6.43734">
        <ele>229</ele>
        <time>2025-01-08T14:01:49Z</time>
      </trkpt>
      <trkpt lat="43.45653" lon="6.43735">
        <ele>228</ele>
        <time>2025-01-08T14:01:51Z</time>
      </trkpt>
      <trkpt lat="43.45657" lon="6.43735">
        <ele>228</ele>
        <time>2025-01-08T14:01:53Z</time>
      </trkpt>
      <trkpt lat="43.45671" lon="6.4374">
        <ele>225</ele>
        <time>2025-01-08T14:02:03Z</time>
      </trkpt>
      <trkpt lat="43.45679" lon="6.43747">
        <ele>224</ele>
        <time>2025-01-08T14:02:11Z</time>
      </trkpt>
      <trkpt lat="43.45682" lon="6.43752">
        <ele>224</ele>
        <time>2025-01-08T14:02:15Z</time>
      </trkpt>
      <trkpt lat="43.45687" lon="6.43758">
        <ele>224</ele>
        <time>2025-01-08T14:02:19Z</time>
      </trkpt>
      <trkpt lat="43.45691" lon="6.43765">
        <ele>224</ele>
        <time>2025-01-08T14:02:25Z</time>
      </trkpt>
      <trkpt lat="43.45688" lon="6.43762">
        <ele>227</ele>
        <time>2025-01-08T14:02:53Z</time>
      </trkpt>
      <trkpt lat="43.45703" lon="6.43784">
        <ele>223</ele>
        <time>2025-01-08T14:03:07Z</time>
      </trkpt>
      <trkpt lat="43.45704" lon="6.43787">
        <ele>223</ele>
        <time>2025-01-08T14:03:09Z</time>
      </trkpt>
      <trkpt lat="43.45704" lon="6.4379">
        <ele>222</ele>
        <time>2025-01-08T14:03:11Z</time>
      </trkpt>
      <trkpt lat="43.45714" lon="6.43805">
        <ele>218</ele>
        <time>2025-01-08T14:03:25Z</time>
      </trkpt>
      <trkpt lat="43.45716" lon="6.43807">
        <ele>218</ele>
        <time>2025-01-08T14:03:27Z</time>
      </trkpt>
      <trkpt lat="43.45721" lon="6.43813">
        <ele>216</ele>
        <time>2025-01-08T14:03:33Z</time>
      </trkpt>
      <trkpt lat="43.45722" lon="6.43816">
        <ele>215</ele>
        <time>2025-01-08T14:03:35Z</time>
      </trkpt>
      <trkpt lat="43.45726" lon="6.43825">
        <ele>215</ele>
        <time>2025-01-08T14:03:41Z</time>
      </trkpt>
      <trkpt lat="43.45729" lon="6.43833">
        <ele>214</ele>
        <time>2025-01-08T14:03:47Z</time>
      </trkpt>
      <trkpt lat="43.4573" lon="6.43836">
        <ele>213</ele>
        <time>2025-01-08T14:03:49Z</time>
      </trkpt>
      <trkpt lat="43.45733" lon="6.43842">
        <ele>211</ele>
        <time>2025-01-08T14:03:53Z</time>
      </trkpt>
      <trkpt lat="43.45733" lon="6.43845">
        <ele>211</ele>
        <time>2025-01-08T14:03:55Z</time>
      </trkpt>
      <trkpt lat="43.45739" lon="6.43861">
        <ele>207</ele>
        <time>2025-01-08T14:04:07Z</time>
      </trkpt>
      <trkpt lat="43.45742" lon="6.43867">
        <ele>207</ele>
        <time>2025-01-08T14:04:11Z</time>
      </trkpt>
      <trkpt lat="43.45746" lon="6.4389">
        <ele>206</ele>
        <time>2025-01-08T14:04:23Z</time>
      </trkpt>
      <trkpt lat="43.45751" lon="6.43936">
        <ele>204</ele>
        <time>2025-01-08T14:04:45Z</time>
      </trkpt>
      <trkpt lat="43.45752" lon="6.43942">
        <ele>203</ele>
        <time>2025-01-08T14:04:49Z</time>
      </trkpt>
      <trkpt lat="43.45751" lon="6.43948">
        <ele>203</ele>
        <time>2025-01-08T14:04:53Z</time>
      </trkpt>
      <trkpt lat="43.4575" lon="6.43951">
        <ele>203</ele>
        <time>2025-01-08T14:04:55Z</time>
      </trkpt>
      <trkpt lat="43.45748" lon="6.43955">
        <ele>203</ele>
        <time>2025-01-08T14:04:57Z</time>
      </trkpt>
      <trkpt lat="43.45745" lon="6.43963">
        <ele>202</ele>
        <time>2025-01-08T14:05:01Z</time>
      </trkpt>
      <trkpt lat="43.45745" lon="6.43972">
        <ele>199</ele>
        <time>2025-01-08T14:05:05Z</time>
      </trkpt>
      <trkpt lat="43.45744" lon="6.43976">
        <ele>198</ele>
        <time>2025-01-08T14:05:07Z</time>
      </trkpt>
      <trkpt lat="43.45745" lon="6.4398">
        <ele>197</ele>
        <time>2025-01-08T14:05:09Z</time>
      </trkpt>
      <trkpt lat="43.45745" lon="6.43987">
        <ele>194</ele>
        <time>2025-01-08T14:05:13Z</time>
      </trkpt>
      <trkpt lat="43.45745" lon="6.43994">
        <ele>192</ele>
        <time>2025-01-08T14:05:17Z</time>
      </trkpt>
      <trkpt lat="43.45746" lon="6.44002">
        <ele>191</ele>
        <time>2025-01-08T14:05:21Z</time>
      </trkpt>
      <trkpt lat="43.45746" lon="6.44005">
        <ele>190</ele>
        <time>2025-01-08T14:05:23Z</time>
      </trkpt>
      <trkpt lat="43.45746" lon="6.44008">
        <ele>191</ele>
        <time>2025-01-08T14:05:25Z</time>
      </trkpt>
      <trkpt lat="43.4575" lon="6.44035">
        <ele>190</ele>
        <time>2025-01-08T14:05:37Z</time>
      </trkpt>
      <trkpt lat="43.45756" lon="6.44049">
        <ele>188</ele>
        <time>2025-01-08T14:05:43Z</time>
      </trkpt>
      <trkpt lat="43.45758" lon="6.44053">
        <ele>188</ele>
        <time>2025-01-08T14:05:45Z</time>
      </trkpt>
      <trkpt lat="43.4576" lon="6.44061">
        <ele>189</ele>
        <time>2025-01-08T14:05:49Z</time>
      </trkpt>
      <trkpt lat="43.45764" lon="6.44066">
        <ele>189</ele>
        <time>2025-01-08T14:05:53Z</time>
      </trkpt>
      <trkpt lat="43.45767" lon="6.44078">
        <ele>189</ele>
        <time>2025-01-08T14:05:59Z</time>
      </trkpt>
      <trkpt lat="43.45778" lon="6.44094">
        <ele>188</ele>
        <time>2025-01-08T14:06:09Z</time>
      </trkpt>
      <trkpt lat="43.4578" lon="6.44094">
        <ele>187</ele>
        <time>2025-01-08T14:06:11Z</time>
      </trkpt>
      <trkpt lat="43.45783" lon="6.44095">
        <ele>186</ele>
        <time>2025-01-08T14:06:13Z</time>
      </trkpt>
      <trkpt lat="43.45785" lon="6.44095">
        <ele>186</ele>
        <time>2025-01-08T14:06:15Z</time>
      </trkpt>
      <trkpt lat="43.45789" lon="6.44096">
        <ele>185</ele>
        <time>2025-01-08T14:06:19Z</time>
      </trkpt>
      <trkpt lat="43.45799" lon="6.44095">
        <ele>184</ele>
        <time>2025-01-08T14:06:29Z</time>
      </trkpt>
      <trkpt lat="43.45806" lon="6.44093">
        <ele>186</ele>
        <time>2025-01-08T14:06:37Z</time>
      </trkpt>
      <trkpt lat="43.45822" lon="6.44093">
        <ele>187</ele>
        <time>2025-01-08T14:06:47Z</time>
      </trkpt>
      <trkpt lat="43.45829" lon="6.44091">
        <ele>186</ele>
        <time>2025-01-08T14:06:51Z</time>
      </trkpt>
      <trkpt lat="43.45832" lon="6.44091">
        <ele>186</ele>
        <time>2025-01-08T14:06:53Z</time>
      </trkpt>
      <trkpt lat="43.4584" lon="6.4409">
        <ele>185</ele>
        <time>2025-01-08T14:06:57Z</time>
      </trkpt>
      <trkpt lat="43.45851" lon="6.44088">
        <ele>182</ele>
        <time>2025-01-08T14:07:05Z</time>
      </trkpt>
      <trkpt lat="43.45869" lon="6.44086">
        <ele>180</ele>
        <time>2025-01-08T14:07:17Z</time>
      </trkpt>
      <trkpt lat="43.45913" lon="6.44067">
        <ele>173</ele>
        <time>2025-01-08T14:07:47Z</time>
      </trkpt>
      <trkpt lat="43.45915" lon="6.44066">
        <ele>172</ele>
        <time>2025-01-08T14:07:49Z</time>
      </trkpt>
      <trkpt lat="43.45918" lon="6.44066">
        <ele>172</ele>
        <time>2025-01-08T14:07:51Z</time>
      </trkpt>
      <trkpt lat="43.45925" lon="6.44061">
        <ele>171</ele>
        <time>2025-01-08T14:07:57Z</time>
      </trkpt>
      <trkpt lat="43.45933" lon="6.44054">
        <ele>170</ele>
        <time>2025-01-08T14:08:03Z</time>
      </trkpt>
      <trkpt lat="43.45937" lon="6.44051">
        <ele>168</ele>
        <time>2025-01-08T14:08:07Z</time>
      </trkpt>
      <trkpt lat="43.45938" lon="6.44048">
        <ele>167</ele>
        <time>2025-01-08T14:08:09Z</time>
      </trkpt>
      <trkpt lat="43.45941" lon="6.44045">
        <ele>166</ele>
        <time>2025-01-08T14:08:13Z</time>
      </trkpt>
      <trkpt lat="43.45943" lon="6.44042">
        <ele>166</ele>
        <time>2025-01-08T14:08:15Z</time>
      </trkpt>
      <trkpt lat="43.45951" lon="6.44028">
        <ele>166</ele>
        <time>2025-01-08T14:08:23Z</time>
      </trkpt>
      <trkpt lat="43.45956" lon="6.44025">
        <ele>167</ele>
        <time>2025-01-08T14:08:27Z</time>
      </trkpt>
      <trkpt lat="43.4596" lon="6.44031">
        <ele>172</ele>
        <time>2025-01-08T14:10:31Z</time>
      </trkpt>
      <trkpt lat="43.45962" lon="6.44023">
        <ele>172</ele>
        <time>2025-01-08T14:13:05Z</time>
      </trkpt>
      <trkpt lat="43.45963" lon="6.44018">
        <ele>171</ele>
        <time>2025-01-08T14:13:09Z</time>
      </trkpt>
      <trkpt lat="43.45964" lon="6.44016">
        <ele>171</ele>
        <time>2025-01-08T14:13:11Z</time>
      </trkpt>
      <trkpt lat="43.45966" lon="6.4401">
        <ele>170</ele>
        <time>2025-01-08T14:13:15Z</time>
      </trkpt>
      <trkpt lat="43.45968" lon="6.44007">
        <ele>170</ele>
        <time>2025-01-08T14:13:17Z</time>
      </trkpt>
      <trkpt lat="43.45976" lon="6.43993">
        <ele>168</ele>
        <time>2025-01-08T14:13:27Z</time>
      </trkpt>
      <trkpt lat="43.4598" lon="6.43978">
        <ele>168</ele>
        <time>2025-01-08T14:13:37Z</time>
      </trkpt>
      <trkpt lat="43.45981" lon="6.43975">
        <ele>169</ele>
        <time>2025-01-08T14:13:39Z</time>
      </trkpt>
      <trkpt lat="43.45981" lon="6.4397">
        <ele>169</ele>
        <time>2025-01-08T14:13:43Z</time>
      </trkpt>
      <trkpt lat="43.4599" lon="6.4394">
        <ele>173</ele>
        <time>2025-01-08T14:14:01Z</time>
      </trkpt>
      <trkpt lat="43.4599" lon="6.43937">
        <ele>173</ele>
        <time>2025-01-08T14:14:03Z</time>
      </trkpt>
      <trkpt lat="43.4599" lon="6.43933">
        <ele>174</ele>
        <time>2025-01-08T14:14:05Z</time>
      </trkpt>
      <trkpt lat="43.4599" lon="6.43929">
        <ele>174</ele>
        <time>2025-01-08T14:14:07Z</time>
      </trkpt>
      <trkpt lat="43.4599" lon="6.43926">
        <ele>174</ele>
        <time>2025-01-08T14:14:09Z</time>
      </trkpt>
      <trkpt lat="43.45991" lon="6.43922">
        <ele>174</ele>
        <time>2025-01-08T14:14:11Z</time>
      </trkpt>
      <trkpt lat="43.45993" lon="6.43912">
        <ele>175</ele>
        <time>2025-01-08T14:14:17Z</time>
      </trkpt>
      <trkpt lat="43.45997" lon="6.43907">
        <ele>175</ele>
        <time>2025-01-08T14:14:21Z</time>
      </trkpt>
      <trkpt lat="43.46012" lon="6.43896">
        <ele>179</ele>
        <time>2025-01-08T14:14:33Z</time>
      </trkpt>
      <trkpt lat="43.46018" lon="6.43891">
        <ele>179</ele>
        <time>2025-01-08T14:14:39Z</time>
      </trkpt>
      <trkpt lat="43.4603" lon="6.43873">
        <ele>182</ele>
        <time>2025-01-08T14:14:55Z</time>
      </trkpt>
      <trkpt lat="43.46033" lon="6.4387">
        <ele>182</ele>
        <time>2025-01-08T14:14:57Z</time>
      </trkpt>
      <trkpt lat="43.46035" lon="6.43867">
        <ele>182</ele>
        <time>2025-01-08T14:14:59Z</time>
      </trkpt>
      <trkpt lat="43.46049" lon="6.43842">
        <ele>185</ele>
        <time>2025-01-08T14:15:19Z</time>
      </trkpt>
      <trkpt lat="43.46053" lon="6.43837">
        <ele>185</ele>
        <time>2025-01-08T14:15:23Z</time>
      </trkpt>
      <trkpt lat="43.46055" lon="6.43835">
        <ele>185</ele>
        <time>2025-01-08T14:15:25Z</time>
      </trkpt>
      <trkpt lat="43.46059" lon="6.4383">
        <ele>185</ele>
        <time>2025-01-08T14:15:29Z</time>
      </trkpt>
      <trkpt lat="43.46061" lon="6.43822">
        <ele>184</ele>
        <time>2025-01-08T14:15:33Z</time>
      </trkpt>
      <trkpt lat="43.46067" lon="6.43811">
        <ele>184</ele>
        <time>2025-01-08T14:15:41Z</time>
      </trkpt>
      <trkpt lat="43.4607" lon="6.43806">
        <ele>183</ele>
        <time>2025-01-08T14:15:45Z</time>
      </trkpt>
      <trkpt lat="43.46072" lon="6.43798">
        <ele>182</ele>
        <time>2025-01-08T14:15:51Z</time>
      </trkpt>
      <trkpt lat="43.46073" lon="6.43795">
        <ele>182</ele>
        <time>2025-01-08T14:15:53Z</time>
      </trkpt>
      <trkpt lat="43.46074" lon="6.43791">
        <ele>181</ele>
        <time>2025-01-08T14:15:55Z</time>
      </trkpt>
      <trkpt lat="43.46076" lon="6.43788">
        <ele>181</ele>
        <time>2025-01-08T14:15:57Z</time>
      </trkpt>
      <trkpt lat="43.46077" lon="6.43786">
        <ele>181</ele>
        <time>2025-01-08T14:15:59Z</time>
      </trkpt>
      <trkpt lat="43.46079" lon="6.4378">
        <ele>180</ele>
        <time>2025-01-08T14:16:03Z</time>
      </trkpt>
      <trkpt lat="43.46081" lon="6.43778">
        <ele>180</ele>
        <time>2025-01-08T14:16:05Z</time>
      </trkpt>
      <trkpt lat="43.46089" lon="6.43762">
        <ele>182</ele>
        <time>2025-01-08T14:16:15Z</time>
      </trkpt>
      <trkpt lat="43.46111" lon="6.43738">
        <ele>193</ele>
        <time>2025-01-08T14:16:35Z</time>
      </trkpt>
      <trkpt lat="43.46112" lon="6.43736">
        <ele>194</ele>
        <time>2025-01-08T14:16:37Z</time>
      </trkpt>
      <trkpt lat="43.46115" lon="6.43733">
        <ele>195</ele>
        <time>2025-01-08T14:16:41Z</time>
      </trkpt>
      <trkpt lat="43.4612" lon="6.43731">
        <ele>195</ele>
        <time>2025-01-08T14:16:45Z</time>
      </trkpt>
      <trkpt lat="43.46123" lon="6.43731">
        <ele>195</ele>
        <time>2025-01-08T14:16:47Z</time>
      </trkpt>
      <trkpt lat="43.46125" lon="6.43733">
        <ele>195</ele>
        <time>2025-01-08T14:16:49Z</time>
      </trkpt>
      <trkpt lat="43.46131" lon="6.43736">
        <ele>196</ele>
        <time>2025-01-08T14:16:53Z</time>
      </trkpt>
      <trkpt lat="43.46147" lon="6.43754">
        <ele>193</ele>
        <time>2025-01-08T14:17:09Z</time>
      </trkpt>
      <trkpt lat="43.46149" lon="6.43756">
        <ele>193</ele>
        <time>2025-01-08T14:17:11Z</time>
      </trkpt>
      <trkpt lat="43.46152" lon="6.43758">
        <ele>192</ele>
        <time>2025-01-08T14:17:13Z</time>
      </trkpt>
      <trkpt lat="43.46161" lon="6.43769">
        <ele>192</ele>
        <time>2025-01-08T14:17:21Z</time>
      </trkpt>
      <trkpt lat="43.46165" lon="6.43773">
        <ele>193</ele>
        <time>2025-01-08T14:17:25Z</time>
      </trkpt>
      <trkpt lat="43.46174" lon="6.43787">
        <ele>195</ele>
        <time>2025-01-08T14:17:33Z</time>
      </trkpt>
      <trkpt lat="43.46175" lon="6.43794">
        <ele>196</ele>
        <time>2025-01-08T14:17:37Z</time>
      </trkpt>
      <trkpt lat="43.46175" lon="6.43798">
        <ele>196</ele>
        <time>2025-01-08T14:17:39Z</time>
      </trkpt>
      <trkpt lat="43.46178" lon="6.43801">
        <ele>196</ele>
        <time>2025-01-08T14:17:43Z</time>
      </trkpt>
      <trkpt lat="43.46181" lon="6.43805">
        <ele>197</ele>
        <time>2025-01-08T14:17:47Z</time>
      </trkpt>
      <trkpt lat="43.46185" lon="6.43804">
        <ele>197</ele>
        <time>2025-01-08T14:17:51Z</time>
      </trkpt>
      <trkpt lat="43.4619" lon="6.43799">
        <ele>198</ele>
        <time>2025-01-08T14:17:57Z</time>
      </trkpt>
      <trkpt lat="43.46192" lon="6.43798">
        <ele>199</ele>
        <time>2025-01-08T14:17:59Z</time>
      </trkpt>
      <trkpt lat="43.46197" lon="6.43793">
        <ele>201</ele>
        <time>2025-01-08T14:18:05Z</time>
      </trkpt>
      <trkpt lat="43.46201" lon="6.43807">
        <ele>202</ele>
        <time>2025-01-08T14:18:57Z</time>
      </trkpt>
      <trkpt lat="43.46202" lon="6.43804">
        <ele>203</ele>
        <time>2025-01-08T14:19:25Z</time>
      </trkpt>
      <trkpt lat="43.46203" lon="6.43801">
        <ele>202</ele>
        <time>2025-01-08T14:19:31Z</time>
      </trkpt>
      <trkpt lat="43.46202" lon="6.43801">
        <ele>202</ele>
        <time>2025-01-08T14:20:05Z</time>
      </trkpt>
      <trkpt lat="43.46211" lon="6.43803">
        <ele>218</ele>
        <time>2025-01-08T14:20:11Z</time>
      </trkpt>
      <trkpt lat="43.46229" lon="6.43794">
        <ele>236</ele>
        <time>2025-01-08T14:20:15Z</time>
      </trkpt>
      <trkpt lat="43.46239" lon="6.43796">
        <ele>242</ele>
        <time>2025-01-08T14:20:17Z</time>
      </trkpt>
      <trkpt lat="43.4625" lon="6.43797">
        <ele>249</ele>
        <time>2025-01-08T14:20:19Z</time>
      </trkpt>
      <trkpt lat="43.46257" lon="6.43801">
        <ele>255</ele>
        <time>2025-01-08T14:20:21Z</time>
      </trkpt>
      <trkpt lat="43.46258" lon="6.43796">
        <ele>257</ele>
        <time>2025-01-08T14:20:23Z</time>
      </trkpt>
      <trkpt lat="43.46252" lon="6.43786">
        <ele>257</ele>
        <time>2025-01-08T14:20:25Z</time>
      </trkpt>
      <trkpt lat="43.46232" lon="6.43774">
        <ele>236</ele>
        <time>2025-01-08T14:20:29Z</time>
      </trkpt>
      <trkpt lat="43.46223" lon="6.43772">
        <ele>225</ele>
        <time>2025-01-08T14:20:31Z</time>
      </trkpt>
      <trkpt lat="43.46217" lon="6.43772">
        <ele>216</ele>
        <time>2025-01-08T14:20:33Z</time>
      </trkpt>
      <trkpt lat="43.46214" lon="6.43773">
        <ele>213</ele>
        <time>2025-01-08T14:20:35Z</time>
      </trkpt>
      <trkpt lat="43.46213" lon="6.43772">
        <ele>209</ele>
        <time>2025-01-08T14:20:37Z</time>
      </trkpt>
      <trkpt lat="43.46212" lon="6.43771">
        <ele>206</ele>
        <time>2025-01-08T14:20:41Z</time>
      </trkpt>
      <trkpt lat="43.46211" lon="6.4377">
        <ele>203</ele>
        <time>2025-01-08T14:22:09Z</time>
      </trkpt>
      <trkpt lat="43.46211" lon="6.43767">
        <ele>202</ele>
        <time>2025-01-08T14:22:11Z</time>
      </trkpt>
      <trkpt lat="43.46217" lon="6.43749">
        <ele>201</ele>
        <time>2025-01-08T14:22:21Z</time>
      </trkpt>
      <trkpt lat="43.46221" lon="6.43742">
        <ele>201</ele>
        <time>2025-01-08T14:22:27Z</time>
      </trkpt>
      <trkpt lat="43.46228" lon="6.43723">
        <ele>199</ele>
        <time>2025-01-08T14:22:39Z</time>
      </trkpt>
      <trkpt lat="43.4623" lon="6.43718">
        <ele>198</ele>
        <time>2025-01-08T14:22:43Z</time>
      </trkpt>
      <trkpt lat="43.46233" lon="6.43712">
        <ele>198</ele>
        <time>2025-01-08T14:22:47Z</time>
      </trkpt>
      <trkpt lat="43.46236" lon="6.4371">
        <ele>198</ele>
        <time>2025-01-08T14:22:49Z</time>
      </trkpt>
      <trkpt lat="43.46246" lon="6.43683">
        <ele>197</ele>
        <time>2025-01-08T14:23:07Z</time>
      </trkpt>
      <trkpt lat="43.46247" lon="6.43677">
        <ele>197</ele>
        <time>2025-01-08T14:23:11Z</time>
      </trkpt>
      <trkpt lat="43.46247" lon="6.43675">
        <ele>197</ele>
        <time>2025-01-08T14:23:13Z</time>
      </trkpt>
      <trkpt lat="43.46254" lon="6.43657">
        <ele>196</ele>
        <time>2025-01-08T14:23:23Z</time>
      </trkpt>
      <trkpt lat="43.46255" lon="6.43654">
        <ele>196</ele>
        <time>2025-01-08T14:23:25Z</time>
      </trkpt>
      <trkpt lat="43.46256" lon="6.4365">
        <ele>197</ele>
        <time>2025-01-08T14:23:27Z</time>
      </trkpt>
      <trkpt lat="43.46259" lon="6.43645">
        <ele>197</ele>
        <time>2025-01-08T14:23:31Z</time>
      </trkpt>
      <trkpt lat="43.46262" lon="6.43641">
        <ele>197</ele>
        <time>2025-01-08T14:23:33Z</time>
      </trkpt>
      <trkpt lat="43.46264" lon="6.43635">
        <ele>197</ele>
        <time>2025-01-08T14:23:37Z</time>
      </trkpt>
      <trkpt lat="43.46268" lon="6.4363">
        <ele>196</ele>
        <time>2025-01-08T14:23:43Z</time>
      </trkpt>
      <trkpt lat="43.46273" lon="6.43623">
        <ele>195</ele>
        <time>2025-01-08T14:23:47Z</time>
      </trkpt>
      <trkpt lat="43.46275" lon="6.43621">
        <ele>195</ele>
        <time>2025-01-08T14:23:49Z</time>
      </trkpt>
      <trkpt lat="43.46279" lon="6.43614">
        <ele>195</ele>
        <time>2025-01-08T14:23:53Z</time>
      </trkpt>
      <trkpt lat="43.4628" lon="6.43612">
        <ele>195</ele>
        <time>2025-01-08T14:23:55Z</time>
      </trkpt>
      <trkpt lat="43.46282" lon="6.43609">
        <ele>195</ele>
        <time>2025-01-08T14:23:57Z</time>
      </trkpt>
      <trkpt lat="43.46283" lon="6.43607">
        <ele>196</ele>
        <time>2025-01-08T14:23:59Z</time>
      </trkpt>
      <trkpt lat="43.46284" lon="6.43604">
        <ele>196</ele>
        <time>2025-01-08T14:24:01Z</time>
      </trkpt>
      <trkpt lat="43.46289" lon="6.43595">
        <ele>196</ele>
        <time>2025-01-08T14:24:07Z</time>
      </trkpt>
      <trkpt lat="43.4629" lon="6.43591">
        <ele>197</ele>
        <time>2025-01-08T14:24:09Z</time>
      </trkpt>
      <trkpt lat="43.46298" lon="6.43577">
        <ele>196</ele>
        <time>2025-01-08T14:24:21Z</time>
      </trkpt>
      <trkpt lat="43.46308" lon="6.43562">
        <ele>198</ele>
        <time>2025-01-08T14:24:31Z</time>
      </trkpt>
      <trkpt lat="43.46308" lon="6.43559">
        <ele>198</ele>
        <time>2025-01-08T14:24:33Z</time>
      </trkpt>
      <trkpt lat="43.46309" lon="6.43557">
        <ele>198</ele>
        <time>2025-01-08T14:24:35Z</time>
      </trkpt>
      <trkpt lat="43.46311" lon="6.4355">
        <ele>197</ele>
        <time>2025-01-08T14:24:39Z</time>
      </trkpt>
      <trkpt lat="43.46324" lon="6.43529">
        <ele>198</ele>
        <time>2025-01-08T14:24:53Z</time>
      </trkpt>
      <trkpt lat="43.46338" lon="6.4351">
        <ele>200</ele>
        <time>2025-01-08T14:25:07Z</time>
      </trkpt>
      <trkpt lat="43.4635" lon="6.43495">
        <ele>201</ele>
        <time>2025-01-08T14:25:19Z</time>
      </trkpt>
      <trkpt lat="43.46353" lon="6.43491">
        <ele>200</ele>
        <time>2025-01-08T14:25:23Z</time>
      </trkpt>
      <trkpt lat="43.46355" lon="6.43487">
        <ele>200</ele>
        <time>2025-01-08T14:25:25Z</time>
      </trkpt>
      <trkpt lat="43.46364" lon="6.4347">
        <ele>201</ele>
        <time>2025-01-08T14:25:37Z</time>
      </trkpt>
      <trkpt lat="43.46366" lon="6.43467">
        <ele>201</ele>
        <time>2025-01-08T14:25:39Z</time>
      </trkpt>
      <trkpt lat="43.46374" lon="6.43457">
        <ele>202</ele>
        <time>2025-01-08T14:25:47Z</time>
      </trkpt>
      <trkpt lat="43.46376" lon="6.43456">
        <ele>202</ele>
        <time>2025-01-08T14:25:49Z</time>
      </trkpt>
      <trkpt lat="43.46379" lon="6.43448">
        <ele>201</ele>
        <time>2025-01-08T14:25:55Z</time>
      </trkpt>
      <trkpt lat="43.46383" lon="6.43442">
        <ele>201</ele>
        <time>2025-01-08T14:25:59Z</time>
      </trkpt>
      <trkpt lat="43.46385" lon="6.43439">
        <ele>201</ele>
        <time>2025-01-08T14:26:01Z</time>
      </trkpt>
      <trkpt lat="43.46392" lon="6.43429">
        <ele>202</ele>
        <time>2025-01-08T14:26:09Z</time>
      </trkpt>
      <trkpt lat="43.46394" lon="6.43426">
        <ele>202</ele>
        <time>2025-01-08T14:26:11Z</time>
      </trkpt>
      <trkpt lat="43.46397" lon="6.4342">
        <ele>201</ele>
        <time>2025-01-08T14:26:15Z</time>
      </trkpt>
      <trkpt lat="43.46399" lon="6.43413">
        <ele>202</ele>
        <time>2025-01-08T14:26:19Z</time>
      </trkpt>
      <trkpt lat="43.464" lon="6.43409">
        <ele>202</ele>
        <time>2025-01-08T14:26:21Z</time>
      </trkpt>
      <trkpt lat="43.46402" lon="6.43406">
        <ele>202</ele>
        <time>2025-01-08T14:26:23Z</time>
      </trkpt>
      <trkpt lat="43.46408" lon="6.43391">
        <ele>204</ele>
        <time>2025-01-08T14:26:33Z</time>
      </trkpt>
      <trkpt lat="43.46411" lon="6.43386">
        <ele>204</ele>
        <time>2025-01-08T14:26:37Z</time>
      </trkpt>
      <trkpt lat="43.46414" lon="6.43374">
        <ele>205</ele>
        <time>2025-01-08T14:26:43Z</time>
      </trkpt>
      <trkpt lat="43.46414" lon="6.43371">
        <ele>205</ele>
        <time>2025-01-08T14:26:45Z</time>
      </trkpt>
      <trkpt lat="43.46415" lon="6.43364">
        <ele>206</ele>
        <time>2025-01-08T14:26:49Z</time>
      </trkpt>
      <trkpt lat="43.46416" lon="6.43352">
        <ele>206</ele>
        <time>2025-01-08T14:26:57Z</time>
      </trkpt>
      <trkpt lat="43.46417" lon="6.43348">
        <ele>206</ele>
        <time>2025-01-08T14:27:01Z</time>
      </trkpt>
      <trkpt lat="43.46419" lon="6.43345">
        <ele>205</ele>
        <time>2025-01-08T14:27:03Z</time>
      </trkpt>
      <trkpt lat="43.4642" lon="6.43342">
        <ele>205</ele>
        <time>2025-01-08T14:27:05Z</time>
      </trkpt>
      <trkpt lat="43.4642" lon="6.43329">
        <ele>204</ele>
        <time>2025-01-08T14:27:13Z</time>
      </trkpt>
      <trkpt lat="43.46423" lon="6.43322">
        <ele>204</ele>
        <time>2025-01-08T14:27:17Z</time>
      </trkpt>
      <trkpt lat="43.46424" lon="6.43319">
        <ele>203</ele>
        <time>2025-01-08T14:27:19Z</time>
      </trkpt>
      <trkpt lat="43.4643" lon="6.43309">
        <ele>202</ele>
        <time>2025-01-08T14:27:27Z</time>
      </trkpt>
      <trkpt lat="43.46432" lon="6.43302">
        <ele>202</ele>
        <time>2025-01-08T14:27:31Z</time>
      </trkpt>
      <trkpt lat="43.46433" lon="6.43299">
        <ele>202</ele>
        <time>2025-01-08T14:27:33Z</time>
      </trkpt>
      <trkpt lat="43.46435" lon="6.43296">
        <ele>202</ele>
        <time>2025-01-08T14:27:37Z</time>
      </trkpt>
      <trkpt lat="43.46437" lon="6.43294">
        <ele>202</ele>
        <time>2025-01-08T14:27:39Z</time>
      </trkpt>
      <trkpt lat="43.46442" lon="6.43286">
        <ele>203</ele>
        <time>2025-01-08T14:27:45Z</time>
      </trkpt>
      <trkpt lat="43.46448" lon="6.43279">
        <ele>204</ele>
        <time>2025-01-08T14:27:51Z</time>
      </trkpt>
      <trkpt lat="43.46456" lon="6.43266">
        <ele>204</ele>
        <time>2025-01-08T14:28:01Z</time>
      </trkpt>
      <trkpt lat="43.46459" lon="6.43264">
        <ele>204</ele>
        <time>2025-01-08T14:28:03Z</time>
      </trkpt>
      <trkpt lat="43.46462" lon="6.43261">
        <ele>205</ele>
        <time>2025-01-08T14:28:05Z</time>
      </trkpt>
      <trkpt lat="43.46467" lon="6.43253">
        <ele>205</ele>
        <time>2025-01-08T14:28:11Z</time>
      </trkpt>
      <trkpt lat="43.46477" lon="6.43246">
        <ele>207</ele>
        <time>2025-01-08T14:28:19Z</time>
      </trkpt>
      <trkpt lat="43.46482" lon="6.43241">
        <ele>207</ele>
        <time>2025-01-08T14:28:25Z</time>
      </trkpt>
      <trkpt lat="43.46489" lon="6.43233">
        <ele>206</ele>
        <time>2025-01-08T14:28:31Z</time>
      </trkpt>
      <trkpt lat="43.46491" lon="6.4323">
        <ele>206</ele>
        <time>2025-01-08T14:28:33Z</time>
      </trkpt>
      <trkpt lat="43.46493" lon="6.43229">
        <ele>206</ele>
        <time>2025-01-08T14:28:35Z</time>
      </trkpt>
      <trkpt lat="43.46498" lon="6.43222">
        <ele>206</ele>
        <time>2025-01-08T14:28:41Z</time>
      </trkpt>
      <trkpt lat="43.46501" lon="6.43218">
        <ele>206</ele>
        <time>2025-01-08T14:28:45Z</time>
      </trkpt>
      <trkpt lat="43.46501" lon="6.43215">
        <ele>206</ele>
        <time>2025-01-08T14:28:49Z</time>
      </trkpt>
      <trkpt lat="43.46503" lon="6.43215">
        <ele>205</ele>
        <time>2025-01-08T14:28:55Z</time>
      </trkpt>
      <trkpt lat="43.46505" lon="6.43216">
        <ele>206</ele>
        <time>2025-01-08T14:29:03Z</time>
      </trkpt>
      <trkpt lat="43.46505" lon="6.43214">
        <ele>206</ele>
        <time>2025-01-08T14:29:07Z</time>
      </trkpt>
      <trkpt lat="43.465" lon="6.43208">
        <ele>207</ele>
        <time>2025-01-08T14:29:49Z</time>
      </trkpt>
      <trkpt lat="43.46497" lon="6.43201">
        <ele>206</ele>
        <time>2025-01-08T14:29:53Z</time>
      </trkpt>
      <trkpt lat="43.46497" lon="6.43199">
        <ele>205</ele>
        <time>2025-01-08T14:29:55Z</time>
      </trkpt>
      <trkpt lat="43.46497" lon="6.43197">
        <ele>204</ele>
        <time>2025-01-08T14:29:57Z</time>
      </trkpt>
      <trkpt lat="43.46498" lon="6.43195">
        <ele>203</ele>
        <time>2025-01-08T14:29:59Z</time>
      </trkpt>
      <trkpt lat="43.46499" lon="6.43194">
        <ele>202</ele>
        <time>2025-01-08T14:30:03Z</time>
      </trkpt>
      <trkpt lat="43.46499" lon="6.43193">
        <ele>204</ele>
        <time>2025-01-08T14:30:51Z</time>
      </trkpt>
      <trkpt lat="43.46504" lon="6.43192">
        <ele>204</ele>
        <time>2025-01-08T14:30:57Z</time>
      </trkpt>
      <trkpt lat="43.46506" lon="6.4319">
        <ele>205</ele>
        <time>2025-01-08T14:30:59Z</time>
      </trkpt>
      <trkpt lat="43.46519" lon="6.43189">
        <ele>204</ele>
        <time>2025-01-08T14:31:11Z</time>
      </trkpt>
      <trkpt lat="43.4652" lon="6.43189">
        <ele>204</ele>
        <time>2025-01-08T14:31:15Z</time>
      </trkpt>
      <trkpt lat="43.46525" lon="6.43189">
        <ele>205</ele>
        <time>2025-01-08T14:31:19Z</time>
      </trkpt>
      <trkpt lat="43.46528" lon="6.43189">
        <ele>205</ele>
        <time>2025-01-08T14:31:21Z</time>
      </trkpt>
      <trkpt lat="43.46535" lon="6.4319">
        <ele>205</ele>
        <time>2025-01-08T14:31:27Z</time>
      </trkpt>
      <trkpt lat="43.46542" lon="6.43188">
        <ele>204</ele>
        <time>2025-01-08T14:31:33Z</time>
      </trkpt>
      <trkpt lat="43.46545" lon="6.43188">
        <ele>204</ele>
        <time>2025-01-08T14:31:35Z</time>
      </trkpt>
      <trkpt lat="43.46558" lon="6.43187">
        <ele>203</ele>
        <time>2025-01-08T14:31:45Z</time>
      </trkpt>
      <trkpt lat="43.4656" lon="6.43187">
        <ele>203</ele>
        <time>2025-01-08T14:31:47Z</time>
      </trkpt>
      <trkpt lat="43.46562" lon="6.43187">
        <ele>204</ele>
        <time>2025-01-08T14:31:49Z</time>
      </trkpt>
      <trkpt lat="43.46565" lon="6.43187">
        <ele>205</ele>
        <time>2025-01-08T14:31:51Z</time>
      </trkpt>
      <trkpt lat="43.46577" lon="6.43184">
        <ele>207</ele>
        <time>2025-01-08T14:31:59Z</time>
      </trkpt>
      <trkpt lat="43.46579" lon="6.43184">
        <ele>207</ele>
        <time>2025-01-08T14:32:01Z</time>
      </trkpt>
      <trkpt lat="43.46591" lon="6.43184">
        <ele>208</ele>
        <time>2025-01-08T14:32:09Z</time>
      </trkpt>
      <trkpt lat="43.46593" lon="6.43184">
        <ele>208</ele>
        <time>2025-01-08T14:32:11Z</time>
      </trkpt>
      <trkpt lat="43.46596" lon="6.43183">
        <ele>208</ele>
        <time>2025-01-08T14:32:13Z</time>
      </trkpt>
      <trkpt lat="43.46601" lon="6.43184">
        <ele>208</ele>
        <time>2025-01-08T14:32:17Z</time>
      </trkpt>
      <trkpt lat="43.46604" lon="6.43184">
        <ele>207</ele>
        <time>2025-01-08T14:32:19Z</time>
      </trkpt>
      <trkpt lat="43.46606" lon="6.43183">
        <ele>206</ele>
        <time>2025-01-08T14:32:21Z</time>
      </trkpt>
      <trkpt lat="43.46609" lon="6.43182">
        <ele>206</ele>
        <time>2025-01-08T14:32:23Z</time>
      </trkpt>
      <trkpt lat="43.46614" lon="6.43181">
        <ele>206</ele>
        <time>2025-01-08T14:32:27Z</time>
      </trkpt>
      <trkpt lat="43.46617" lon="6.43181">
        <ele>206</ele>
        <time>2025-01-08T14:32:29Z</time>
      </trkpt>
      <trkpt lat="43.46623" lon="6.43178">
        <ele>205</ele>
        <time>2025-01-08T14:32:33Z</time>
      </trkpt>
      <trkpt lat="43.46625" lon="6.43176">
        <ele>205</ele>
        <time>2025-01-08T14:32:35Z</time>
      </trkpt>
      <trkpt lat="43.46631" lon="6.4317">
        <ele>206</ele>
        <time>2025-01-08T14:32:41Z</time>
      </trkpt>
      <trkpt lat="43.46633" lon="6.43169">
        <ele>206</ele>
        <time>2025-01-08T14:32:43Z</time>
      </trkpt>
      <trkpt lat="43.46636" lon="6.43168">
        <ele>207</ele>
        <time>2025-01-08T14:32:45Z</time>
      </trkpt>
      <trkpt lat="43.46656" lon="6.43155">
        <ele>211</ele>
        <time>2025-01-08T14:33:01Z</time>
      </trkpt>
      <trkpt lat="43.4667" lon="6.43143">
        <ele>213</ele>
        <time>2025-01-08T14:33:15Z</time>
      </trkpt>
      <trkpt lat="43.46671" lon="6.43139">
        <ele>213</ele>
        <time>2025-01-08T14:33:17Z</time>
      </trkpt>
      <trkpt lat="43.46671" lon="6.43136">
        <ele>213</ele>
        <time>2025-01-08T14:33:19Z</time>
      </trkpt>
      <trkpt lat="43.46669" lon="6.43129">
        <ele>213</ele>
        <time>2025-01-08T14:33:23Z</time>
      </trkpt>
      <trkpt lat="43.46669" lon="6.43125">
        <ele>214</ele>
        <time>2025-01-08T14:33:25Z</time>
      </trkpt>
      <trkpt lat="43.4667" lon="6.43123">
        <ele>214</ele>
        <time>2025-01-08T14:33:27Z</time>
      </trkpt>
      <trkpt lat="43.46669" lon="6.4312">
        <ele>214</ele>
        <time>2025-01-08T14:33:29Z</time>
      </trkpt>
      <trkpt lat="43.46666" lon="6.43108">
        <ele>216</ele>
        <time>2025-01-08T14:33:37Z</time>
      </trkpt>
      <trkpt lat="43.46665" lon="6.43105">
        <ele>216</ele>
        <time>2025-01-08T14:33:39Z</time>
      </trkpt>
      <trkpt lat="43.46665" lon="6.43103">
        <ele>216</ele>
        <time>2025-01-08T14:33:41Z</time>
      </trkpt>
      <trkpt lat="43.46665" lon="6.43095">
        <ele>217</ele>
        <time>2025-01-08T14:33:45Z</time>
      </trkpt>
      <trkpt lat="43.46664" lon="6.43089">
        <ele>217</ele>
        <time>2025-01-08T14:33:49Z</time>
      </trkpt>
      <trkpt lat="43.46663" lon="6.43086">
        <ele>216</ele>
        <time>2025-01-08T14:33:51Z</time>
      </trkpt>
      <trkpt lat="43.46664" lon="6.43082">
        <ele>216</ele>
        <time>2025-01-08T14:33:53Z</time>
      </trkpt>
      <trkpt lat="43.46665" lon="6.43072">
        <ele>215</ele>
        <time>2025-01-08T14:33:59Z</time>
      </trkpt>
      <trkpt lat="43.46665" lon="6.43069">
        <ele>214</ele>
        <time>2025-01-08T14:34:01Z</time>
      </trkpt>
      <trkpt lat="43.46664" lon="6.43066">
        <ele>214</ele>
        <time>2025-01-08T14:34:03Z</time>
      </trkpt>
      <trkpt lat="43.46663" lon="6.43065">
        <ele>214</ele>
        <time>2025-01-08T14:34:11Z</time>
      </trkpt>
      <trkpt lat="43.46663" lon="6.43062">
        <ele>214</ele>
        <time>2025-01-08T14:34:13Z</time>
      </trkpt>
      <trkpt lat="43.46663" lon="6.4306">
        <ele>214</ele>
        <time>2025-01-08T14:34:15Z</time>
      </trkpt>
      <trkpt lat="43.46663" lon="6.43057">
        <ele>213</ele>
        <time>2025-01-08T14:34:45Z</time>
      </trkpt>
      <trkpt lat="43.46662" lon="6.43054">
        <ele>213</ele>
        <time>2025-01-08T14:34:47Z</time>
      </trkpt>
      <trkpt lat="43.46662" lon="6.43052">
        <ele>214</ele>
        <time>2025-01-08T14:34:51Z</time>
      </trkpt>
      <trkpt lat="43.46661" lon="6.4305">
        <ele>214</ele>
        <time>2025-01-08T14:35:07Z</time>
      </trkpt>
      <trkpt lat="43.46663" lon="6.43045">
        <ele>213</ele>
        <time>2025-01-08T14:35:11Z</time>
      </trkpt>
      <trkpt lat="43.46664" lon="6.43042">
        <ele>213</ele>
        <time>2025-01-08T14:35:13Z</time>
      </trkpt>
      <trkpt lat="43.46665" lon="6.4304">
        <ele>214</ele>
        <time>2025-01-08T14:35:15Z</time>
      </trkpt>
      <trkpt lat="43.46671" lon="6.43037">
        <ele>215</ele>
        <time>2025-01-08T14:36:33Z</time>
      </trkpt>
      <trkpt lat="43.46669" lon="6.43038">
        <ele>215</ele>
        <time>2025-01-08T14:36:45Z</time>
      </trkpt>
      <trkpt lat="43.46666" lon="6.43038">
        <ele>215</ele>
        <time>2025-01-08T14:36:47Z</time>
      </trkpt>
      <trkpt lat="43.46664" lon="6.43043">
        <ele>215</ele>
        <time>2025-01-08T14:37:43Z</time>
      </trkpt>
      <trkpt lat="43.46663" lon="6.43042">
        <ele>216</ele>
        <time>2025-01-08T14:38:37Z</time>
      </trkpt>
      <trkpt lat="43.46664" lon="6.43038">
        <ele>216</ele>
        <time>2025-01-08T14:40:33Z</time>
      </trkpt>
      <trkpt lat="43.46664" lon="6.43036">
        <ele>214</ele>
        <time>2025-01-08T14:40:35Z</time>
      </trkpt>
      <trkpt lat="43.46672" lon="6.43028">
        <ele>214</ele>
        <time>2025-01-08T14:40:43Z</time>
      </trkpt>
      <trkpt lat="43.46674" lon="6.43026">
        <ele>215</ele>
        <time>2025-01-08T14:40:45Z</time>
      </trkpt>
      <trkpt lat="43.46679" lon="6.43019">
        <ele>215</ele>
        <time>2025-01-08T14:40:51Z</time>
      </trkpt>
      <trkpt lat="43.46682" lon="6.43014">
        <ele>214</ele>
        <time>2025-01-08T14:40:55Z</time>
      </trkpt>
      <trkpt lat="43.46689" lon="6.4301">
        <ele>213</ele>
        <time>2025-01-08T14:41:01Z</time>
      </trkpt>
      <trkpt lat="43.46703" lon="6.43006">
        <ele>212</ele>
        <time>2025-01-08T14:41:13Z</time>
      </trkpt>
      <trkpt lat="43.46705" lon="6.43007">
        <ele>213</ele>
        <time>2025-01-08T14:41:15Z</time>
      </trkpt>
      <trkpt lat="43.46713" lon="6.43004">
        <ele>213</ele>
        <time>2025-01-08T14:41:23Z</time>
      </trkpt>
      <trkpt lat="43.46716" lon="6.43003">
        <ele>212</ele>
        <time>2025-01-08T14:41:25Z</time>
      </trkpt>
      <trkpt lat="43.4672" lon="6.43004">
        <ele>212</ele>
        <time>2025-01-08T14:41:29Z</time>
      </trkpt>
      <trkpt lat="43.46734" lon="6.43001">
        <ele>211</ele>
        <time>2025-01-08T14:41:39Z</time>
      </trkpt>
      <trkpt lat="43.4674" lon="6.43">
        <ele>211</ele>
        <time>2025-01-08T14:41:43Z</time>
      </trkpt>
      <trkpt lat="43.46743" lon="6.42999">
        <ele>211</ele>
        <time>2025-01-08T14:41:45Z</time>
      </trkpt>
      <trkpt lat="43.46746" lon="6.42998">
        <ele>211</ele>
        <time>2025-01-08T14:41:47Z</time>
      </trkpt>
      <trkpt lat="43.46749" lon="6.42998">
        <ele>211</ele>
        <time>2025-01-08T14:41:49Z</time>
      </trkpt>
      <trkpt lat="43.46752" lon="6.42996">
        <ele>211</ele>
        <time>2025-01-08T14:41:53Z</time>
      </trkpt>
      <trkpt lat="43.46758" lon="6.42992">
        <ele>210</ele>
        <time>2025-01-08T14:41:57Z</time>
      </trkpt>
      <trkpt lat="43.46766" lon="6.42985">
        <ele>211</ele>
        <time>2025-01-08T14:42:03Z</time>
      </trkpt>
      <trkpt lat="43.46769" lon="6.42978">
        <ele>212</ele>
        <time>2025-01-08T14:42:07Z</time>
      </trkpt>
      <trkpt lat="43.46772" lon="6.42976">
        <ele>212</ele>
        <time>2025-01-08T14:42:09Z</time>
      </trkpt>
      <trkpt lat="43.46774" lon="6.42973">
        <ele>212</ele>
        <time>2025-01-08T14:42:11Z</time>
      </trkpt>
      <trkpt lat="43.46776" lon="6.4297">
        <ele>213</ele>
        <time>2025-01-08T14:42:13Z</time>
      </trkpt>
      <trkpt lat="43.46787" lon="6.42957">
        <ele>216</ele>
        <time>2025-01-08T14:42:25Z</time>
      </trkpt>
      <trkpt lat="43.46794" lon="6.42952">
        <ele>217</ele>
        <time>2025-01-08T14:42:31Z</time>
      </trkpt>
      <trkpt lat="43.46796" lon="6.42951">
        <ele>217</ele>
        <time>2025-01-08T14:42:33Z</time>
      </trkpt>
      <trkpt lat="43.46801" lon="6.42946">
        <ele>217</ele>
        <time>2025-01-08T14:42:39Z</time>
      </trkpt>
      <trkpt lat="43.46807" lon="6.42942">
        <ele>216</ele>
        <time>2025-01-08T14:42:45Z</time>
      </trkpt>
      <trkpt lat="43.46809" lon="6.42941">
        <ele>215</ele>
        <time>2025-01-08T14:42:47Z</time>
      </trkpt>
      <trkpt lat="43.46816" lon="6.42939">
        <ele>215</ele>
        <time>2025-01-08T14:42:53Z</time>
      </trkpt>
      <trkpt lat="43.46824" lon="6.42935">
        <ele>213</ele>
        <time>2025-01-08T14:42:59Z</time>
      </trkpt>
      <trkpt lat="43.46827" lon="6.42934">
        <ele>213</ele>
        <time>2025-01-08T14:43:01Z</time>
      </trkpt>
      <trkpt lat="43.46833" lon="6.42932">
        <ele>212</ele>
        <time>2025-01-08T14:43:05Z</time>
      </trkpt>
      <trkpt lat="43.46839" lon="6.4293">
        <ele>212</ele>
        <time>2025-01-08T14:43:09Z</time>
      </trkpt>
      <trkpt lat="43.46842" lon="6.42931">
        <ele>211</ele>
        <time>2025-01-08T14:43:11Z</time>
      </trkpt>
      <trkpt lat="43.46849" lon="6.4293">
        <ele>210</ele>
        <time>2025-01-08T14:43:17Z</time>
      </trkpt>
      <trkpt lat="43.46861" lon="6.4293">
        <ele>209</ele>
        <time>2025-01-08T14:43:25Z</time>
      </trkpt>
      <trkpt lat="43.4687" lon="6.42931">
        <ele>210</ele>
        <time>2025-01-08T14:43:31Z</time>
      </trkpt>
      <trkpt lat="43.46882" lon="6.4293">
        <ele>212</ele>
        <time>2025-01-08T14:43:39Z</time>
      </trkpt>
      <trkpt lat="43.46885" lon="6.42929">
        <ele>212</ele>
        <time>2025-01-08T14:43:41Z</time>
      </trkpt>
      <trkpt lat="43.46899" lon="6.42931">
        <ele>213</ele>
        <time>2025-01-08T14:43:55Z</time>
      </trkpt>
      <trkpt lat="43.46904" lon="6.42931">
        <ele>213</ele>
        <time>2025-01-08T14:43:57Z</time>
      </trkpt>
      <trkpt lat="43.46922" lon="6.42929">
        <ele>215</ele>
        <time>2025-01-08T14:44:09Z</time>
      </trkpt>
      <trkpt lat="43.46924" lon="6.42928">
        <ele>215</ele>
        <time>2025-01-08T14:44:11Z</time>
      </trkpt>
      <trkpt lat="43.46947" lon="6.42909">
        <ele>218</ele>
        <time>2025-01-08T14:44:31Z</time>
      </trkpt>
      <trkpt lat="43.46951" lon="6.42904">
        <ele>217</ele>
        <time>2025-01-08T14:44:35Z</time>
      </trkpt>
      <trkpt lat="43.46952" lon="6.42899">
        <ele>215</ele>
        <time>2025-01-08T14:44:39Z</time>
      </trkpt>
      <trkpt lat="43.46952" lon="6.42896">
        <ele>215</ele>
        <time>2025-01-08T14:44:41Z</time>
      </trkpt>
      <trkpt lat="43.46954" lon="6.42893">
        <ele>215</ele>
        <time>2025-01-08T14:44:43Z</time>
      </trkpt>
      <trkpt lat="43.46956" lon="6.4289">
        <ele>214</ele>
        <time>2025-01-08T14:44:45Z</time>
      </trkpt>
      <trkpt lat="43.46957" lon="6.42886">
        <ele>214</ele>
        <time>2025-01-08T14:44:47Z</time>
      </trkpt>
      <trkpt lat="43.46964" lon="6.42873">
        <ele>214</ele>
        <time>2025-01-08T14:44:55Z</time>
      </trkpt>
      <trkpt lat="43.46965" lon="6.4287">
        <ele>214</ele>
        <time>2025-01-08T14:44:57Z</time>
      </trkpt>
      <trkpt lat="43.46969" lon="6.42861">
        <ele>214</ele>
        <time>2025-01-08T14:45:03Z</time>
      </trkpt>
      <trkpt lat="43.46974" lon="6.42848">
        <ele>215</ele>
        <time>2025-01-08T14:45:11Z</time>
      </trkpt>
      <trkpt lat="43.46982" lon="6.42824">
        <ele>213</ele>
        <time>2025-01-08T14:45:25Z</time>
      </trkpt>
      <trkpt lat="43.4699" lon="6.42813">
        <ele>212</ele>
        <time>2025-01-08T14:45:33Z</time>
      </trkpt>
      <trkpt lat="43.46992" lon="6.42811">
        <ele>212</ele>
        <time>2025-01-08T14:45:35Z</time>
      </trkpt>
      <trkpt lat="43.46994" lon="6.4281">
        <ele>212</ele>
        <time>2025-01-08T14:45:37Z</time>
      </trkpt>
      <trkpt lat="43.46998" lon="6.42806">
        <ele>212</ele>
        <time>2025-01-08T14:45:41Z</time>
      </trkpt>
      <trkpt lat="43.47" lon="6.42804">
        <ele>213</ele>
        <time>2025-01-08T14:45:43Z</time>
      </trkpt>
      <trkpt lat="43.47003" lon="6.42801">
        <ele>214</ele>
        <time>2025-01-08T14:45:47Z</time>
      </trkpt>
      <trkpt lat="43.47015" lon="6.42793">
        <ele>215</ele>
        <time>2025-01-08T14:45:59Z</time>
      </trkpt>
      <trkpt lat="43.47024" lon="6.42778">
        <ele>214</ele>
        <time>2025-01-08T14:46:09Z</time>
      </trkpt>
      <trkpt lat="43.47027" lon="6.42772">
        <ele>213</ele>
        <time>2025-01-08T14:46:13Z</time>
      </trkpt>
      <trkpt lat="43.4703" lon="6.42767">
        <ele>212</ele>
        <time>2025-01-08T14:46:17Z</time>
      </trkpt>
      <trkpt lat="43.47035" lon="6.42761">
        <ele>211</ele>
        <time>2025-01-08T14:46:21Z</time>
      </trkpt>
      <trkpt lat="43.47037" lon="6.42758">
        <ele>211</ele>
        <time>2025-01-08T14:46:23Z</time>
      </trkpt>
      <trkpt lat="43.4704" lon="6.42754">
        <ele>211</ele>
        <time>2025-01-08T14:46:27Z</time>
      </trkpt>
      <trkpt lat="43.47041" lon="6.42752">
        <ele>211</ele>
        <time>2025-01-08T14:46:29Z</time>
      </trkpt>
      <trkpt lat="43.47042" lon="6.42749">
        <ele>212</ele>
        <time>2025-01-08T14:46:31Z</time>
      </trkpt>
      <trkpt lat="43.47051" lon="6.42736">
        <ele>213</ele>
        <time>2025-01-08T14:46:41Z</time>
      </trkpt>
      <trkpt lat="43.47051" lon="6.42733">
        <ele>213</ele>
        <time>2025-01-08T14:46:43Z</time>
      </trkpt>
      <trkpt lat="43.47054" lon="6.42731">
        <ele>213</ele>
        <time>2025-01-08T14:46:45Z</time>
      </trkpt>
      <trkpt lat="43.47057" lon="6.42724">
        <ele>213</ele>
        <time>2025-01-08T14:46:49Z</time>
      </trkpt>
      <trkpt lat="43.47061" lon="6.42714">
        <ele>213</ele>
        <time>2025-01-08T14:46:55Z</time>
      </trkpt>
      <trkpt lat="43.47064" lon="6.42712">
        <ele>213</ele>
        <time>2025-01-08T14:46:57Z</time>
      </trkpt>
      <trkpt lat="43.47072" lon="6.42695">
        <ele>214</ele>
        <time>2025-01-08T14:47:07Z</time>
      </trkpt>
      <trkpt lat="43.47087" lon="6.42671">
        <ele>217</ele>
        <time>2025-01-08T14:47:25Z</time>
      </trkpt>
      <trkpt lat="43.47091" lon="6.42664">
        <ele>215</ele>
        <time>2025-01-08T14:47:29Z</time>
      </trkpt>
      <trkpt lat="43.47093" lon="6.42662">
        <ele>215</ele>
        <time>2025-01-08T14:47:31Z</time>
      </trkpt>
      <trkpt lat="43.47095" lon="6.4266">
        <ele>214</ele>
        <time>2025-01-08T14:47:33Z</time>
      </trkpt>
      <trkpt lat="43.47098" lon="6.42656">
        <ele>213</ele>
        <time>2025-01-08T14:47:37Z</time>
      </trkpt>
      <trkpt lat="43.471" lon="6.42652">
        <ele>212</ele>
        <time>2025-01-08T14:47:39Z</time>
      </trkpt>
      <trkpt lat="43.47102" lon="6.42644">
        <ele>211</ele>
        <time>2025-01-08T14:47:43Z</time>
      </trkpt>
      <trkpt lat="43.47103" lon="6.42642">
        <ele>211</ele>
        <time>2025-01-08T14:47:45Z</time>
      </trkpt>
      <trkpt lat="43.47103" lon="6.42638">
        <ele>211</ele>
        <time>2025-01-08T14:47:47Z</time>
      </trkpt>
      <trkpt lat="43.47105" lon="6.42628">
        <ele>211</ele>
        <time>2025-01-08T14:47:53Z</time>
      </trkpt>
      <trkpt lat="43.47106" lon="6.42626">
        <ele>211</ele>
        <time>2025-01-08T14:47:55Z</time>
      </trkpt>
      <trkpt lat="43.47108" lon="6.42624">
        <ele>211</ele>
        <time>2025-01-08T14:47:57Z</time>
      </trkpt>
      <trkpt lat="43.4711" lon="6.42622">
        <ele>211</ele>
        <time>2025-01-08T14:47:59Z</time>
      </trkpt>
      <trkpt lat="43.47112" lon="6.42621">
        <ele>211</ele>
        <time>2025-01-08T14:48:05Z</time>
      </trkpt>
      <trkpt lat="43.47114" lon="6.42622">
        <ele>212</ele>
        <time>2025-01-08T14:48:09Z</time>
      </trkpt>
      <trkpt lat="43.47114" lon="6.42624">
        <ele>213</ele>
        <time>2025-01-08T14:49:07Z</time>
      </trkpt>
      <trkpt lat="43.47113" lon="6.42624">
        <ele>213</ele>
        <time>2025-01-08T14:49:25Z</time>
      </trkpt>
      <trkpt lat="43.47113" lon="6.42625">
        <ele>217</ele>
        <time>2025-01-08T14:49:35Z</time>
      </trkpt>
      <trkpt lat="43.47113" lon="6.42627">
        <ele>219</ele>
        <time>2025-01-08T14:49:37Z</time>
      </trkpt>
      <trkpt lat="43.47116" lon="6.42628">
        <ele>220</ele>
        <time>2025-01-08T14:52:39Z</time>
      </trkpt>
      <trkpt lat="43.47122" lon="6.42629">
        <ele>219</ele>
        <time>2025-01-08T14:52:43Z</time>
      </trkpt>
      <trkpt lat="43.47124" lon="6.42629">
        <ele>218</ele>
        <time>2025-01-08T14:52:45Z</time>
      </trkpt>
      <trkpt lat="43.47128" lon="6.42629">
        <ele>217</ele>
        <time>2025-01-08T14:52:47Z</time>
      </trkpt>
      <trkpt lat="43.4713" lon="6.42631">
        <ele>216</ele>
        <time>2025-01-08T14:52:49Z</time>
      </trkpt>
      <trkpt lat="43.47133" lon="6.42631">
        <ele>216</ele>
        <time>2025-01-08T14:52:53Z</time>
      </trkpt>
      <trkpt lat="43.47137" lon="6.42633">
        <ele>216</ele>
        <time>2025-01-08T14:52:57Z</time>
      </trkpt>
      <trkpt lat="43.47139" lon="6.42633">
        <ele>216</ele>
        <time>2025-01-08T14:52:59Z</time>
      </trkpt>
      <trkpt lat="43.47141" lon="6.42634">
        <ele>216</ele>
        <time>2025-01-08T14:53:01Z</time>
      </trkpt>
      <trkpt lat="43.47146" lon="6.42634">
        <ele>217</ele>
        <time>2025-01-08T14:53:07Z</time>
      </trkpt>
      <trkpt lat="43.4715" lon="6.42635">
        <ele>219</ele>
        <time>2025-01-08T14:53:11Z</time>
      </trkpt>
      <trkpt lat="43.4716" lon="6.42634">
        <ele>220</ele>
        <time>2025-01-08T14:53:19Z</time>
      </trkpt>
      <trkpt lat="43.47174" lon="6.42641">
        <ele>222</ele>
        <time>2025-01-08T14:53:27Z</time>
      </trkpt>
      <trkpt lat="43.47177" lon="6.42642">
        <ele>223</ele>
        <time>2025-01-08T14:53:29Z</time>
      </trkpt>
      <trkpt lat="43.47186" lon="6.4264">
        <ele>227</ele>
        <time>2025-01-08T14:53:37Z</time>
      </trkpt>
      <trkpt lat="43.47188" lon="6.42641">
        <ele>227</ele>
        <time>2025-01-08T14:53:39Z</time>
      </trkpt>
      <trkpt lat="43.47192" lon="6.4264">
        <ele>229</ele>
        <time>2025-01-08T14:53:43Z</time>
      </trkpt>
      <trkpt lat="43.47224" lon="6.42639">
        <ele>228</ele>
        <time>2025-01-08T14:54:03Z</time>
      </trkpt>
      <trkpt lat="43.4723" lon="6.42636">
        <ele>229</ele>
        <time>2025-01-08T14:54:11Z</time>
      </trkpt>
      <trkpt lat="43.47232" lon="6.42636">
        <ele>229</ele>
        <time>2025-01-08T14:54:15Z</time>
      </trkpt>
      <trkpt lat="43.47244" lon="6.42637">
        <ele>228</ele>
        <time>2025-01-08T14:54:25Z</time>
      </trkpt>
      <trkpt lat="43.47247" lon="6.42635">
        <ele>228</ele>
        <time>2025-01-08T14:54:27Z</time>
      </trkpt>
      <trkpt lat="43.47249" lon="6.42631">
        <ele>227</ele>
        <time>2025-01-08T14:54:29Z</time>
      </trkpt>
      <trkpt lat="43.47251" lon="6.42622">
        <ele>226</ele>
        <time>2025-01-08T14:54:37Z</time>
      </trkpt>
      <trkpt lat="43.47253" lon="6.42622">
        <ele>225</ele>
        <time>2025-01-08T14:54:39Z</time>
      </trkpt>
      <trkpt lat="43.47255" lon="6.42622">
        <ele>225</ele>
        <time>2025-01-08T14:54:41Z</time>
      </trkpt>
      <trkpt lat="43.47257" lon="6.42621">
        <ele>224</ele>
        <time>2025-01-08T14:54:45Z</time>
      </trkpt>
      <trkpt lat="43.47256" lon="6.42619">
        <ele>225</ele>
        <time>2025-01-08T14:54:53Z</time>
      </trkpt>
      <trkpt lat="43.47256" lon="6.42619">
        <ele>222</ele>
        <time>2025-01-08T14:55:41Z</time>
      </trkpt>
      <trkpt lat="43.47266" lon="6.42624">
        <ele>219</ele>
        <time>2025-01-08T14:55:47Z</time>
      </trkpt>
      <trkpt lat="43.47269" lon="6.42627">
        <ele>219</ele>
        <time>2025-01-08T14:55:49Z</time>
      </trkpt>
      <trkpt lat="43.47271" lon="6.42627">
        <ele>219</ele>
        <time>2025-01-08T14:55:51Z</time>
      </trkpt>
      <trkpt lat="43.47279" lon="6.42629">
        <ele>218</ele>
        <time>2025-01-08T14:55:59Z</time>
      </trkpt>
      <trkpt lat="43.47281" lon="6.4263">
        <ele>218</ele>
        <time>2025-01-08T14:56:01Z</time>
      </trkpt>
      <trkpt lat="43.47286" lon="6.42633">
        <ele>219</ele>
        <time>2025-01-08T14:56:05Z</time>
      </trkpt>
      <trkpt lat="43.47288" lon="6.42636">
        <ele>219</ele>
        <time>2025-01-08T14:56:07Z</time>
      </trkpt>
      <trkpt lat="43.47292" lon="6.42639">
        <ele>218</ele>
        <time>2025-01-08T14:56:13Z</time>
      </trkpt>
      <trkpt lat="43.47297" lon="6.42638">
        <ele>217</ele>
        <time>2025-01-08T14:56:17Z</time>
      </trkpt>
      <trkpt lat="43.47299" lon="6.42634">
        <ele>216</ele>
        <time>2025-01-08T14:56:19Z</time>
      </trkpt>
      <trkpt lat="43.473" lon="6.42632">
        <ele>216</ele>
        <time>2025-01-08T14:56:21Z</time>
      </trkpt>
      <trkpt lat="43.47296" lon="6.42608">
        <ele>216</ele>
        <time>2025-01-08T14:56:35Z</time>
      </trkpt>
      <trkpt lat="43.47294" lon="6.42601">
        <ele>217</ele>
        <time>2025-01-08T14:56:39Z</time>
      </trkpt>
      <trkpt lat="43.47294" lon="6.42598">
        <ele>217</ele>
        <time>2025-01-08T14:56:41Z</time>
      </trkpt>
      <trkpt lat="43.47294" lon="6.42595">
        <ele>217</ele>
        <time>2025-01-08T14:56:43Z</time>
      </trkpt>
      <trkpt lat="43.47294" lon="6.42593">
        <ele>216</ele>
        <time>2025-01-08T14:56:45Z</time>
      </trkpt>
      <trkpt lat="43.47293" lon="6.42589">
        <ele>215</ele>
        <time>2025-01-08T14:56:47Z</time>
      </trkpt>
      <trkpt lat="43.47293" lon="6.42587">
        <ele>214</ele>
        <time>2025-01-08T14:56:49Z</time>
      </trkpt>
      <trkpt lat="43.47294" lon="6.42584">
        <ele>213</ele>
        <time>2025-01-08T14:56:51Z</time>
      </trkpt>
      <trkpt lat="43.47301" lon="6.42564">
        <ele>207</ele>
        <time>2025-01-08T14:57:05Z</time>
      </trkpt>
      <trkpt lat="43.47305" lon="6.42556">
        <ele>207</ele>
        <time>2025-01-08T14:57:09Z</time>
      </trkpt>
      <trkpt lat="43.47307" lon="6.42554">
        <ele>207</ele>
        <time>2025-01-08T14:57:11Z</time>
      </trkpt>
      <trkpt lat="43.47312" lon="6.42546">
        <ele>209</ele>
        <time>2025-01-08T14:57:15Z</time>
      </trkpt>
      <trkpt lat="43.47313" lon="6.42542">
        <ele>210</ele>
        <time>2025-01-08T14:57:17Z</time>
      </trkpt>
      <trkpt lat="43.47315" lon="6.42536">
        <ele>210</ele>
        <time>2025-01-08T14:57:21Z</time>
      </trkpt>
      <trkpt lat="43.47317" lon="6.42533">
        <ele>210</ele>
        <time>2025-01-08T14:57:23Z</time>
      </trkpt>
      <trkpt lat="43.4732" lon="6.42528">
        <ele>209</ele>
        <time>2025-01-08T14:57:27Z</time>
      </trkpt>
      <trkpt lat="43.47322" lon="6.42527">
        <ele>209</ele>
        <time>2025-01-08T14:57:29Z</time>
      </trkpt>
      <trkpt lat="43.47326" lon="6.42516">
        <ele>208</ele>
        <time>2025-01-08T14:57:35Z</time>
      </trkpt>
      <trkpt lat="43.47327" lon="6.42514">
        <ele>209</ele>
        <time>2025-01-08T14:57:37Z</time>
      </trkpt>
      <trkpt lat="43.47333" lon="6.42511">
        <ele>209</ele>
        <time>2025-01-08T14:57:43Z</time>
      </trkpt>
      <trkpt lat="43.47335" lon="6.42505">
        <ele>208</ele>
        <time>2025-01-08T14:57:47Z</time>
      </trkpt>
      <trkpt lat="43.47336" lon="6.42503">
        <ele>207</ele>
        <time>2025-01-08T14:57:49Z</time>
      </trkpt>
      <trkpt lat="43.47338" lon="6.425">
        <ele>206</ele>
        <time>2025-01-08T14:57:51Z</time>
      </trkpt>
      <trkpt lat="43.47339" lon="6.42498">
        <ele>205</ele>
        <time>2025-01-08T14:57:53Z</time>
      </trkpt>
      <trkpt lat="43.47339" lon="6.42495">
        <ele>203</ele>
        <time>2025-01-08T14:57:55Z</time>
      </trkpt>
      <trkpt lat="43.47341" lon="6.42485">
        <ele>200</ele>
        <time>2025-01-08T14:58:01Z</time>
      </trkpt>
      <trkpt lat="43.47348" lon="6.42478">
        <ele>198</ele>
        <time>2025-01-08T14:58:07Z</time>
      </trkpt>
      <trkpt lat="43.47348" lon="6.42475">
        <ele>197</ele>
        <time>2025-01-08T14:58:09Z</time>
      </trkpt>
      <trkpt lat="43.47349" lon="6.42471">
        <ele>197</ele>
        <time>2025-01-08T14:58:11Z</time>
      </trkpt>
      <trkpt lat="43.47351" lon="6.42468">
        <ele>197</ele>
        <time>2025-01-08T14:58:13Z</time>
      </trkpt>
      <trkpt lat="43.47351" lon="6.42463">
        <ele>196</ele>
        <time>2025-01-08T14:58:15Z</time>
      </trkpt>
      <trkpt lat="43.47352" lon="6.42458">
        <ele>196</ele>
        <time>2025-01-08T14:58:17Z</time>
      </trkpt>
      <trkpt lat="43.47352" lon="6.42455">
        <ele>195</ele>
        <time>2025-01-08T14:58:19Z</time>
      </trkpt>
      <trkpt lat="43.47354" lon="6.42444">
        <ele>193</ele>
        <time>2025-01-08T14:58:27Z</time>
      </trkpt>
      <trkpt lat="43.47356" lon="6.42436">
        <ele>190</ele>
        <time>2025-01-08T14:58:33Z</time>
      </trkpt>
      <trkpt lat="43.47355" lon="6.42428">
        <ele>188</ele>
        <time>2025-01-08T14:58:37Z</time>
      </trkpt>
      <trkpt lat="43.47356" lon="6.42418">
        <ele>185</ele>
        <time>2025-01-08T14:58:43Z</time>
      </trkpt>
      <trkpt lat="43.47356" lon="6.42413">
        <ele>185</ele>
        <time>2025-01-08T14:58:45Z</time>
      </trkpt>
      <trkpt lat="43.47356" lon="6.42405">
        <ele>184</ele>
        <time>2025-01-08T14:58:49Z</time>
      </trkpt>
      <trkpt lat="43.47356" lon="6.42402">
        <ele>183</ele>
        <time>2025-01-08T14:58:51Z</time>
      </trkpt>
      <trkpt lat="43.47364" lon="6.42367">
        <ele>180</ele>
        <time>2025-01-08T14:59:11Z</time>
      </trkpt>
      <trkpt lat="43.47365" lon="6.42364">
        <ele>180</ele>
        <time>2025-01-08T14:59:13Z</time>
      </trkpt>
      <trkpt lat="43.47367" lon="6.42357">
        <ele>180</ele>
        <time>2025-01-08T14:59:17Z</time>
      </trkpt>
      <trkpt lat="43.47381" lon="6.42342">
        <ele>185</ele>
        <time>2025-01-08T14:59:27Z</time>
      </trkpt>
      <trkpt lat="43.47402" lon="6.42322">
        <ele>193</ele>
        <time>2025-01-08T14:59:47Z</time>
      </trkpt>
      <trkpt lat="43.47405" lon="6.42319">
        <ele>193</ele>
        <time>2025-01-08T14:59:51Z</time>
      </trkpt>
      <trkpt lat="43.47424" lon="6.42308">
        <ele>196</ele>
        <time>2025-01-08T15:00:03Z</time>
      </trkpt>
      <trkpt lat="43.47434" lon="6.42299">
        <ele>194</ele>
        <time>2025-01-08T15:00:13Z</time>
      </trkpt>
      <trkpt lat="43.47439" lon="6.42297">
        <ele>192</ele>
        <time>2025-01-08T15:00:17Z</time>
      </trkpt>
      <trkpt lat="43.47441" lon="6.42295">
        <ele>191</ele>
        <time>2025-01-08T15:00:19Z</time>
      </trkpt>
      <trkpt lat="43.47443" lon="6.42293">
        <ele>190</ele>
        <time>2025-01-08T15:00:21Z</time>
      </trkpt>
      <trkpt lat="43.47446" lon="6.4229">
        <ele>188</ele>
        <time>2025-01-08T15:00:25Z</time>
      </trkpt>
      <trkpt lat="43.47461" lon="6.4228">
        <ele>188</ele>
        <time>2025-01-08T15:00:35Z</time>
      </trkpt>
      <trkpt lat="43.47471" lon="6.42271">
        <ele>190</ele>
        <time>2025-01-08T15:00:45Z</time>
      </trkpt>
      <trkpt lat="43.47479" lon="6.42259">
        <ele>188</ele>
        <time>2025-01-08T15:00:55Z</time>
      </trkpt>
      <trkpt lat="43.47482" lon="6.42258">
        <ele>186</ele>
        <time>2025-01-08T15:00:57Z</time>
      </trkpt>
      <trkpt lat="43.47492" lon="6.42252">
        <ele>185</ele>
        <time>2025-01-08T15:01:03Z</time>
      </trkpt>
      <trkpt lat="43.47493" lon="6.42245">
        <ele>183</ele>
        <time>2025-01-08T15:01:07Z</time>
      </trkpt>
      <trkpt lat="43.47494" lon="6.42242">
        <ele>182</ele>
        <time>2025-01-08T15:01:09Z</time>
      </trkpt>
      <trkpt lat="43.47494" lon="6.42238">
        <ele>181</ele>
        <time>2025-01-08T15:01:11Z</time>
      </trkpt>
      <trkpt lat="43.47495" lon="6.42234">
        <ele>180</ele>
        <time>2025-01-08T15:01:13Z</time>
      </trkpt>
      <trkpt lat="43.47498" lon="6.42231">
        <ele>178</ele>
        <time>2025-01-08T15:01:17Z</time>
      </trkpt>
      <trkpt lat="43.475" lon="6.42226">
        <ele>176</ele>
        <time>2025-01-08T15:01:21Z</time>
      </trkpt>
      <trkpt lat="43.47502" lon="6.42215">
        <ele>173</ele>
        <time>2025-01-08T15:01:29Z</time>
      </trkpt>
      <trkpt lat="43.47501" lon="6.42212">
        <ele>172</ele>
        <time>2025-01-08T15:01:31Z</time>
      </trkpt>
      <trkpt lat="43.47501" lon="6.42209">
        <ele>172</ele>
        <time>2025-01-08T15:01:33Z</time>
      </trkpt>
      <trkpt lat="43.475" lon="6.42205">
        <ele>171</ele>
        <time>2025-01-08T15:01:37Z</time>
      </trkpt>
      <trkpt lat="43.47499" lon="6.42198">
        <ele>170</ele>
        <time>2025-01-08T15:01:41Z</time>
      </trkpt>
      <trkpt lat="43.47499" lon="6.42194">
        <ele>170</ele>
        <time>2025-01-08T15:01:43Z</time>
      </trkpt>
      <trkpt lat="43.47499" lon="6.42189">
        <ele>170</ele>
        <time>2025-01-08T15:01:47Z</time>
      </trkpt>
      <trkpt lat="43.47498" lon="6.42186">
        <ele>169</ele>
        <time>2025-01-08T15:01:49Z</time>
      </trkpt>
      <trkpt lat="43.47498" lon="6.42182">
        <ele>170</ele>
        <time>2025-01-08T15:01:51Z</time>
      </trkpt>
      <trkpt lat="43.47497" lon="6.42177">
        <ele>169</ele>
        <time>2025-01-08T15:01:53Z</time>
      </trkpt>
      <trkpt lat="43.47497" lon="6.42173">
        <ele>169</ele>
        <time>2025-01-08T15:01:55Z</time>
      </trkpt>
      <trkpt lat="43.47497" lon="6.4217">
        <ele>170</ele>
        <time>2025-01-08T15:01:57Z</time>
      </trkpt>
      <trkpt lat="43.47497" lon="6.42167">
        <ele>170</ele>
        <time>2025-01-08T15:01:59Z</time>
      </trkpt>
      <trkpt lat="43.47494" lon="6.42156">
        <ele>169</ele>
        <time>2025-01-08T15:02:07Z</time>
      </trkpt>
      <trkpt lat="43.47492" lon="6.42145">
        <ele>168</ele>
        <time>2025-01-08T15:02:13Z</time>
      </trkpt>
      <trkpt lat="43.47491" lon="6.42134">
        <ele>167</ele>
        <time>2025-01-08T15:02:19Z</time>
      </trkpt>
      <trkpt lat="43.4749" lon="6.42128">
        <ele>167</ele>
        <time>2025-01-08T15:02:23Z</time>
      </trkpt>
      <trkpt lat="43.47488" lon="6.42122">
        <ele>166</ele>
        <time>2025-01-08T15:02:27Z</time>
      </trkpt>
      <trkpt lat="43.47487" lon="6.42118">
        <ele>166</ele>
        <time>2025-01-08T15:02:31Z</time>
      </trkpt>
      <trkpt lat="43.47488" lon="6.42107">
        <ele>164</ele>
        <time>2025-01-08T15:02:39Z</time>
      </trkpt>
      <trkpt lat="43.47485" lon="6.42084">
        <ele>161</ele>
        <time>2025-01-08T15:02:53Z</time>
      </trkpt>
      <trkpt lat="43.47483" lon="6.42079">
        <ele>159</ele>
        <time>2025-01-08T15:02:57Z</time>
      </trkpt>
      <trkpt lat="43.47481" lon="6.42071">
        <ele>157</ele>
        <time>2025-01-08T15:03:03Z</time>
      </trkpt>
      <trkpt lat="43.47481" lon="6.42067">
        <ele>157</ele>
        <time>2025-01-08T15:03:05Z</time>
      </trkpt>
      <trkpt lat="43.47481" lon="6.42057">
        <ele>157</ele>
        <time>2025-01-08T15:03:09Z</time>
      </trkpt>
      <trkpt lat="43.47481" lon="6.42053">
        <ele>157</ele>
        <time>2025-01-08T15:03:11Z</time>
      </trkpt>
      <trkpt lat="43.47482" lon="6.4205">
        <ele>157</ele>
        <time>2025-01-08T15:03:13Z</time>
      </trkpt>
      <trkpt lat="43.47481" lon="6.42029">
        <ele>167</ele>
        <time>2025-01-08T15:03:17Z</time>
      </trkpt>
      <trkpt lat="43.4748" lon="6.42026">
        <ele>169</ele>
        <time>2025-01-08T15:03:19Z</time>
      </trkpt>
      <trkpt lat="43.47481" lon="6.42023">
        <ele>171</ele>
        <time>2025-01-08T15:03:23Z</time>
      </trkpt>
      <trkpt lat="43.47482" lon="6.4201">
        <ele>172</ele>
        <time>2025-01-08T15:03:31Z</time>
      </trkpt>
      <trkpt lat="43.47481" lon="6.42">
        <ele>172</ele>
        <time>2025-01-08T15:03:37Z</time>
      </trkpt>
      <trkpt lat="43.47484" lon="6.41987">
        <ele>172</ele>
        <time>2025-01-08T15:03:43Z</time>
      </trkpt>
      <trkpt lat="43.47497" lon="6.41945">
        <ele>165</ele>
        <time>2025-01-08T15:04:11Z</time>
      </trkpt>
      <trkpt lat="43.47498" lon="6.41943">
        <ele>164</ele>
        <time>2025-01-08T15:04:13Z</time>
      </trkpt>
      <trkpt lat="43.47501" lon="6.41936">
        <ele>163</ele>
        <time>2025-01-08T15:04:17Z</time>
      </trkpt>
      <trkpt lat="43.47501" lon="6.41932">
        <ele>163</ele>
        <time>2025-01-08T15:04:19Z</time>
      </trkpt>
      <trkpt lat="43.47501" lon="6.41928">
        <ele>163</ele>
        <time>2025-01-08T15:04:21Z</time>
      </trkpt>
      <trkpt lat="43.47502" lon="6.41925">
        <ele>162</ele>
        <time>2025-01-08T15:04:23Z</time>
      </trkpt>
      <trkpt lat="43.47503" lon="6.41923">
        <ele>162</ele>
        <time>2025-01-08T15:04:25Z</time>
      </trkpt>
      <trkpt lat="43.47504" lon="6.41918">
        <ele>161</ele>
        <time>2025-01-08T15:04:29Z</time>
      </trkpt>
      <trkpt lat="43.47505" lon="6.41914">
        <ele>159</ele>
        <time>2025-01-08T15:04:33Z</time>
      </trkpt>
      <trkpt lat="43.47508" lon="6.41915">
        <ele>160</ele>
        <time>2025-01-08T15:04:35Z</time>
      </trkpt>
      <trkpt lat="43.4751" lon="6.41915">
        <ele>161</ele>
        <time>2025-01-08T15:04:39Z</time>
      </trkpt>
      <trkpt lat="43.47512" lon="6.41913">
        <ele>164</ele>
        <time>2025-01-08T15:04:43Z</time>
      </trkpt>
      <trkpt lat="43.47508" lon="6.41916">
        <ele>167</ele>
        <time>2025-01-08T15:05:45Z</time>
      </trkpt>
      <trkpt lat="43.47509" lon="6.41916">
        <ele>158</ele>
        <time>2025-01-08T15:07:53Z</time>
      </trkpt>
      <trkpt lat="43.4751" lon="6.41917">
        <ele>157</ele>
        <time>2025-01-08T15:07:55Z</time>
      </trkpt>
      <trkpt lat="43.47514" lon="6.41916">
        <ele>158</ele>
        <time>2025-01-08T15:08:09Z</time>
      </trkpt>
      <trkpt lat="43.47513" lon="6.41916">
        <ele>158</ele>
        <time>2025-01-08T15:08:45Z</time>
      </trkpt>
      <trkpt lat="43.47512" lon="6.41918">
        <ele>158</ele>
        <time>2025-01-08T15:09:03Z</time>
      </trkpt>
      <trkpt lat="43.47509" lon="6.41917">
        <ele>163</ele>
        <time>2025-01-08T15:09:25Z</time>
      </trkpt>
      <trkpt lat="43.4751" lon="6.41917">
        <ele>168</ele>
        <time>2025-01-08T15:09:37Z</time>
      </trkpt>
      <trkpt lat="43.47509" lon="6.41914">
        <ele>170</ele>
        <time>2025-01-08T15:10:21Z</time>
      </trkpt>
      <trkpt lat="43.47511" lon="6.41915">
        <ele>169</ele>
        <time>2025-01-08T15:10:27Z</time>
      </trkpt>
      <trkpt lat="43.47514" lon="6.41916">
        <ele>167</ele>
        <time>2025-01-08T15:10:31Z</time>
      </trkpt>
      <trkpt lat="43.47512" lon="6.41919">
        <ele>167</ele>
        <time>2025-01-08T15:10:35Z</time>
      </trkpt>
      <trkpt lat="43.47513" lon="6.41922">
        <ele>166</ele>
        <time>2025-01-08T15:10:41Z</time>
      </trkpt>
      <trkpt lat="43.47508" lon="6.41929">
        <ele>164</ele>
        <time>2025-01-08T15:10:53Z</time>
      </trkpt>
      <trkpt lat="43.47504" lon="6.41938">
        <ele>163</ele>
        <time>2025-01-08T15:10:59Z</time>
      </trkpt>
      <trkpt lat="43.47498" lon="6.4195">
        <ele>162</ele>
        <time>2025-01-08T15:11:07Z</time>
      </trkpt>
      <trkpt lat="43.47497" lon="6.41953">
        <ele>162</ele>
        <time>2025-01-08T15:11:09Z</time>
      </trkpt>
      <trkpt lat="43.47491" lon="6.41965">
        <ele>161</ele>
        <time>2025-01-08T15:11:17Z</time>
      </trkpt>
      <trkpt lat="43.4749" lon="6.4197">
        <ele>160</ele>
        <time>2025-01-08T15:11:21Z</time>
      </trkpt>
      <trkpt lat="43.47487" lon="6.41973">
        <ele>160</ele>
        <time>2025-01-08T15:11:23Z</time>
      </trkpt>
      <trkpt lat="43.47485" lon="6.41976">
        <ele>160</ele>
        <time>2025-01-08T15:11:27Z</time>
      </trkpt>
      <trkpt lat="43.47484" lon="6.41985">
        <ele>160</ele>
        <time>2025-01-08T15:11:33Z</time>
      </trkpt>
      <trkpt lat="43.47483" lon="6.41988">
        <ele>160</ele>
        <time>2025-01-08T15:11:37Z</time>
      </trkpt>
      <trkpt lat="43.47484" lon="6.41989">
        <ele>160</ele>
        <time>2025-01-08T15:11:47Z</time>
      </trkpt>
      <trkpt lat="43.47491" lon="6.41987">
        <ele>160</ele>
        <time>2025-01-08T15:12:07Z</time>
      </trkpt>
      <trkpt lat="43.47497" lon="6.41964">
        <ele>163</ele>
        <time>2025-01-08T15:12:21Z</time>
      </trkpt>
      <trkpt lat="43.47498" lon="6.41958">
        <ele>163</ele>
        <time>2025-01-08T15:12:25Z</time>
      </trkpt>
      <trkpt lat="43.47499" lon="6.41956">
        <ele>164</ele>
        <time>2025-01-08T15:12:27Z</time>
      </trkpt>
      <trkpt lat="43.47501" lon="6.41952">
        <ele>163</ele>
        <time>2025-01-08T15:12:31Z</time>
      </trkpt>
      <trkpt lat="43.47502" lon="6.41948">
        <ele>163</ele>
        <time>2025-01-08T15:12:33Z</time>
      </trkpt>
      <trkpt lat="43.47506" lon="6.41934">
        <ele>163</ele>
        <time>2025-01-08T15:12:41Z</time>
      </trkpt>
      <trkpt lat="43.47505" lon="6.4193">
        <ele>163</ele>
        <time>2025-01-08T15:12:43Z</time>
      </trkpt>
      <trkpt lat="43.47507" lon="6.41925">
        <ele>162</ele>
        <time>2025-01-08T15:12:47Z</time>
      </trkpt>
      <trkpt lat="43.47509" lon="6.41918">
        <ele>161</ele>
        <time>2025-01-08T15:12:53Z</time>
      </trkpt>
      <trkpt lat="43.47511" lon="6.41912">
        <ele>160</ele>
        <time>2025-01-08T15:12:59Z</time>
      </trkpt>
      <trkpt lat="43.47511" lon="6.41909">
        <ele>160</ele>
        <time>2025-01-08T15:13:01Z</time>
      </trkpt>
      <trkpt lat="43.47508" lon="6.41905">
        <ele>160</ele>
        <time>2025-01-08T15:13:05Z</time>
      </trkpt>
      <trkpt lat="43.47506" lon="6.419">
        <ele>160</ele>
        <time>2025-01-08T15:13:09Z</time>
      </trkpt>
      <trkpt lat="43.47503" lon="6.41898">
        <ele>160</ele>
        <time>2025-01-08T15:13:11Z</time>
      </trkpt>
      <trkpt lat="43.47498" lon="6.41895">
        <ele>162</ele>
        <time>2025-01-08T15:13:15Z</time>
      </trkpt>
      <trkpt lat="43.47496" lon="6.41894">
        <ele>162</ele>
        <time>2025-01-08T15:13:17Z</time>
      </trkpt>
      <trkpt lat="43.47494" lon="6.41892">
        <ele>162</ele>
        <time>2025-01-08T15:13:21Z</time>
      </trkpt>
      <trkpt lat="43.47491" lon="6.41891">
        <ele>162</ele>
        <time>2025-01-08T15:13:23Z</time>
      </trkpt>
      <trkpt lat="43.4749" lon="6.4189">
        <ele>162</ele>
        <time>2025-01-08T15:13:25Z</time>
      </trkpt>
      <trkpt lat="43.47489" lon="6.41887">
        <ele>164</ele>
        <time>2025-01-08T15:13:31Z</time>
      </trkpt>
      <trkpt lat="43.47474" lon="6.41884">
        <ele>162</ele>
        <time>2025-01-08T15:13:43Z</time>
      </trkpt>
      <trkpt lat="43.47471" lon="6.41884">
        <ele>163</ele>
        <time>2025-01-08T15:13:45Z</time>
      </trkpt>
      <trkpt lat="43.47469" lon="6.41885">
        <ele>163</ele>
        <time>2025-01-08T15:13:47Z</time>
      </trkpt>
      <trkpt lat="43.47465" lon="6.41885">
        <ele>164</ele>
        <time>2025-01-08T15:13:51Z</time>
      </trkpt>
      <trkpt lat="43.47462" lon="6.41886">
        <ele>164</ele>
        <time>2025-01-08T15:13:53Z</time>
      </trkpt>
      <trkpt lat="43.4746" lon="6.41886">
        <ele>164</ele>
        <time>2025-01-08T15:13:55Z</time>
      </trkpt>
      <trkpt lat="43.47456" lon="6.41888">
        <ele>166</ele>
        <time>2025-01-08T15:13:59Z</time>
      </trkpt>
      <trkpt lat="43.47454" lon="6.4189">
        <ele>166</ele>
        <time>2025-01-08T15:14:01Z</time>
      </trkpt>
      <trkpt lat="43.47448" lon="6.41895">
        <ele>168</ele>
        <time>2025-01-08T15:14:07Z</time>
      </trkpt>
      <trkpt lat="43.47446" lon="6.41897">
        <ele>168</ele>
        <time>2025-01-08T15:14:09Z</time>
      </trkpt>
      <trkpt lat="43.47444" lon="6.41898">
        <ele>169</ele>
        <time>2025-01-08T15:14:11Z</time>
      </trkpt>
      <trkpt lat="43.47437" lon="6.419">
        <ele>169</ele>
        <time>2025-01-08T15:14:17Z</time>
      </trkpt>
      <trkpt lat="43.47431" lon="6.41901">
        <ele>168</ele>
        <time>2025-01-08T15:14:23Z</time>
      </trkpt>
      <trkpt lat="43.47425" lon="6.41902">
        <ele>168</ele>
        <time>2025-01-08T15:14:27Z</time>
      </trkpt>
      <trkpt lat="43.47422" lon="6.41903">
        <ele>167</ele>
        <time>2025-01-08T15:14:29Z</time>
      </trkpt>
      <trkpt lat="43.47412" lon="6.41903">
        <ele>167</ele>
        <time>2025-01-08T15:14:35Z</time>
      </trkpt>
      <trkpt lat="43.47408" lon="6.41905">
        <ele>167</ele>
        <time>2025-01-08T15:14:39Z</time>
      </trkpt>
      <trkpt lat="43.47404" lon="6.41905">
        <ele>168</ele>
        <time>2025-01-08T15:14:41Z</time>
      </trkpt>
      <trkpt lat="43.47394" lon="6.41908">
        <ele>170</ele>
        <time>2025-01-08T15:14:47Z</time>
      </trkpt>
      <trkpt lat="43.47391" lon="6.41908">
        <ele>171</ele>
        <time>2025-01-08T15:14:49Z</time>
      </trkpt>
      <trkpt lat="43.4739" lon="6.41906">
        <ele>172</ele>
        <time>2025-01-08T15:14:51Z</time>
      </trkpt>
      <trkpt lat="43.47387" lon="6.41905">
        <ele>172</ele>
        <time>2025-01-08T15:14:53Z</time>
      </trkpt>
      <trkpt lat="43.47369" lon="6.41903">
        <ele>171</ele>
        <time>2025-01-08T15:15:07Z</time>
      </trkpt>
      <trkpt lat="43.4736" lon="6.41903">
        <ele>169</ele>
        <time>2025-01-08T15:15:13Z</time>
      </trkpt>
      <trkpt lat="43.47355" lon="6.41903">
        <ele>167</ele>
        <time>2025-01-08T15:15:17Z</time>
      </trkpt>
      <trkpt lat="43.47353" lon="6.41901">
        <ele>166</ele>
        <time>2025-01-08T15:15:19Z</time>
      </trkpt>
      <trkpt lat="43.47351" lon="6.419">
        <ele>165</ele>
        <time>2025-01-08T15:15:21Z</time>
      </trkpt>
      <trkpt lat="43.47345" lon="6.41898">
        <ele>165</ele>
        <time>2025-01-08T15:15:25Z</time>
      </trkpt>
      <trkpt lat="43.47343" lon="6.41895">
        <ele>165</ele>
        <time>2025-01-08T15:15:27Z</time>
      </trkpt>
      <trkpt lat="43.47341" lon="6.41894">
        <ele>165</ele>
        <time>2025-01-08T15:15:29Z</time>
      </trkpt>
      <trkpt lat="43.47332" lon="6.41892">
        <ele>165</ele>
        <time>2025-01-08T15:15:35Z</time>
      </trkpt>
      <trkpt lat="43.47329" lon="6.41891">
        <ele>165</ele>
        <time>2025-01-08T15:15:37Z</time>
      </trkpt>
      <trkpt lat="43.47324" lon="6.41889">
        <ele>166</ele>
        <time>2025-01-08T15:15:41Z</time>
      </trkpt>
      <trkpt lat="43.47321" lon="6.41889">
        <ele>167</ele>
        <time>2025-01-08T15:15:43Z</time>
      </trkpt>
      <trkpt lat="43.47315" lon="6.41887">
        <ele>167</ele>
        <time>2025-01-08T15:15:47Z</time>
      </trkpt>
      <trkpt lat="43.47304" lon="6.41885">
        <ele>169</ele>
        <time>2025-01-08T15:15:53Z</time>
      </trkpt>
      <trkpt lat="43.47298" lon="6.41885">
        <ele>170</ele>
        <time>2025-01-08T15:15:57Z</time>
      </trkpt>
      <trkpt lat="43.47296" lon="6.41885">
        <ele>169</ele>
        <time>2025-01-08T15:15:59Z</time>
      </trkpt>
      <trkpt lat="43.47294" lon="6.41886">
        <ele>169</ele>
        <time>2025-01-08T15:16:01Z</time>
      </trkpt>
      <trkpt lat="43.47293" lon="6.41888">
        <ele>169</ele>
        <time>2025-01-08T15:16:03Z</time>
      </trkpt>
      <trkpt lat="43.47291" lon="6.41889">
        <ele>169</ele>
        <time>2025-01-08T15:16:05Z</time>
      </trkpt>
      <trkpt lat="43.47285" lon="6.41891">
        <ele>169</ele>
        <time>2025-01-08T15:16:09Z</time>
      </trkpt>
      <trkpt lat="43.47283" lon="6.41892">
        <ele>168</ele>
        <time>2025-01-08T15:16:11Z</time>
      </trkpt>
      <trkpt lat="43.47278" lon="6.41893">
        <ele>167</ele>
        <time>2025-01-08T15:16:15Z</time>
      </trkpt>
      <trkpt lat="43.47275" lon="6.41892">
        <ele>166</ele>
        <time>2025-01-08T15:16:17Z</time>
      </trkpt>
      <trkpt lat="43.47273" lon="6.41891">
        <ele>166</ele>
        <time>2025-01-08T15:16:19Z</time>
      </trkpt>
      <trkpt lat="43.4727" lon="6.41891">
        <ele>165</ele>
        <time>2025-01-08T15:16:21Z</time>
      </trkpt>
      <trkpt lat="43.47263" lon="6.41894">
        <ele>164</ele>
        <time>2025-01-08T15:16:27Z</time>
      </trkpt>
      <trkpt lat="43.47261" lon="6.41896">
        <ele>163</ele>
        <time>2025-01-08T15:16:29Z</time>
      </trkpt>
      <trkpt lat="43.47258" lon="6.41897">
        <ele>161</ele>
        <time>2025-01-08T15:16:33Z</time>
      </trkpt>
      <trkpt lat="43.47256" lon="6.41897">
        <ele>161</ele>
        <time>2025-01-08T15:16:35Z</time>
      </trkpt>
      <trkpt lat="43.47253" lon="6.41899">
        <ele>159</ele>
        <time>2025-01-08T15:16:37Z</time>
      </trkpt>
      <trkpt lat="43.47251" lon="6.41901">
        <ele>158</ele>
        <time>2025-01-08T15:16:39Z</time>
      </trkpt>
      <trkpt lat="43.47239" lon="6.41907">
        <ele>153</ele>
        <time>2025-01-08T15:16:47Z</time>
      </trkpt>
      <trkpt lat="43.47234" lon="6.4191">
        <ele>152</ele>
        <time>2025-01-08T15:16:51Z</time>
      </trkpt>
      <trkpt lat="43.47232" lon="6.41911">
        <ele>151</ele>
        <time>2025-01-08T15:16:53Z</time>
      </trkpt>
      <trkpt lat="43.47227" lon="6.4191">
        <ele>151</ele>
        <time>2025-01-08T15:16:57Z</time>
      </trkpt>
      <trkpt lat="43.47221" lon="6.41914">
        <ele>150</ele>
        <time>2025-01-08T15:17:01Z</time>
      </trkpt>
      <trkpt lat="43.47212" lon="6.41915">
        <ele>147</ele>
        <time>2025-01-08T15:17:07Z</time>
      </trkpt>
      <trkpt lat="43.47197" lon="6.41921">
        <ele>145</ele>
        <time>2025-01-08T15:17:17Z</time>
      </trkpt>
      <trkpt lat="43.47195" lon="6.41923">
        <ele>145</ele>
        <time>2025-01-08T15:17:19Z</time>
      </trkpt>
      <trkpt lat="43.47192" lon="6.41925">
        <ele>145</ele>
        <time>2025-01-08T15:17:21Z</time>
      </trkpt>
      <trkpt lat="43.47187" lon="6.41934">
        <ele>144</ele>
        <time>2025-01-08T15:17:29Z</time>
      </trkpt>
      <trkpt lat="43.47185" lon="6.41938">
        <ele>144</ele>
        <time>2025-01-08T15:17:33Z</time>
      </trkpt>
      <trkpt lat="43.47183" lon="6.41941">
        <ele>144</ele>
        <time>2025-01-08T15:17:35Z</time>
      </trkpt>
      <trkpt lat="43.47169" lon="6.41981">
        <ele>145</ele>
        <time>2025-01-08T15:17:59Z</time>
      </trkpt>
      <trkpt lat="43.47165" lon="6.41986">
        <ele>145</ele>
        <time>2025-01-08T15:18:03Z</time>
      </trkpt>
      <trkpt lat="43.47164" lon="6.4199">
        <ele>144</ele>
        <time>2025-01-08T15:18:07Z</time>
      </trkpt>
      <trkpt lat="43.47153" lon="6.41997">
        <ele>141</ele>
        <time>2025-01-08T15:18:31Z</time>
      </trkpt>
      <trkpt lat="43.47152" lon="6.41994">
        <ele>142</ele>
        <time>2025-01-08T15:18:35Z</time>
      </trkpt>
      <trkpt lat="43.47156" lon="6.4199">
        <ele>144</ele>
        <time>2025-01-08T15:18:57Z</time>
      </trkpt>
      <trkpt lat="43.47154" lon="6.41987">
        <ele>145</ele>
        <time>2025-01-08T15:19:07Z</time>
      </trkpt>
      <trkpt lat="43.47152" lon="6.41982">
        <ele>147</ele>
        <time>2025-01-08T15:19:11Z</time>
      </trkpt>
      <trkpt lat="43.47153" lon="6.41979">
        <ele>148</ele>
        <time>2025-01-08T15:19:15Z</time>
      </trkpt>
      <trkpt lat="43.47153" lon="6.41972">
        <ele>147</ele>
        <time>2025-01-08T15:19:21Z</time>
      </trkpt>
      <trkpt lat="43.47154" lon="6.41966">
        <ele>146</ele>
        <time>2025-01-08T15:19:25Z</time>
      </trkpt>
      <trkpt lat="43.47154" lon="6.41962">
        <ele>145</ele>
        <time>2025-01-08T15:19:29Z</time>
      </trkpt>
      <trkpt lat="43.47155" lon="6.4196">
        <ele>144</ele>
        <time>2025-01-08T15:19:31Z</time>
      </trkpt>
      <trkpt lat="43.47156" lon="6.41957">
        <ele>143</ele>
        <time>2025-01-08T15:19:35Z</time>
      </trkpt>
      <trkpt lat="43.47155" lon="6.41947">
        <ele>142</ele>
        <time>2025-01-08T15:19:43Z</time>
      </trkpt>
      <trkpt lat="43.47155" lon="6.41944">
        <ele>142</ele>
        <time>2025-01-08T15:19:45Z</time>
      </trkpt>
      <trkpt lat="43.47156" lon="6.41942">
        <ele>142</ele>
        <time>2025-01-08T15:19:49Z</time>
      </trkpt>
      <trkpt lat="43.47157" lon="6.41936">
        <ele>142</ele>
        <time>2025-01-08T15:19:53Z</time>
      </trkpt>
      <trkpt lat="43.47157" lon="6.41932">
        <ele>142</ele>
        <time>2025-01-08T15:19:55Z</time>
      </trkpt>
      <trkpt lat="43.47158" lon="6.41928">
        <ele>143</ele>
        <time>2025-01-08T15:19:57Z</time>
      </trkpt>
      <trkpt lat="43.47157" lon="6.41918">
        <ele>143</ele>
        <time>2025-01-08T15:20:07Z</time>
      </trkpt>
      <trkpt lat="43.47156" lon="6.4191">
        <ele>144</ele>
        <time>2025-01-08T15:20:11Z</time>
      </trkpt>
      <trkpt lat="43.47159" lon="6.4191">
        <ele>145</ele>
        <time>2025-01-08T15:20:19Z</time>
      </trkpt>
      <trkpt lat="43.47159" lon="6.41907">
        <ele>144</ele>
        <time>2025-01-08T15:20:23Z</time>
      </trkpt>
      <trkpt lat="43.47158" lon="6.41903">
        <ele>144</ele>
        <time>2025-01-08T15:20:27Z</time>
      </trkpt>
      <trkpt lat="43.47159" lon="6.41895">
        <ele>142</ele>
        <time>2025-01-08T15:20:35Z</time>
      </trkpt>
      <trkpt lat="43.47161" lon="6.41892">
        <ele>140</ele>
        <time>2025-01-08T15:20:39Z</time>
      </trkpt>
      <trkpt lat="43.47163" lon="6.41889">
        <ele>139</ele>
        <time>2025-01-08T15:20:43Z</time>
      </trkpt>
      <trkpt lat="43.47165" lon="6.41886">
        <ele>139</ele>
        <time>2025-01-08T15:20:47Z</time>
      </trkpt>
      <trkpt lat="43.47167" lon="6.41886">
        <ele>139</ele>
        <time>2025-01-08T15:20:51Z</time>
      </trkpt>
      <trkpt lat="43.47168" lon="6.41889">
        <ele>139</ele>
        <time>2025-01-08T15:20:55Z</time>
      </trkpt>
      <trkpt lat="43.47167" lon="6.41892">
        <ele>141</ele>
        <time>2025-01-08T15:21:01Z</time>
      </trkpt>
      <trkpt lat="43.47166" lon="6.41895">
        <ele>141</ele>
        <time>2025-01-08T15:21:05Z</time>
      </trkpt>
      <trkpt lat="43.47167" lon="6.41899">
        <ele>142</ele>
        <time>2025-01-08T15:21:09Z</time>
      </trkpt>
      <trkpt lat="43.47168" lon="6.41901">
        <ele>142</ele>
        <time>2025-01-08T15:21:11Z</time>
      </trkpt>
      <trkpt lat="43.47171" lon="6.41904">
        <ele>143</ele>
        <time>2025-01-08T15:21:15Z</time>
      </trkpt>
      <trkpt lat="43.47171" lon="6.41907">
        <ele>143</ele>
        <time>2025-01-08T15:21:21Z</time>
      </trkpt>
      <trkpt lat="43.47173" lon="6.4191">
        <ele>144</ele>
        <time>2025-01-08T15:21:29Z</time>
      </trkpt>
      <trkpt lat="43.47176" lon="6.41911">
        <ele>144</ele>
        <time>2025-01-08T15:21:35Z</time>
      </trkpt>
      <trkpt lat="43.47166" lon="6.41902">
        <ele>146</ele>
        <time>2025-01-08T15:22:09Z</time>
      </trkpt>
      <trkpt lat="43.47165" lon="6.41899">
        <ele>146</ele>
        <time>2025-01-08T15:22:11Z</time>
      </trkpt>
      <trkpt lat="43.47164" lon="6.41897">
        <ele>146</ele>
        <time>2025-01-08T15:22:15Z</time>
      </trkpt>
      <trkpt lat="43.47161" lon="6.41895">
        <ele>145</ele>
        <time>2025-01-08T15:22:19Z</time>
      </trkpt>
      <trkpt lat="43.47159" lon="6.41901">
        <ele>144</ele>
        <time>2025-01-08T15:22:27Z</time>
      </trkpt>
      <trkpt lat="43.47159" lon="6.41904">
        <ele>143</ele>
        <time>2025-01-08T15:22:31Z</time>
      </trkpt>
      <trkpt lat="43.4716" lon="6.41907">
        <ele>142</ele>
        <time>2025-01-08T15:22:35Z</time>
      </trkpt>
      <trkpt lat="43.47162" lon="6.4191">
        <ele>141</ele>
        <time>2025-01-08T15:22:39Z</time>
      </trkpt>
      <trkpt lat="43.47162" lon="6.41914">
        <ele>141</ele>
        <time>2025-01-08T15:22:51Z</time>
      </trkpt>
      <trkpt lat="43.4716" lon="6.41914">
        <ele>140</ele>
        <time>2025-01-08T15:22:57Z</time>
      </trkpt>
      <trkpt lat="43.47158" lon="6.41917">
        <ele>139</ele>
        <time>2025-01-08T15:23:01Z</time>
      </trkpt>
      <trkpt lat="43.47158" lon="6.41921">
        <ele>139</ele>
        <time>2025-01-08T15:24:01Z</time>
      </trkpt>
      <trkpt lat="43.47157" lon="6.41931">
        <ele>142</ele>
        <time>2025-01-08T15:24:09Z</time>
      </trkpt>
      <trkpt lat="43.47156" lon="6.41935">
        <ele>142</ele>
        <time>2025-01-08T15:24:11Z</time>
      </trkpt>
      <trkpt lat="43.47155" lon="6.41938">
        <ele>142</ele>
        <time>2025-01-08T15:24:13Z</time>
      </trkpt>
      <trkpt lat="43.47154" lon="6.4196">
        <ele>143</ele>
        <time>2025-01-08T15:24:25Z</time>
      </trkpt>
      <trkpt lat="43.47155" lon="6.41975">
        <ele>144</ele>
        <time>2025-01-08T15:24:35Z</time>
      </trkpt>
      <trkpt lat="43.47154" lon="6.41979">
        <ele>144</ele>
        <time>2025-01-08T15:24:39Z</time>
      </trkpt>
      <trkpt lat="43.47155" lon="6.41982">
        <ele>145</ele>
        <time>2025-01-08T15:24:43Z</time>
      </trkpt>
      <trkpt lat="43.47156" lon="6.41986">
        <ele>145</ele>
        <time>2025-01-08T15:24:47Z</time>
      </trkpt>
      <trkpt lat="43.47155" lon="6.41989">
        <ele>146</ele>
        <time>2025-01-08T15:24:53Z</time>
      </trkpt>
      <trkpt lat="43.47153" lon="6.41997">
        <ele>146</ele>
        <time>2025-01-08T15:24:59Z</time>
      </trkpt>
      <trkpt lat="43.47151" lon="6.42001">
        <ele>147</ele>
        <time>2025-01-08T15:25:01Z</time>
      </trkpt>
      <trkpt lat="43.47149" lon="6.42003">
        <ele>147</ele>
        <time>2025-01-08T15:25:03Z</time>
      </trkpt>
      <trkpt lat="43.47147" lon="6.42003">
        <ele>148</ele>
        <time>2025-01-08T15:25:07Z</time>
      </trkpt>
      <trkpt lat="43.47141" lon="6.42">
        <ele>147</ele>
        <time>2025-01-08T15:25:13Z</time>
      </trkpt>
      <trkpt lat="43.47139" lon="6.41999">
        <ele>146</ele>
        <time>2025-01-08T15:25:17Z</time>
      </trkpt>
      <trkpt lat="43.47137" lon="6.41998">
        <ele>145</ele>
        <time>2025-01-08T15:25:19Z</time>
      </trkpt>
      <trkpt lat="43.47132" lon="6.41988">
        <ele>141</ele>
        <time>2025-01-08T15:25:25Z</time>
      </trkpt>
      <trkpt lat="43.4713" lon="6.41981">
        <ele>137</ele>
        <time>2025-01-08T15:25:31Z</time>
      </trkpt>
      <trkpt lat="43.47129" lon="6.41978">
        <ele>136</ele>
        <time>2025-01-08T15:25:33Z</time>
      </trkpt>
      <trkpt lat="43.47127" lon="6.41976">
        <ele>135</ele>
        <time>2025-01-08T15:25:35Z</time>
      </trkpt>
      <trkpt lat="43.47125" lon="6.41972">
        <ele>134</ele>
        <time>2025-01-08T15:25:37Z</time>
      </trkpt>
      <trkpt lat="43.47123" lon="6.41963">
        <ele>133</ele>
        <time>2025-01-08T15:25:41Z</time>
      </trkpt>
      <trkpt lat="43.47121" lon="6.4196">
        <ele>133</ele>
        <time>2025-01-08T15:25:43Z</time>
      </trkpt>
      <trkpt lat="43.47117" lon="6.41953">
        <ele>132</ele>
        <time>2025-01-08T15:25:49Z</time>
      </trkpt>
      <trkpt lat="43.47115" lon="6.4195">
        <ele>132</ele>
        <time>2025-01-08T15:25:51Z</time>
      </trkpt>
      <trkpt lat="43.4711" lon="6.41945">
        <ele>130</ele>
        <time>2025-01-08T15:25:55Z</time>
      </trkpt>
      <trkpt lat="43.47109" lon="6.41942">
        <ele>130</ele>
        <time>2025-01-08T15:25:57Z</time>
      </trkpt>
      <trkpt lat="43.47106" lon="6.41941">
        <ele>129</ele>
        <time>2025-01-08T15:25:59Z</time>
      </trkpt>
      <trkpt lat="43.471" lon="6.41935">
        <ele>128</ele>
        <time>2025-01-08T15:26:07Z</time>
      </trkpt>
      <trkpt lat="43.47098" lon="6.41932">
        <ele>128</ele>
        <time>2025-01-08T15:26:09Z</time>
      </trkpt>
      <trkpt lat="43.47094" lon="6.41931">
        <ele>128</ele>
        <time>2025-01-08T15:26:13Z</time>
      </trkpt>
      <trkpt lat="43.47091" lon="6.41931">
        <ele>128</ele>
        <time>2025-01-08T15:26:17Z</time>
      </trkpt>
      <trkpt lat="43.47075" lon="6.4192">
        <ele>131</ele>
        <time>2025-01-08T15:26:29Z</time>
      </trkpt>
      <trkpt lat="43.47072" lon="6.41915">
        <ele>132</ele>
        <time>2025-01-08T15:26:33Z</time>
      </trkpt>
      <trkpt lat="43.47065" lon="6.41913">
        <ele>133</ele>
        <time>2025-01-08T15:26:39Z</time>
      </trkpt>
      <trkpt lat="43.4706" lon="6.41909">
        <ele>136</ele>
        <time>2025-01-08T15:26:43Z</time>
      </trkpt>
      <trkpt lat="43.47057" lon="6.41905">
        <ele>137</ele>
        <time>2025-01-08T15:26:45Z</time>
      </trkpt>
      <trkpt lat="43.47055" lon="6.41904">
        <ele>139</ele>
        <time>2025-01-08T15:26:47Z</time>
      </trkpt>
      <trkpt lat="43.47052" lon="6.41903">
        <ele>140</ele>
        <time>2025-01-08T15:26:49Z</time>
      </trkpt>
      <trkpt lat="43.4705" lon="6.41902">
        <ele>140</ele>
        <time>2025-01-08T15:26:53Z</time>
      </trkpt>
      <trkpt lat="43.47043" lon="6.41899">
        <ele>138</ele>
        <time>2025-01-08T15:26:59Z</time>
      </trkpt>
      <trkpt lat="43.47035" lon="6.41893">
        <ele>136</ele>
        <time>2025-01-08T15:27:03Z</time>
      </trkpt>
      <trkpt lat="43.47032" lon="6.4189">
        <ele>135</ele>
        <time>2025-01-08T15:27:05Z</time>
      </trkpt>
      <trkpt lat="43.47029" lon="6.41888">
        <ele>134</ele>
        <time>2025-01-08T15:27:07Z</time>
      </trkpt>
      <trkpt lat="43.47027" lon="6.41887">
        <ele>133</ele>
        <time>2025-01-08T15:27:09Z</time>
      </trkpt>
      <trkpt lat="43.47021" lon="6.41882">
        <ele>133</ele>
        <time>2025-01-08T15:27:13Z</time>
      </trkpt>
      <trkpt lat="43.47018" lon="6.41881">
        <ele>133</ele>
        <time>2025-01-08T15:27:15Z</time>
      </trkpt>
      <trkpt lat="43.4701" lon="6.41878">
        <ele>131</ele>
        <time>2025-01-08T15:27:21Z</time>
      </trkpt>
      <trkpt lat="43.47001" lon="6.41881">
        <ele>127</ele>
        <time>2025-01-08T15:27:27Z</time>
      </trkpt>
      <trkpt lat="43.46997" lon="6.41881">
        <ele>127</ele>
        <time>2025-01-08T15:27:29Z</time>
      </trkpt>
      <trkpt lat="43.46995" lon="6.41883">
        <ele>125</ele>
        <time>2025-01-08T15:27:31Z</time>
      </trkpt>
      <trkpt lat="43.46985" lon="6.41889">
        <ele>121</ele>
        <time>2025-01-08T15:27:41Z</time>
      </trkpt>
      <trkpt lat="43.46983" lon="6.41891">
        <ele>120</ele>
        <time>2025-01-08T15:27:43Z</time>
      </trkpt>
      <trkpt lat="43.46979" lon="6.41895">
        <ele>119</ele>
        <time>2025-01-08T15:27:45Z</time>
      </trkpt>
      <trkpt lat="43.46976" lon="6.41896">
        <ele>118</ele>
        <time>2025-01-08T15:27:47Z</time>
      </trkpt>
      <trkpt lat="43.46958" lon="6.41919">
        <ele>114</ele>
        <time>2025-01-08T15:28:03Z</time>
      </trkpt>
      <trkpt lat="43.46955" lon="6.41921">
        <ele>114</ele>
        <time>2025-01-08T15:28:05Z</time>
      </trkpt>
      <trkpt lat="43.46942" lon="6.41931">
        <ele>111</ele>
        <time>2025-01-08T15:28:15Z</time>
      </trkpt>
      <trkpt lat="43.46939" lon="6.41933">
        <ele>111</ele>
        <time>2025-01-08T15:28:17Z</time>
      </trkpt>
      <trkpt lat="43.46936" lon="6.41934">
        <ele>111</ele>
        <time>2025-01-08T15:28:19Z</time>
      </trkpt>
      <trkpt lat="43.46933" lon="6.41937">
        <ele>111</ele>
        <time>2025-01-08T15:28:21Z</time>
      </trkpt>
      <trkpt lat="43.46926" lon="6.41942">
        <ele>109</ele>
        <time>2025-01-08T15:28:27Z</time>
      </trkpt>
      <trkpt lat="43.46923" lon="6.41944">
        <ele>108</ele>
        <time>2025-01-08T15:28:29Z</time>
      </trkpt>
      <trkpt lat="43.46919" lon="6.41944">
        <ele>107</ele>
        <time>2025-01-08T15:28:31Z</time>
      </trkpt>
      <trkpt lat="43.46911" lon="6.41953">
        <ele>105</ele>
        <time>2025-01-08T15:28:37Z</time>
      </trkpt>
      <trkpt lat="43.4691" lon="6.41954">
        <ele>104</ele>
        <time>2025-01-08T15:28:39Z</time>
      </trkpt>
      <trkpt lat="43.46907" lon="6.41957">
        <ele>103</ele>
        <time>2025-01-08T15:28:41Z</time>
      </trkpt>
      <trkpt lat="43.46904" lon="6.41959">
        <ele>103</ele>
        <time>2025-01-08T15:28:43Z</time>
      </trkpt>
      <trkpt lat="43.46901" lon="6.41967">
        <ele>101</ele>
        <time>2025-01-08T15:28:47Z</time>
      </trkpt>
      <trkpt lat="43.46899" lon="6.41974">
        <ele>100</ele>
        <time>2025-01-08T15:28:51Z</time>
      </trkpt>
      <trkpt lat="43.46898" lon="6.41977">
        <ele>100</ele>
        <time>2025-01-08T15:28:55Z</time>
      </trkpt>
      <trkpt lat="43.46897" lon="6.41973">
        <ele>101</ele>
        <time>2025-01-08T15:28:59Z</time>
      </trkpt>
      <trkpt lat="43.46896" lon="6.41977">
        <ele>105</ele>
        <time>2025-01-08T15:29:17Z</time>
      </trkpt>
      <trkpt lat="43.4689" lon="6.41981">
        <ele>109</ele>
        <time>2025-01-08T15:30:53Z</time>
      </trkpt>
      <trkpt lat="43.46889" lon="6.41982">
        <ele>109</ele>
        <time>2025-01-08T15:30:55Z</time>
      </trkpt>
      <trkpt lat="43.46884" lon="6.41985">
        <ele>109</ele>
        <time>2025-01-08T15:30:59Z</time>
      </trkpt>
      <trkpt lat="43.46874" lon="6.41992">
        <ele>108</ele>
        <time>2025-01-08T15:31:09Z</time>
      </trkpt>
      <trkpt lat="43.4687" lon="6.41992">
        <ele>108</ele>
        <time>2025-01-08T15:31:11Z</time>
      </trkpt>
      <trkpt lat="43.46868" lon="6.41993">
        <ele>107</ele>
        <time>2025-01-08T15:31:13Z</time>
      </trkpt>
      <trkpt lat="43.46863" lon="6.41998">
        <ele>106</ele>
        <time>2025-01-08T15:31:17Z</time>
      </trkpt>
      <trkpt lat="43.46854" lon="6.42003">
        <ele>104</ele>
        <time>2025-01-08T15:31:25Z</time>
      </trkpt>
      <trkpt lat="43.4685" lon="6.42008">
        <ele>105</ele>
        <time>2025-01-08T15:31:29Z</time>
      </trkpt>
      <trkpt lat="43.46848" lon="6.4201">
        <ele>106</ele>
        <time>2025-01-08T15:31:31Z</time>
      </trkpt>
      <trkpt lat="43.46846" lon="6.42012">
        <ele>106</ele>
        <time>2025-01-08T15:31:33Z</time>
      </trkpt>
      <trkpt lat="43.4684" lon="6.42016">
        <ele>107</ele>
        <time>2025-01-08T15:31:39Z</time>
      </trkpt>
      <trkpt lat="43.46838" lon="6.42019">
        <ele>107</ele>
        <time>2025-01-08T15:31:41Z</time>
      </trkpt>
      <trkpt lat="43.46836" lon="6.42021">
        <ele>107</ele>
        <time>2025-01-08T15:31:43Z</time>
      </trkpt>
      <trkpt lat="43.46833" lon="6.42023">
        <ele>107</ele>
        <time>2025-01-08T15:31:45Z</time>
      </trkpt>
      <trkpt lat="43.46831" lon="6.42025">
        <ele>107</ele>
        <time>2025-01-08T15:31:47Z</time>
      </trkpt>
      <trkpt lat="43.46829" lon="6.42026">
        <ele>107</ele>
        <time>2025-01-08T15:31:49Z</time>
      </trkpt>
      <trkpt lat="43.46827" lon="6.42028">
        <ele>107</ele>
        <time>2025-01-08T15:31:51Z</time>
      </trkpt>
      <trkpt lat="43.46822" lon="6.42032">
        <ele>108</ele>
        <time>2025-01-08T15:31:55Z</time>
      </trkpt>
      <trkpt lat="43.46817" lon="6.42035">
        <ele>108</ele>
        <time>2025-01-08T15:31:59Z</time>
      </trkpt>
      <trkpt lat="43.46815" lon="6.42038">
        <ele>108</ele>
        <time>2025-01-08T15:32:01Z</time>
      </trkpt>
      <trkpt lat="43.46814" lon="6.42041">
        <ele>108</ele>
        <time>2025-01-08T15:32:03Z</time>
      </trkpt>
      <trkpt lat="43.46805" lon="6.42048">
        <ele>110</ele>
        <time>2025-01-08T15:32:11Z</time>
      </trkpt>
      <trkpt lat="43.46802" lon="6.4205">
        <ele>110</ele>
        <time>2025-01-08T15:32:13Z</time>
      </trkpt>
      <trkpt lat="43.468" lon="6.42052">
        <ele>110</ele>
        <time>2025-01-08T15:32:15Z</time>
      </trkpt>
      <trkpt lat="43.46793" lon="6.42057">
        <ele>109</ele>
        <time>2025-01-08T15:32:21Z</time>
      </trkpt>
      <trkpt lat="43.46781" lon="6.4206">
        <ele>110</ele>
        <time>2025-01-08T15:32:31Z</time>
      </trkpt>
      <trkpt lat="43.46778" lon="6.42061">
        <ele>110</ele>
        <time>2025-01-08T15:32:33Z</time>
      </trkpt>
      <trkpt lat="43.46776" lon="6.42062">
        <ele>110</ele>
        <time>2025-01-08T15:32:35Z</time>
      </trkpt>
      <trkpt lat="43.46773" lon="6.42064">
        <ele>110</ele>
        <time>2025-01-08T15:32:37Z</time>
      </trkpt>
      <trkpt lat="43.46772" lon="6.42066">
        <ele>109</ele>
        <time>2025-01-08T15:32:39Z</time>
      </trkpt>
      <trkpt lat="43.46768" lon="6.42079">
        <ele>108</ele>
        <time>2025-01-08T15:32:47Z</time>
      </trkpt>
      <trkpt lat="43.46768" lon="6.42084">
        <ele>108</ele>
        <time>2025-01-08T15:32:49Z</time>
      </trkpt>
      <trkpt lat="43.46767" lon="6.42093">
        <ele>108</ele>
        <time>2025-01-08T15:32:53Z</time>
      </trkpt>
      <trkpt lat="43.46766" lon="6.42097">
        <ele>109</ele>
        <time>2025-01-08T15:32:55Z</time>
      </trkpt>
      <trkpt lat="43.46765" lon="6.42104">
        <ele>111</ele>
        <time>2025-01-08T15:33:01Z</time>
      </trkpt>
      <trkpt lat="43.46765" lon="6.42109">
        <ele>112</ele>
        <time>2025-01-08T15:33:05Z</time>
      </trkpt>
      <trkpt lat="43.46764" lon="6.4213">
        <ele>115</ele>
        <time>2025-01-08T15:33:17Z</time>
      </trkpt>
      <trkpt lat="43.46763" lon="6.42134">
        <ele>116</ele>
        <time>2025-01-08T15:33:19Z</time>
      </trkpt>
      <trkpt lat="43.46753" lon="6.42142">
        <ele>118</ele>
        <time>2025-01-08T15:33:27Z</time>
      </trkpt>
      <trkpt lat="43.4675" lon="6.42142">
        <ele>118</ele>
        <time>2025-01-08T15:33:29Z</time>
      </trkpt>
      <trkpt lat="43.46745" lon="6.42141">
        <ele>119</ele>
        <time>2025-01-08T15:33:33Z</time>
      </trkpt>
      <trkpt lat="43.46742" lon="6.4214">
        <ele>119</ele>
        <time>2025-01-08T15:33:35Z</time>
      </trkpt>
      <trkpt lat="43.46732" lon="6.42133">
        <ele>118</ele>
        <time>2025-01-08T15:33:43Z</time>
      </trkpt>
      <trkpt lat="43.46721" lon="6.42124">
        <ele>116</ele>
        <time>2025-01-08T15:33:53Z</time>
      </trkpt>
      <trkpt lat="43.46716" lon="6.42118">
        <ele>116</ele>
        <time>2025-01-08T15:33:57Z</time>
      </trkpt>
      <trkpt lat="43.46705" lon="6.42114">
        <ele>116</ele>
        <time>2025-01-08T15:34:07Z</time>
      </trkpt>
      <trkpt lat="43.46693" lon="6.42105">
        <ele>115</ele>
        <time>2025-01-08T15:34:17Z</time>
      </trkpt>
      <trkpt lat="43.4669" lon="6.42103">
        <ele>115</ele>
        <time>2025-01-08T15:34:19Z</time>
      </trkpt>
      <trkpt lat="43.46683" lon="6.42098">
        <ele>117</ele>
        <time>2025-01-08T15:34:25Z</time>
      </trkpt>
      <trkpt lat="43.46673" lon="6.42088">
        <ele>118</ele>
        <time>2025-01-08T15:34:35Z</time>
      </trkpt>
      <trkpt lat="43.4667" lon="6.42087">
        <ele>119</ele>
        <time>2025-01-08T15:34:37Z</time>
      </trkpt>
      <trkpt lat="43.46662" lon="6.42082">
        <ele>121</ele>
        <time>2025-01-08T15:34:43Z</time>
      </trkpt>
      <trkpt lat="43.46659" lon="6.4208">
        <ele>122</ele>
        <time>2025-01-08T15:34:47Z</time>
      </trkpt>
      <trkpt lat="43.46652" lon="6.42078">
        <ele>122</ele>
        <time>2025-01-08T15:34:53Z</time>
      </trkpt>
      <trkpt lat="43.4665" lon="6.42078">
        <ele>122</ele>
        <time>2025-01-08T15:34:55Z</time>
      </trkpt>
      <trkpt lat="43.46646" lon="6.42078">
        <ele>122</ele>
        <time>2025-01-08T15:34:57Z</time>
      </trkpt>
      <trkpt lat="43.46635" lon="6.42074">
        <ele>122</ele>
        <time>2025-01-08T15:35:05Z</time>
      </trkpt>
      <trkpt lat="43.46632" lon="6.42074">
        <ele>121</ele>
        <time>2025-01-08T15:35:07Z</time>
      </trkpt>
      <trkpt lat="43.46629" lon="6.42074">
        <ele>121</ele>
        <time>2025-01-08T15:35:09Z</time>
      </trkpt>
      <trkpt lat="43.46623" lon="6.42072">
        <ele>120</ele>
        <time>2025-01-08T15:35:13Z</time>
      </trkpt>
      <trkpt lat="43.4662" lon="6.42072">
        <ele>120</ele>
        <time>2025-01-08T15:35:15Z</time>
      </trkpt>
      <trkpt lat="43.46618" lon="6.42074">
        <ele>119</ele>
        <time>2025-01-08T15:35:17Z</time>
      </trkpt>
      <trkpt lat="43.46616" lon="6.42074">
        <ele>118</ele>
        <time>2025-01-08T15:35:21Z</time>
      </trkpt>
      <trkpt lat="43.46614" lon="6.42077">
        <ele>118</ele>
        <time>2025-01-08T15:35:25Z</time>
      </trkpt>
      <trkpt lat="43.46605" lon="6.42083">
        <ele>117</ele>
        <time>2025-01-08T15:35:49Z</time>
      </trkpt>
      <trkpt lat="43.46601" lon="6.42087">
        <ele>118</ele>
        <time>2025-01-08T15:36:01Z</time>
      </trkpt>
      <trkpt lat="43.46597" lon="6.42089">
        <ele>118</ele>
        <time>2025-01-08T15:36:07Z</time>
      </trkpt>
      <trkpt lat="43.46594" lon="6.42092">
        <ele>119</ele>
        <time>2025-01-08T15:36:11Z</time>
      </trkpt>
      <trkpt lat="43.46591" lon="6.42093">
        <ele>120</ele>
        <time>2025-01-08T15:36:15Z</time>
      </trkpt>
      <trkpt lat="43.46587" lon="6.42096">
        <ele>120</ele>
        <time>2025-01-08T15:36:19Z</time>
      </trkpt>
      <trkpt lat="43.46575" lon="6.42107">
        <ele>119</ele>
        <time>2025-01-08T15:36:31Z</time>
      </trkpt>
      <trkpt lat="43.46571" lon="6.42109">
        <ele>118</ele>
        <time>2025-01-08T15:36:35Z</time>
      </trkpt>
      <trkpt lat="43.46569" lon="6.4211">
        <ele>118</ele>
        <time>2025-01-08T15:36:37Z</time>
      </trkpt>
      <trkpt lat="43.46567" lon="6.42111">
        <ele>117</ele>
        <time>2025-01-08T15:36:39Z</time>
      </trkpt>
      <trkpt lat="43.46564" lon="6.42113">
        <ele>116</ele>
        <time>2025-01-08T15:36:41Z</time>
      </trkpt>
      <trkpt lat="43.46563" lon="6.42115">
        <ele>116</ele>
        <time>2025-01-08T15:36:43Z</time>
      </trkpt>
      <trkpt lat="43.46559" lon="6.4212">
        <ele>115</ele>
        <time>2025-01-08T15:36:49Z</time>
      </trkpt>
      <trkpt lat="43.46549" lon="6.42131">
        <ele>116</ele>
        <time>2025-01-08T15:36:59Z</time>
      </trkpt>
      <trkpt lat="43.46546" lon="6.42136">
        <ele>117</ele>
        <time>2025-01-08T15:37:03Z</time>
      </trkpt>
      <trkpt lat="43.46542" lon="6.4214">
        <ele>117</ele>
        <time>2025-01-08T15:37:07Z</time>
      </trkpt>
      <trkpt lat="43.46536" lon="6.42148">
        <ele>117</ele>
        <time>2025-01-08T15:37:13Z</time>
      </trkpt>
      <trkpt lat="43.46534" lon="6.42154">
        <ele>118</ele>
        <time>2025-01-08T15:37:17Z</time>
      </trkpt>
      <trkpt lat="43.46531" lon="6.42165">
        <ele>119</ele>
        <time>2025-01-08T15:37:23Z</time>
      </trkpt>
      <trkpt lat="43.4653" lon="6.42169">
        <ele>120</ele>
        <time>2025-01-08T15:37:25Z</time>
      </trkpt>
      <trkpt lat="43.46526" lon="6.42183">
        <ele>120</ele>
        <time>2025-01-08T15:37:33Z</time>
      </trkpt>
      <trkpt lat="43.46525" lon="6.4219">
        <ele>121</ele>
        <time>2025-01-08T15:37:37Z</time>
      </trkpt>
      <trkpt lat="43.46525" lon="6.42195">
        <ele>121</ele>
        <time>2025-01-08T15:37:41Z</time>
      </trkpt>
      <trkpt lat="43.46521" lon="6.42215">
        <ele>119</ele>
        <time>2025-01-08T15:37:53Z</time>
      </trkpt>
      <trkpt lat="43.46521" lon="6.4222">
        <ele>117</ele>
        <time>2025-01-08T15:37:57Z</time>
      </trkpt>
      <trkpt lat="43.4652" lon="6.42224">
        <ele>117</ele>
        <time>2025-01-08T15:37:59Z</time>
      </trkpt>
      <trkpt lat="43.46519" lon="6.42227">
        <ele>117</ele>
        <time>2025-01-08T15:38:01Z</time>
      </trkpt>
      <trkpt lat="43.46517" lon="6.42231">
        <ele>117</ele>
        <time>2025-01-08T15:38:03Z</time>
      </trkpt>
      <trkpt lat="43.46516" lon="6.42235">
        <ele>117</ele>
        <time>2025-01-08T15:38:05Z</time>
      </trkpt>
      <trkpt lat="43.46512" lon="6.42243">
        <ele>119</ele>
        <time>2025-01-08T15:38:11Z</time>
      </trkpt>
      <trkpt lat="43.46511" lon="6.42246">
        <ele>119</ele>
        <time>2025-01-08T15:38:13Z</time>
      </trkpt>
      <trkpt lat="43.46511" lon="6.42252">
        <ele>120</ele>
        <time>2025-01-08T15:38:19Z</time>
      </trkpt>
      <trkpt lat="43.46508" lon="6.42257">
        <ele>123</ele>
        <time>2025-01-08T15:38:25Z</time>
      </trkpt>
      <trkpt lat="43.46501" lon="6.42262">
        <ele>123</ele>
        <time>2025-01-08T15:38:31Z</time>
      </trkpt>
      <trkpt lat="43.46498" lon="6.42266">
        <ele>123</ele>
        <time>2025-01-08T15:38:35Z</time>
      </trkpt>
      <trkpt lat="43.46495" lon="6.42273">
        <ele>123</ele>
        <time>2025-01-08T15:38:39Z</time>
      </trkpt>
      <trkpt lat="43.46497" lon="6.4228">
        <ele>124</ele>
        <time>2025-01-08T15:38:45Z</time>
      </trkpt>
      <trkpt lat="43.46502" lon="6.42289">
        <ele>124</ele>
        <time>2025-01-08T15:38:51Z</time>
      </trkpt>
      <trkpt lat="43.46504" lon="6.42291">
        <ele>123</ele>
        <time>2025-01-08T15:38:53Z</time>
      </trkpt>
      <trkpt lat="43.46512" lon="6.42309">
        <ele>123</ele>
        <time>2025-01-08T15:39:05Z</time>
      </trkpt>
      <trkpt lat="43.46513" lon="6.42314">
        <ele>124</ele>
        <time>2025-01-08T15:39:09Z</time>
      </trkpt>
      <trkpt lat="43.46515" lon="6.42324">
        <ele>125</ele>
        <time>2025-01-08T15:39:15Z</time>
      </trkpt>
      <trkpt lat="43.46516" lon="6.42327">
        <ele>125</ele>
        <time>2025-01-08T15:39:17Z</time>
      </trkpt>
      <trkpt lat="43.46518" lon="6.42332">
        <ele>125</ele>
        <time>2025-01-08T15:39:21Z</time>
      </trkpt>
      <trkpt lat="43.4652" lon="6.42339">
        <ele>125</ele>
        <time>2025-01-08T15:39:25Z</time>
      </trkpt>
      <trkpt lat="43.46522" lon="6.42359">
        <ele>124</ele>
        <time>2025-01-08T15:39:37Z</time>
      </trkpt>
      <trkpt lat="43.46522" lon="6.42371">
        <ele>123</ele>
        <time>2025-01-08T15:39:43Z</time>
      </trkpt>
      <trkpt lat="43.46522" lon="6.42376">
        <ele>123</ele>
        <time>2025-01-08T15:39:47Z</time>
      </trkpt>
      <trkpt lat="43.46522" lon="6.42379">
        <ele>123</ele>
        <time>2025-01-08T15:39:49Z</time>
      </trkpt>
      <trkpt lat="43.4652" lon="6.42382">
        <ele>123</ele>
        <time>2025-01-08T15:39:51Z</time>
      </trkpt>
      <trkpt lat="43.4652" lon="6.42388">
        <ele>123</ele>
        <time>2025-01-08T15:39:53Z</time>
      </trkpt>
      <trkpt lat="43.46523" lon="6.424">
        <ele>124</ele>
        <time>2025-01-08T15:39:57Z</time>
      </trkpt>
      <trkpt lat="43.46523" lon="6.42407">
        <ele>126</ele>
        <time>2025-01-08T15:40:01Z</time>
      </trkpt>
      <trkpt lat="43.46524" lon="6.42412">
        <ele>127</ele>
        <time>2025-01-08T15:40:05Z</time>
      </trkpt>
      <trkpt lat="43.46525" lon="6.42415">
        <ele>127</ele>
        <time>2025-01-08T15:40:07Z</time>
      </trkpt>
      <trkpt lat="43.46524" lon="6.42422">
        <ele>127</ele>
        <time>2025-01-08T15:40:11Z</time>
      </trkpt>
      <trkpt lat="43.46524" lon="6.42434">
        <ele>126</ele>
        <time>2025-01-08T15:40:17Z</time>
      </trkpt>
      <trkpt lat="43.46524" lon="6.42437">
        <ele>126</ele>
        <time>2025-01-08T15:40:19Z</time>
      </trkpt>
      <trkpt lat="43.46525" lon="6.42444">
        <ele>125</ele>
        <time>2025-01-08T15:40:23Z</time>
      </trkpt>
      <trkpt lat="43.46526" lon="6.42447">
        <ele>125</ele>
        <time>2025-01-08T15:40:25Z</time>
      </trkpt>
      <trkpt lat="43.46526" lon="6.4245">
        <ele>124</ele>
        <time>2025-01-08T15:40:27Z</time>
      </trkpt>
      <trkpt lat="43.46526" lon="6.4246">
        <ele>123</ele>
        <time>2025-01-08T15:40:33Z</time>
      </trkpt>
      <trkpt lat="43.46524" lon="6.42478">
        <ele>122</ele>
        <time>2025-01-08T15:40:41Z</time>
      </trkpt>
      <trkpt lat="43.46523" lon="6.42482">
        <ele>122</ele>
        <time>2025-01-08T15:40:43Z</time>
      </trkpt>
      <trkpt lat="43.46521" lon="6.42484">
        <ele>122</ele>
        <time>2025-01-08T15:40:45Z</time>
      </trkpt>
      <trkpt lat="43.46519" lon="6.42485">
        <ele>121</ele>
        <time>2025-01-08T15:40:47Z</time>
      </trkpt>
      <trkpt lat="43.46517" lon="6.42486">
        <ele>121</ele>
        <time>2025-01-08T15:40:49Z</time>
      </trkpt>
      <trkpt lat="43.46514" lon="6.42485">
        <ele>121</ele>
        <time>2025-01-08T15:40:53Z</time>
      </trkpt>
      <trkpt lat="43.46512" lon="6.42483">
        <ele>122</ele>
        <time>2025-01-08T15:40:55Z</time>
      </trkpt>
      <trkpt lat="43.4651" lon="6.42481">
        <ele>121</ele>
        <time>2025-01-08T15:40:57Z</time>
      </trkpt>
      <trkpt lat="43.46509" lon="6.42478">
        <ele>121</ele>
        <time>2025-01-08T15:40:59Z</time>
      </trkpt>
      <trkpt lat="43.46508" lon="6.42476">
        <ele>121</ele>
        <time>2025-01-08T15:41:01Z</time>
      </trkpt>
      <trkpt lat="43.46507" lon="6.42473">
        <ele>121</ele>
        <time>2025-01-08T15:41:03Z</time>
      </trkpt>
      <trkpt lat="43.46507" lon="6.42468">
        <ele>120</ele>
        <time>2025-01-08T15:41:05Z</time>
      </trkpt>
      <trkpt lat="43.46505" lon="6.42463">
        <ele>120</ele>
        <time>2025-01-08T15:41:07Z</time>
      </trkpt>
      <trkpt lat="43.46503" lon="6.42454">
        <ele>124</ele>
        <time>2025-01-08T15:41:09Z</time>
      </trkpt>
      <trkpt lat="43.46502" lon="6.4245">
        <ele>126</ele>
        <time>2025-01-08T15:41:11Z</time>
      </trkpt>
      <trkpt lat="43.46496" lon="6.42438">
        <ele>128</ele>
        <time>2025-01-08T15:41:21Z</time>
      </trkpt>
      <trkpt lat="43.46495" lon="6.42435">
        <ele>127</ele>
        <time>2025-01-08T15:41:23Z</time>
      </trkpt>
      <trkpt lat="43.46492" lon="6.42428">
        <ele>126</ele>
        <time>2025-01-08T15:41:27Z</time>
      </trkpt>
      <trkpt lat="43.4648" lon="6.42408">
        <ele>123</ele>
        <time>2025-01-08T15:41:43Z</time>
      </trkpt>
      <trkpt lat="43.46477" lon="6.42405">
        <ele>124</ele>
        <time>2025-01-08T15:41:45Z</time>
      </trkpt>
      <trkpt lat="43.46475" lon="6.42402">
        <ele>125</ele>
        <time>2025-01-08T15:41:47Z</time>
      </trkpt>
      <trkpt lat="43.46467" lon="6.42394">
        <ele>125</ele>
        <time>2025-01-08T15:41:53Z</time>
      </trkpt>
      <trkpt lat="43.46462" lon="6.42388">
        <ele>125</ele>
        <time>2025-01-08T15:41:57Z</time>
      </trkpt>
      <trkpt lat="43.46456" lon="6.42385">
        <ele>125</ele>
        <time>2025-01-08T15:42:03Z</time>
      </trkpt>
      <trkpt lat="43.46453" lon="6.42384">
        <ele>125</ele>
        <time>2025-01-08T15:42:05Z</time>
      </trkpt>
      <trkpt lat="43.46449" lon="6.42381">
        <ele>124</ele>
        <time>2025-01-08T15:42:09Z</time>
      </trkpt>
      <trkpt lat="43.46447" lon="6.42378">
        <ele>124</ele>
        <time>2025-01-08T15:42:11Z</time>
      </trkpt>
      <trkpt lat="43.46428" lon="6.42362">
        <ele>125</ele>
        <time>2025-01-08T15:42:27Z</time>
      </trkpt>
      <trkpt lat="43.46412" lon="6.42354">
        <ele>127</ele>
        <time>2025-01-08T15:42:39Z</time>
      </trkpt>
      <trkpt lat="43.46409" lon="6.42354">
        <ele>127</ele>
        <time>2025-01-08T15:42:41Z</time>
      </trkpt>
      <trkpt lat="43.46401" lon="6.42351">
        <ele>128</ele>
        <time>2025-01-08T15:42:47Z</time>
      </trkpt>
      <trkpt lat="43.46389" lon="6.42355">
        <ele>127</ele>
        <time>2025-01-08T15:42:57Z</time>
      </trkpt>
      <trkpt lat="43.46381" lon="6.42358">
        <ele>126</ele>
        <time>2025-01-08T15:43:03Z</time>
      </trkpt>
      <trkpt lat="43.46376" lon="6.4236">
        <ele>124</ele>
        <time>2025-01-08T15:43:09Z</time>
      </trkpt>
      <trkpt lat="43.46369" lon="6.42365">
        <ele>123</ele>
        <time>2025-01-08T15:43:15Z</time>
      </trkpt>
      <trkpt lat="43.46366" lon="6.42367">
        <ele>124</ele>
        <time>2025-01-08T15:43:17Z</time>
      </trkpt>
      <trkpt lat="43.46357" lon="6.42376">
        <ele>126</ele>
        <time>2025-01-08T15:43:25Z</time>
      </trkpt>
      <trkpt lat="43.46344" lon="6.42387">
        <ele>129</ele>
        <time>2025-01-08T15:43:35Z</time>
      </trkpt>
      <trkpt lat="43.46342" lon="6.42389">
        <ele>130</ele>
        <time>2025-01-08T15:43:37Z</time>
      </trkpt>
      <trkpt lat="43.4634" lon="6.42391">
        <ele>130</ele>
        <time>2025-01-08T15:43:39Z</time>
      </trkpt>
      <trkpt lat="43.4633" lon="6.42398">
        <ele>130</ele>
        <time>2025-01-08T15:43:47Z</time>
      </trkpt>
      <trkpt lat="43.46329" lon="6.424">
        <ele>129</ele>
        <time>2025-01-08T15:43:49Z</time>
      </trkpt>
      <trkpt lat="43.46322" lon="6.42409">
        <ele>129</ele>
        <time>2025-01-08T15:43:55Z</time>
      </trkpt>
      <trkpt lat="43.46322" lon="6.42413">
        <ele>129</ele>
        <time>2025-01-08T15:43:57Z</time>
      </trkpt>
      <trkpt lat="43.46318" lon="6.42418">
        <ele>130</ele>
        <time>2025-01-08T15:44:01Z</time>
      </trkpt>
      <trkpt lat="43.46316" lon="6.42421">
        <ele>131</ele>
        <time>2025-01-08T15:44:03Z</time>
      </trkpt>
      <trkpt lat="43.46309" lon="6.42428">
        <ele>131</ele>
        <time>2025-01-08T15:44:09Z</time>
      </trkpt>
      <trkpt lat="43.46308" lon="6.42431">
        <ele>132</ele>
        <time>2025-01-08T15:44:11Z</time>
      </trkpt>
      <trkpt lat="43.46306" lon="6.42434">
        <ele>132</ele>
        <time>2025-01-08T15:44:13Z</time>
      </trkpt>
      <trkpt lat="43.46303" lon="6.42441">
        <ele>133</ele>
        <time>2025-01-08T15:44:17Z</time>
      </trkpt>
      <trkpt lat="43.46301" lon="6.42444">
        <ele>133</ele>
        <time>2025-01-08T15:44:19Z</time>
      </trkpt>
      <trkpt lat="43.463" lon="6.42447">
        <ele>133</ele>
        <time>2025-01-08T15:44:21Z</time>
      </trkpt>
      <trkpt lat="43.46295" lon="6.4245">
        <ele>134</ele>
        <time>2025-01-08T15:44:25Z</time>
      </trkpt>
      <trkpt lat="43.4629" lon="6.42455">
        <ele>134</ele>
        <time>2025-01-08T15:44:29Z</time>
      </trkpt>
      <trkpt lat="43.46284" lon="6.4247">
        <ele>135</ele>
        <time>2025-01-08T15:44:39Z</time>
      </trkpt>
      <trkpt lat="43.46275" lon="6.42481">
        <ele>135</ele>
        <time>2025-01-08T15:44:47Z</time>
      </trkpt>
      <trkpt lat="43.46267" lon="6.42494">
        <ele>132</ele>
        <time>2025-01-08T15:44:57Z</time>
      </trkpt>
      <trkpt lat="43.46263" lon="6.42497">
        <ele>132</ele>
        <time>2025-01-08T15:45:01Z</time>
      </trkpt>
      <trkpt lat="43.4626" lon="6.42502">
        <ele>131</ele>
        <time>2025-01-08T15:45:05Z</time>
      </trkpt>
      <trkpt lat="43.46255" lon="6.4251">
        <ele>133</ele>
        <time>2025-01-08T15:45:11Z</time>
      </trkpt>
      <trkpt lat="43.46253" lon="6.42514">
        <ele>134</ele>
        <time>2025-01-08T15:45:13Z</time>
      </trkpt>
      <trkpt lat="43.46251" lon="6.42521">
        <ele>135</ele>
        <time>2025-01-08T15:45:17Z</time>
      </trkpt>
      <trkpt lat="43.46249" lon="6.42525">
        <ele>135</ele>
        <time>2025-01-08T15:45:19Z</time>
      </trkpt>
      <trkpt lat="43.4624" lon="6.4256">
        <ele>135</ele>
        <time>2025-01-08T15:45:39Z</time>
      </trkpt>
      <trkpt lat="43.46239" lon="6.42566">
        <ele>135</ele>
        <time>2025-01-08T15:45:43Z</time>
      </trkpt>
      <trkpt lat="43.46238" lon="6.4257">
        <ele>135</ele>
        <time>2025-01-08T15:45:45Z</time>
      </trkpt>
      <trkpt lat="43.46237" lon="6.42573">
        <ele>135</ele>
        <time>2025-01-08T15:45:47Z</time>
      </trkpt>
      <trkpt lat="43.46233" lon="6.42588">
        <ele>134</ele>
        <time>2025-01-08T15:45:55Z</time>
      </trkpt>
      <trkpt lat="43.46232" lon="6.42596">
        <ele>135</ele>
        <time>2025-01-08T15:45:59Z</time>
      </trkpt>
      <trkpt lat="43.46231" lon="6.42598">
        <ele>135</ele>
        <time>2025-01-08T15:46:01Z</time>
      </trkpt>
      <trkpt lat="43.46231" lon="6.42602">
        <ele>135</ele>
        <time>2025-01-08T15:46:03Z</time>
      </trkpt>
      <trkpt lat="43.46231" lon="6.42605">
        <ele>135</ele>
        <time>2025-01-08T15:46:05Z</time>
      </trkpt>
      <trkpt lat="43.4623" lon="6.42609">
        <ele>136</ele>
        <time>2025-01-08T15:46:07Z</time>
      </trkpt>
      <trkpt lat="43.46229" lon="6.4262">
        <ele>136</ele>
        <time>2025-01-08T15:46:13Z</time>
      </trkpt>
      <trkpt lat="43.4623" lon="6.42627">
        <ele>136</ele>
        <time>2025-01-08T15:46:17Z</time>
      </trkpt>
      <trkpt lat="43.46227" lon="6.42641">
        <ele>136</ele>
        <time>2025-01-08T15:46:25Z</time>
      </trkpt>
      <trkpt lat="43.46226" lon="6.4265">
        <ele>136</ele>
        <time>2025-01-08T15:46:29Z</time>
      </trkpt>
      <trkpt lat="43.46224" lon="6.42656">
        <ele>136</ele>
        <time>2025-01-08T15:46:33Z</time>
      </trkpt>
      <trkpt lat="43.46222" lon="6.42663">
        <ele>137</ele>
        <time>2025-01-08T15:46:39Z</time>
      </trkpt>
      <trkpt lat="43.46221" lon="6.42671">
        <ele>137</ele>
        <time>2025-01-08T15:46:43Z</time>
      </trkpt>
      <trkpt lat="43.46221" lon="6.42679">
        <ele>138</ele>
        <time>2025-01-08T15:46:47Z</time>
      </trkpt>
      <trkpt lat="43.46221" lon="6.42688">
        <ele>141</ele>
        <time>2025-01-08T15:46:51Z</time>
      </trkpt>
      <trkpt lat="43.46218" lon="6.42695">
        <ele>144</ele>
        <time>2025-01-08T15:46:55Z</time>
      </trkpt>
      <trkpt lat="43.46216" lon="6.42698">
        <ele>145</ele>
        <time>2025-01-08T15:46:57Z</time>
      </trkpt>
      <trkpt lat="43.46211" lon="6.42716">
        <ele>143</ele>
        <time>2025-01-08T15:47:09Z</time>
      </trkpt>
      <trkpt lat="43.46206" lon="6.42747">
        <ele>143</ele>
        <time>2025-01-08T15:47:27Z</time>
      </trkpt>
      <trkpt lat="43.46206" lon="6.42753">
        <ele>144</ele>
        <time>2025-01-08T15:47:31Z</time>
      </trkpt>
      <trkpt lat="43.46208" lon="6.42775">
        <ele>142</ele>
        <time>2025-01-08T15:47:41Z</time>
      </trkpt>
      <trkpt lat="43.46204" lon="6.42792">
        <ele>138</ele>
        <time>2025-01-08T15:47:53Z</time>
      </trkpt>
      <trkpt lat="43.46203" lon="6.428">
        <ele>137</ele>
        <time>2025-01-08T15:47:57Z</time>
      </trkpt>
      <trkpt lat="43.46203" lon="6.42803">
        <ele>137</ele>
        <time>2025-01-08T15:47:59Z</time>
      </trkpt>
      <trkpt lat="43.46204" lon="6.4281">
        <ele>136</ele>
        <time>2025-01-08T15:48:03Z</time>
      </trkpt>
      <trkpt lat="43.46199" lon="6.42834">
        <ele>136</ele>
        <time>2025-01-08T15:48:17Z</time>
      </trkpt>
      <trkpt lat="43.46197" lon="6.42837">
        <ele>137</ele>
        <time>2025-01-08T15:48:19Z</time>
      </trkpt>
      <trkpt lat="43.46188" lon="6.42862">
        <ele>141</ele>
        <time>2025-01-08T15:48:33Z</time>
      </trkpt>
      <trkpt lat="43.46186" lon="6.42868">
        <ele>142</ele>
        <time>2025-01-08T15:48:37Z</time>
      </trkpt>
      <trkpt lat="43.46185" lon="6.42871">
        <ele>142</ele>
        <time>2025-01-08T15:48:39Z</time>
      </trkpt>
      <trkpt lat="43.46183" lon="6.42873">
        <ele>142</ele>
        <time>2025-01-08T15:48:41Z</time>
      </trkpt>
      <trkpt lat="43.46181" lon="6.42875">
        <ele>142</ele>
        <time>2025-01-08T15:48:43Z</time>
      </trkpt>
      <trkpt lat="43.46177" lon="6.42882">
        <ele>141</ele>
        <time>2025-01-08T15:48:47Z</time>
      </trkpt>
      <trkpt lat="43.46176" lon="6.42885">
        <ele>140</ele>
        <time>2025-01-08T15:48:49Z</time>
      </trkpt>
      <trkpt lat="43.46171" lon="6.42886">
        <ele>139</ele>
        <time>2025-01-08T15:48:53Z</time>
      </trkpt>
      <trkpt lat="43.46169" lon="6.42887">
        <ele>139</ele>
        <time>2025-01-08T15:48:55Z</time>
      </trkpt>
      <trkpt lat="43.46167" lon="6.42886">
        <ele>140</ele>
        <time>2025-01-08T15:48:57Z</time>
      </trkpt>
      <trkpt lat="43.46165" lon="6.42887">
        <ele>140</ele>
        <time>2025-01-08T15:48:59Z</time>
      </trkpt>
      <trkpt lat="43.46163" lon="6.42888">
        <ele>140</ele>
        <time>2025-01-08T15:49:01Z</time>
      </trkpt>
      <trkpt lat="43.46159" lon="6.42864">
        <ele>142</ele>
        <time>2025-01-08T15:49:17Z</time>
      </trkpt>
      <trkpt lat="43.46156" lon="6.42858">
        <ele>143</ele>
        <time>2025-01-08T15:49:21Z</time>
      </trkpt>
      <trkpt lat="43.46155" lon="6.4285">
        <ele>143</ele>
        <time>2025-01-08T15:49:25Z</time>
      </trkpt>
      <trkpt lat="43.46151" lon="6.42837">
        <ele>141</ele>
        <time>2025-01-08T15:49:33Z</time>
      </trkpt>
      <trkpt lat="43.46152" lon="6.42834">
        <ele>141</ele>
        <time>2025-01-08T15:49:35Z</time>
      </trkpt>
      <trkpt lat="43.4615" lon="6.42832">
        <ele>142</ele>
        <time>2025-01-08T15:49:37Z</time>
      </trkpt>
      <trkpt lat="43.46146" lon="6.42826">
        <ele>141</ele>
        <time>2025-01-08T15:49:41Z</time>
      </trkpt>
      <trkpt lat="43.4614" lon="6.42818">
        <ele>139</ele>
        <time>2025-01-08T15:49:47Z</time>
      </trkpt>
      <trkpt lat="43.46136" lon="6.42814">
        <ele>140</ele>
        <time>2025-01-08T15:49:51Z</time>
      </trkpt>
      <trkpt lat="43.4613" lon="6.428">
        <ele>141</ele>
        <time>2025-01-08T15:49:59Z</time>
      </trkpt>
      <trkpt lat="43.46128" lon="6.42798">
        <ele>141</ele>
        <time>2025-01-08T15:50:01Z</time>
      </trkpt>
      <trkpt lat="43.46126" lon="6.42795">
        <ele>140</ele>
        <time>2025-01-08T15:50:03Z</time>
      </trkpt>
      <trkpt lat="43.4612" lon="6.42788">
        <ele>141</ele>
        <time>2025-01-08T15:50:09Z</time>
      </trkpt>
      <trkpt lat="43.46118" lon="6.42774">
        <ele>142</ele>
        <time>2025-01-08T15:50:17Z</time>
      </trkpt>
      <trkpt lat="43.46118" lon="6.4277">
        <ele>142</ele>
        <time>2025-01-08T15:50:19Z</time>
      </trkpt>
      <trkpt lat="43.46119" lon="6.42764">
        <ele>144</ele>
        <time>2025-01-08T15:50:23Z</time>
      </trkpt>
      <trkpt lat="43.46119" lon="6.42761">
        <ele>145</ele>
        <time>2025-01-08T15:50:25Z</time>
      </trkpt>
      <trkpt lat="43.4612" lon="6.42756">
        <ele>146</ele>
        <time>2025-01-08T15:50:29Z</time>
      </trkpt>
      <trkpt lat="43.4612" lon="6.42745">
        <ele>148</ele>
        <time>2025-01-08T15:50:35Z</time>
      </trkpt>
      <trkpt lat="43.46121" lon="6.42741">
        <ele>148</ele>
        <time>2025-01-08T15:50:37Z</time>
      </trkpt>
      <trkpt lat="43.46121" lon="6.42736">
        <ele>149</ele>
        <time>2025-01-08T15:50:39Z</time>
      </trkpt>
      <trkpt lat="43.46121" lon="6.42719">
        <ele>153</ele>
        <time>2025-01-08T15:50:47Z</time>
      </trkpt>
      <trkpt lat="43.46122" lon="6.42711">
        <ele>152</ele>
        <time>2025-01-08T15:50:53Z</time>
      </trkpt>
      <trkpt lat="43.46122" lon="6.42708">
        <ele>152</ele>
        <time>2025-01-08T15:50:55Z</time>
      </trkpt>
      <trkpt lat="43.46122" lon="6.42705">
        <ele>152</ele>
        <time>2025-01-08T15:50:57Z</time>
      </trkpt>
      <trkpt lat="43.4612" lon="6.42696">
        <ele>150</ele>
        <time>2025-01-08T15:51:01Z</time>
      </trkpt>
      <trkpt lat="43.46116" lon="6.42678">
        <ele>147</ele>
        <time>2025-01-08T15:51:09Z</time>
      </trkpt>
      <trkpt lat="43.46115" lon="6.42672">
        <ele>146</ele>
        <time>2025-01-08T15:51:13Z</time>
      </trkpt>
      <trkpt lat="43.46114" lon="6.42668">
        <ele>147</ele>
        <time>2025-01-08T15:51:15Z</time>
      </trkpt>
      <trkpt lat="43.46113" lon="6.42642">
        <ele>150</ele>
        <time>2025-01-08T15:51:27Z</time>
      </trkpt>
      <trkpt lat="43.46112" lon="6.4264">
        <ele>150</ele>
        <time>2025-01-08T15:51:29Z</time>
      </trkpt>
      <trkpt lat="43.46112" lon="6.42635">
        <ele>150</ele>
        <time>2025-01-08T15:51:31Z</time>
      </trkpt>
      <trkpt lat="43.46112" lon="6.42628">
        <ele>150</ele>
        <time>2025-01-08T15:51:35Z</time>
      </trkpt>
      <trkpt lat="43.4611" lon="6.42621">
        <ele>150</ele>
        <time>2025-01-08T15:51:39Z</time>
      </trkpt>
      <trkpt lat="43.46105" lon="6.42608">
        <ele>149</ele>
        <time>2025-01-08T15:51:47Z</time>
      </trkpt>
      <trkpt lat="43.46103" lon="6.42606">
        <ele>149</ele>
        <time>2025-01-08T15:51:49Z</time>
      </trkpt>
      <trkpt lat="43.46102" lon="6.42604">
        <ele>149</ele>
        <time>2025-01-08T15:51:51Z</time>
      </trkpt>
      <trkpt lat="43.46098" lon="6.426">
        <ele>149</ele>
        <time>2025-01-08T15:51:55Z</time>
      </trkpt>
      <trkpt lat="43.46097" lon="6.42596">
        <ele>149</ele>
        <time>2025-01-08T15:51:57Z</time>
      </trkpt>
      <trkpt lat="43.46096" lon="6.42594">
        <ele>149</ele>
        <time>2025-01-08T15:51:59Z</time>
      </trkpt>
      <trkpt lat="43.46092" lon="6.42587">
        <ele>149</ele>
        <time>2025-01-08T15:52:03Z</time>
      </trkpt>
      <trkpt lat="43.46087" lon="6.42578">
        <ele>149</ele>
        <time>2025-01-08T15:52:09Z</time>
      </trkpt>
      <trkpt lat="43.46084" lon="6.42572">
        <ele>148</ele>
        <time>2025-01-08T15:52:13Z</time>
      </trkpt>
      <trkpt lat="43.46081" lon="6.42567">
        <ele>148</ele>
        <time>2025-01-08T15:52:17Z</time>
      </trkpt>
      <trkpt lat="43.46078" lon="6.42563">
        <ele>148</ele>
        <time>2025-01-08T15:52:19Z</time>
      </trkpt>
      <trkpt lat="43.46063" lon="6.42554">
        <ele>149</ele>
        <time>2025-01-08T15:52:31Z</time>
      </trkpt>
      <trkpt lat="43.46061" lon="6.42554">
        <ele>148</ele>
        <time>2025-01-08T15:52:33Z</time>
      </trkpt>
      <trkpt lat="43.46049" lon="6.42556">
        <ele>145</ele>
        <time>2025-01-08T15:52:45Z</time>
      </trkpt>
      <trkpt lat="43.46047" lon="6.42556">
        <ele>146</ele>
        <time>2025-01-08T15:52:47Z</time>
      </trkpt>
      <trkpt lat="43.46044" lon="6.42557">
        <ele>146</ele>
        <time>2025-01-08T15:52:49Z</time>
      </trkpt>
      <trkpt lat="43.46028" lon="6.42555">
        <ele>146</ele>
        <time>2025-01-08T15:53:01Z</time>
      </trkpt>
      <trkpt lat="43.46014" lon="6.42559">
        <ele>147</ele>
        <time>2025-01-08T15:53:11Z</time>
      </trkpt>
      <trkpt lat="43.46011" lon="6.4256">
        <ele>147</ele>
        <time>2025-01-08T15:53:13Z</time>
      </trkpt>
      <trkpt lat="43.46009" lon="6.4256">
        <ele>147</ele>
        <time>2025-01-08T15:53:15Z</time>
      </trkpt>
      <trkpt lat="43.46006" lon="6.42561">
        <ele>148</ele>
        <time>2025-01-08T15:53:17Z</time>
      </trkpt>
      <trkpt lat="43.46001" lon="6.42563">
        <ele>147</ele>
        <time>2025-01-08T15:53:21Z</time>
      </trkpt>
      <trkpt lat="43.45996" lon="6.42568">
        <ele>148</ele>
        <time>2025-01-08T15:53:25Z</time>
      </trkpt>
      <trkpt lat="43.45993" lon="6.42569">
        <ele>148</ele>
        <time>2025-01-08T15:53:27Z</time>
      </trkpt>
      <trkpt lat="43.45992" lon="6.42569">
        <ele>147</ele>
        <time>2025-01-08T15:53:29Z</time>
      </trkpt>
      <trkpt lat="43.45984" lon="6.4257">
        <ele>146</ele>
        <time>2025-01-08T15:53:35Z</time>
      </trkpt>
      <trkpt lat="43.45976" lon="6.42571">
        <ele>143</ele>
        <time>2025-01-08T15:53:41Z</time>
      </trkpt>
      <trkpt lat="43.4597" lon="6.42573">
        <ele>141</ele>
        <time>2025-01-08T15:53:45Z</time>
      </trkpt>
      <trkpt lat="43.4596" lon="6.42576">
        <ele>139</ele>
        <time>2025-01-08T15:53:51Z</time>
      </trkpt>
      <trkpt lat="43.45957" lon="6.42576">
        <ele>139</ele>
        <time>2025-01-08T15:53:53Z</time>
      </trkpt>
      <trkpt lat="43.45955" lon="6.42576">
        <ele>139</ele>
        <time>2025-01-08T15:53:55Z</time>
      </trkpt>
      <trkpt lat="43.45953" lon="6.42575">
        <ele>139</ele>
        <time>2025-01-08T15:53:57Z</time>
      </trkpt>
      <trkpt lat="43.45951" lon="6.42575">
        <ele>139</ele>
        <time>2025-01-08T15:53:59Z</time>
      </trkpt>
      <trkpt lat="43.45949" lon="6.42576">
        <ele>138</ele>
        <time>2025-01-08T15:54:01Z</time>
      </trkpt>
      <trkpt lat="43.45944" lon="6.42578">
        <ele>138</ele>
        <time>2025-01-08T15:54:05Z</time>
      </trkpt>
      <trkpt lat="43.45941" lon="6.42577">
        <ele>137</ele>
        <time>2025-01-08T15:54:07Z</time>
      </trkpt>
      <trkpt lat="43.45927" lon="6.4258">
        <ele>137</ele>
        <time>2025-01-08T15:54:17Z</time>
      </trkpt>
      <trkpt lat="43.45924" lon="6.42581">
        <ele>137</ele>
        <time>2025-01-08T15:54:19Z</time>
      </trkpt>
      <trkpt lat="43.45914" lon="6.42586">
        <ele>138</ele>
        <time>2025-01-08T15:54:27Z</time>
      </trkpt>
      <trkpt lat="43.4591" lon="6.42587">
        <ele>140</ele>
        <time>2025-01-08T15:54:29Z</time>
      </trkpt>
      <trkpt lat="43.4589" lon="6.42588">
        <ele>145</ele>
        <time>2025-01-08T15:54:45Z</time>
      </trkpt>
      <trkpt lat="43.45887" lon="6.42588">
        <ele>145</ele>
        <time>2025-01-08T15:54:47Z</time>
      </trkpt>
      <trkpt lat="43.45883" lon="6.42588">
        <ele>146</ele>
        <time>2025-01-08T15:54:51Z</time>
      </trkpt>
      <trkpt lat="43.4588" lon="6.42589">
        <ele>147</ele>
        <time>2025-01-08T15:54:53Z</time>
      </trkpt>
      <trkpt lat="43.45877" lon="6.4259">
        <ele>147</ele>
        <time>2025-01-08T15:54:55Z</time>
      </trkpt>
      <trkpt lat="43.45874" lon="6.42591">
        <ele>148</ele>
        <time>2025-01-08T15:54:57Z</time>
      </trkpt>
      <trkpt lat="43.45861" lon="6.42599">
        <ele>150</ele>
        <time>2025-01-08T15:55:07Z</time>
      </trkpt>
      <trkpt lat="43.45856" lon="6.42602">
        <ele>150</ele>
        <time>2025-01-08T15:55:11Z</time>
      </trkpt>
      <trkpt lat="43.45853" lon="6.42603">
        <ele>150</ele>
        <time>2025-01-08T15:55:13Z</time>
      </trkpt>
      <trkpt lat="43.4585" lon="6.42604">
        <ele>150</ele>
        <time>2025-01-08T15:55:15Z</time>
      </trkpt>
      <trkpt lat="43.45848" lon="6.42605">
        <ele>149</ele>
        <time>2025-01-08T15:55:17Z</time>
      </trkpt>
      <trkpt lat="43.45845" lon="6.42608">
        <ele>149</ele>
        <time>2025-01-08T15:55:21Z</time>
      </trkpt>
      <trkpt lat="43.45843" lon="6.42608">
        <ele>148</ele>
        <time>2025-01-08T15:55:23Z</time>
      </trkpt>
      <trkpt lat="43.45841" lon="6.4261">
        <ele>147</ele>
        <time>2025-01-08T15:55:25Z</time>
      </trkpt>
      <trkpt lat="43.45845" lon="6.4261">
        <ele>143</ele>
        <time>2025-01-08T15:55:35Z</time>
      </trkpt>
      <trkpt lat="43.45848" lon="6.4261">
        <ele>142</ele>
        <time>2025-01-08T15:55:39Z</time>
      </trkpt>
      <trkpt lat="43.45854" lon="6.42604">
        <ele>143</ele>
        <time>2025-01-08T15:55:49Z</time>
      </trkpt>
      <trkpt lat="43.45856" lon="6.42603">
        <ele>145</ele>
        <time>2025-01-08T15:55:53Z</time>
      </trkpt>
      <trkpt lat="43.45857" lon="6.426">
        <ele>149</ele>
        <time>2025-01-08T15:57:17Z</time>
      </trkpt>
      <trkpt lat="43.45854" lon="6.42601">
        <ele>150</ele>
        <time>2025-01-08T15:58:39Z</time>
      </trkpt>
      <trkpt lat="43.45852" lon="6.42603">
        <ele>150</ele>
        <time>2025-01-08T15:58:43Z</time>
      </trkpt>
      <trkpt lat="43.45849" lon="6.42605">
        <ele>149</ele>
        <time>2025-01-08T15:58:45Z</time>
      </trkpt>
      <trkpt lat="43.45846" lon="6.42608">
        <ele>148</ele>
        <time>2025-01-08T15:58:49Z</time>
      </trkpt>
      <trkpt lat="43.45833" lon="6.42621">
        <ele>148</ele>
        <time>2025-01-08T15:59:01Z</time>
      </trkpt>
      <trkpt lat="43.45829" lon="6.42624">
        <ele>147</ele>
        <time>2025-01-08T15:59:05Z</time>
      </trkpt>
      <trkpt lat="43.45825" lon="6.42633">
        <ele>147</ele>
        <time>2025-01-08T15:59:11Z</time>
      </trkpt>
      <trkpt lat="43.45823" lon="6.42635">
        <ele>147</ele>
        <time>2025-01-08T15:59:13Z</time>
      </trkpt>
      <trkpt lat="43.45821" lon="6.4264">
        <ele>148</ele>
        <time>2025-01-08T15:59:17Z</time>
      </trkpt>
      <trkpt lat="43.4582" lon="6.42647">
        <ele>148</ele>
        <time>2025-01-08T15:59:21Z</time>
      </trkpt>
      <trkpt lat="43.45814" lon="6.42666">
        <ele>149</ele>
        <time>2025-01-08T15:59:31Z</time>
      </trkpt>
      <trkpt lat="43.45812" lon="6.42669">
        <ele>149</ele>
        <time>2025-01-08T15:59:33Z</time>
      </trkpt>
      <trkpt lat="43.45801" lon="6.42699">
        <ele>149</ele>
        <time>2025-01-08T15:59:51Z</time>
      </trkpt>
      <trkpt lat="43.45795" lon="6.42712">
        <ele>148</ele>
        <time>2025-01-08T15:59:59Z</time>
      </trkpt>
      <trkpt lat="43.4579" lon="6.42721">
        <ele>147</ele>
        <time>2025-01-08T16:00:05Z</time>
      </trkpt>
      <trkpt lat="43.45789" lon="6.42724">
        <ele>146</ele>
        <time>2025-01-08T16:00:07Z</time>
      </trkpt>
      <trkpt lat="43.45783" lon="6.42733">
        <ele>144</ele>
        <time>2025-01-08T16:00:13Z</time>
      </trkpt>
      <trkpt lat="43.45781" lon="6.42736">
        <ele>144</ele>
        <time>2025-01-08T16:00:15Z</time>
      </trkpt>
      <trkpt lat="43.45779" lon="6.42739">
        <ele>143</ele>
        <time>2025-01-08T16:00:17Z</time>
      </trkpt>
      <trkpt lat="43.45778" lon="6.42742">
        <ele>143</ele>
        <time>2025-01-08T16:00:19Z</time>
      </trkpt>
      <trkpt lat="43.45777" lon="6.42746">
        <ele>143</ele>
        <time>2025-01-08T16:00:21Z</time>
      </trkpt>
      <trkpt lat="43.45777" lon="6.42749">
        <ele>146</ele>
        <time>2025-01-08T16:00:39Z</time>
      </trkpt>
      <trkpt lat="43.45766" lon="6.42786">
        <ele>144</ele>
        <time>2025-01-08T16:00:59Z</time>
      </trkpt>
      <trkpt lat="43.45765" lon="6.42789">
        <ele>144</ele>
        <time>2025-01-08T16:01:03Z</time>
      </trkpt>
      <trkpt lat="43.45763" lon="6.4279">
        <ele>144</ele>
        <time>2025-01-08T16:01:07Z</time>
      </trkpt>
      <trkpt lat="43.45761" lon="6.4279">
        <ele>144</ele>
        <time>2025-01-08T16:01:17Z</time>
      </trkpt>
      <trkpt lat="43.4576" lon="6.42792">
        <ele>143</ele>
        <time>2025-01-08T16:01:19Z</time>
      </trkpt>
      <trkpt lat="43.45758" lon="6.42793">
        <ele>143</ele>
        <time>2025-01-08T16:01:21Z</time>
      </trkpt>
      <trkpt lat="43.45756" lon="6.42793">
        <ele>142</ele>
        <time>2025-01-08T16:01:23Z</time>
      </trkpt>
      <trkpt lat="43.45752" lon="6.42795">
        <ele>140</ele>
        <time>2025-01-08T16:01:29Z</time>
      </trkpt>
      <trkpt lat="43.4575" lon="6.42796">
        <ele>140</ele>
        <time>2025-01-08T16:01:31Z</time>
      </trkpt>
      <trkpt lat="43.45748" lon="6.42797">
        <ele>140</ele>
        <time>2025-01-08T16:01:35Z</time>
      </trkpt>
      <trkpt lat="43.45746" lon="6.42796">
        <ele>139</ele>
        <time>2025-01-08T16:01:37Z</time>
      </trkpt>
      <trkpt lat="43.45745" lon="6.42796">
        <ele>139</ele>
        <time>2025-01-08T16:01:39Z</time>
      </trkpt>
      <trkpt lat="43.45743" lon="6.42796">
        <ele>138</ele>
        <time>2025-01-08T16:01:41Z</time>
      </trkpt>
      <trkpt lat="43.45734" lon="6.42799">
        <ele>137</ele>
        <time>2025-01-08T16:01:49Z</time>
      </trkpt>
      <trkpt lat="43.45732" lon="6.42801">
        <ele>137</ele>
        <time>2025-01-08T16:01:51Z</time>
      </trkpt>
      <trkpt lat="43.45727" lon="6.428">
        <ele>134</ele>
        <time>2025-01-08T16:01:55Z</time>
      </trkpt>
      <trkpt lat="43.45724" lon="6.428">
        <ele>134</ele>
        <time>2025-01-08T16:01:57Z</time>
      </trkpt>
      <trkpt lat="43.45722" lon="6.428">
        <ele>132</ele>
        <time>2025-01-08T16:01:59Z</time>
      </trkpt>
      <trkpt lat="43.45719" lon="6.42799">
        <ele>132</ele>
        <time>2025-01-08T16:02:01Z</time>
      </trkpt>
      <trkpt lat="43.45718" lon="6.42797">
        <ele>130</ele>
        <time>2025-01-08T16:02:03Z</time>
      </trkpt>
      <trkpt lat="43.45716" lon="6.42796">
        <ele>129</ele>
        <time>2025-01-08T16:02:05Z</time>
      </trkpt>
      <trkpt lat="43.45714" lon="6.42795">
        <ele>127</ele>
        <time>2025-01-08T16:02:09Z</time>
      </trkpt>
      <trkpt lat="43.45713" lon="6.42795">
        <ele>126</ele>
        <time>2025-01-08T16:02:11Z</time>
      </trkpt>
      <trkpt lat="43.45711" lon="6.42794">
        <ele>125</ele>
        <time>2025-01-08T16:02:13Z</time>
      </trkpt>
      <trkpt lat="43.45709" lon="6.42794">
        <ele>125</ele>
        <time>2025-01-08T16:02:15Z</time>
      </trkpt>
      <trkpt lat="43.45699" lon="6.4279">
        <ele>124</ele>
        <time>2025-01-08T16:02:23Z</time>
      </trkpt>
      <trkpt lat="43.45696" lon="6.42789">
        <ele>124</ele>
        <time>2025-01-08T16:02:25Z</time>
      </trkpt>
      <trkpt lat="43.45694" lon="6.42789">
        <ele>123</ele>
        <time>2025-01-08T16:02:27Z</time>
      </trkpt>
      <trkpt lat="43.4569" lon="6.42785">
        <ele>122</ele>
        <time>2025-01-08T16:02:31Z</time>
      </trkpt>
      <trkpt lat="43.45687" lon="6.42784">
        <ele>121</ele>
        <time>2025-01-08T16:02:33Z</time>
      </trkpt>
      <trkpt lat="43.45684" lon="6.42783">
        <ele>120</ele>
        <time>2025-01-08T16:02:35Z</time>
      </trkpt>
      <trkpt lat="43.45679" lon="6.42782">
        <ele>120</ele>
        <time>2025-01-08T16:02:39Z</time>
      </trkpt>
      <trkpt lat="43.45668" lon="6.42778">
        <ele>117</ele>
        <time>2025-01-08T16:02:53Z</time>
      </trkpt>
      <trkpt lat="43.45666" lon="6.42779">
        <ele>116</ele>
        <time>2025-01-08T16:02:55Z</time>
      </trkpt>
      <trkpt lat="43.45664" lon="6.42781">
        <ele>115</ele>
        <time>2025-01-08T16:02:57Z</time>
      </trkpt>
      <trkpt lat="43.45662" lon="6.42784">
        <ele>115</ele>
        <time>2025-01-08T16:02:59Z</time>
      </trkpt>
      <trkpt lat="43.45659" lon="6.42788">
        <ele>114</ele>
        <time>2025-01-08T16:03:05Z</time>
      </trkpt>
      <trkpt lat="43.45659" lon="6.42791">
        <ele>113</ele>
        <time>2025-01-08T16:03:13Z</time>
      </trkpt>
      <trkpt lat="43.45661" lon="6.42792">
        <ele>113</ele>
        <time>2025-01-08T16:03:17Z</time>
      </trkpt>
      <trkpt lat="43.45662" lon="6.42794">
        <ele>113</ele>
        <time>2025-01-08T16:03:21Z</time>
      </trkpt>
      <trkpt lat="43.45664" lon="6.42794">
        <ele>113</ele>
        <time>2025-01-08T16:03:23Z</time>
      </trkpt>
      <trkpt lat="43.45666" lon="6.42795">
        <ele>113</ele>
        <time>2025-01-08T16:03:25Z</time>
      </trkpt>
      <trkpt lat="43.45669" lon="6.428">
        <ele>114</ele>
        <time>2025-01-08T16:03:29Z</time>
      </trkpt>
      <trkpt lat="43.45669" lon="6.42807">
        <ele>115</ele>
        <time>2025-01-08T16:03:35Z</time>
      </trkpt>
      <trkpt lat="43.45669" lon="6.4281">
        <ele>115</ele>
        <time>2025-01-08T16:03:37Z</time>
      </trkpt>
      <trkpt lat="43.45668" lon="6.42814">
        <ele>115</ele>
        <time>2025-01-08T16:03:39Z</time>
      </trkpt>
      <trkpt lat="43.45665" lon="6.42824">
        <ele>115</ele>
        <time>2025-01-08T16:03:45Z</time>
      </trkpt>
      <trkpt lat="43.45664" lon="6.42826">
        <ele>114</ele>
        <time>2025-01-08T16:03:47Z</time>
      </trkpt>
      <trkpt lat="43.45663" lon="6.42828">
        <ele>114</ele>
        <time>2025-01-08T16:03:49Z</time>
      </trkpt>
      <trkpt lat="43.45658" lon="6.42837">
        <ele>113</ele>
        <time>2025-01-08T16:03:55Z</time>
      </trkpt>
      <trkpt lat="43.45656" lon="6.42839">
        <ele>113</ele>
        <time>2025-01-08T16:03:57Z</time>
      </trkpt>
      <trkpt lat="43.45642" lon="6.42861">
        <ele>116</ele>
        <time>2025-01-08T16:04:13Z</time>
      </trkpt>
      <trkpt lat="43.4564" lon="6.42864">
        <ele>117</ele>
        <time>2025-01-08T16:04:15Z</time>
      </trkpt>
      <trkpt lat="43.45633" lon="6.42876">
        <ele>117</ele>
        <time>2025-01-08T16:04:25Z</time>
      </trkpt>
      <trkpt lat="43.45631" lon="6.42878">
        <ele>117</ele>
        <time>2025-01-08T16:04:27Z</time>
      </trkpt>
      <trkpt lat="43.45632" lon="6.42878">
        <ele>117</ele>
        <time>2025-01-08T16:04:41Z</time>
      </trkpt>
      <trkpt lat="43.45627" lon="6.42875">
        <ele>116</ele>
        <time>2025-01-08T16:05:41Z</time>
      </trkpt>
      <trkpt lat="43.45625" lon="6.42871">
        <ele>115</ele>
        <time>2025-01-08T16:05:45Z</time>
      </trkpt>
      <trkpt lat="43.45622" lon="6.4287">
        <ele>114</ele>
        <time>2025-01-08T16:05:49Z</time>
      </trkpt>
      <trkpt lat="43.45609" lon="6.4286">
        <ele>110</ele>
        <time>2025-01-08T16:06:05Z</time>
      </trkpt>
      <trkpt lat="43.45607" lon="6.42857">
        <ele>111</ele>
        <time>2025-01-08T16:06:09Z</time>
      </trkpt>
      <trkpt lat="43.45604" lon="6.42855">
        <ele>110</ele>
        <time>2025-01-08T16:06:13Z</time>
      </trkpt>
      <trkpt lat="43.45602" lon="6.42854">
        <ele>111</ele>
        <time>2025-01-08T16:06:17Z</time>
      </trkpt>
      <trkpt lat="43.45601" lon="6.42857">
        <ele>112</ele>
        <time>2025-01-08T16:06:21Z</time>
      </trkpt>
      <trkpt lat="43.45601" lon="6.4286">
        <ele>112</ele>
        <time>2025-01-08T16:06:27Z</time>
      </trkpt>
      <trkpt lat="43.45604" lon="6.42845">
        <ele>111</ele>
        <time>2025-01-08T16:06:41Z</time>
      </trkpt>
      <trkpt lat="43.45605" lon="6.42842">
        <ele>111</ele>
        <time>2025-01-08T16:06:43Z</time>
      </trkpt>
      <trkpt lat="43.45607" lon="6.42836">
        <ele>109</ele>
        <time>2025-01-08T16:06:47Z</time>
      </trkpt>
      <trkpt lat="43.45609" lon="6.42834">
        <ele>108</ele>
        <time>2025-01-08T16:06:49Z</time>
      </trkpt>
      <trkpt lat="43.4561" lon="6.42831">
        <ele>108</ele>
        <time>2025-01-08T16:06:51Z</time>
      </trkpt>
      <trkpt lat="43.45611" lon="6.4283">
        <ele>107</ele>
        <time>2025-01-08T16:06:55Z</time>
      </trkpt>
      <trkpt lat="43.45613" lon="6.42827">
        <ele>107</ele>
        <time>2025-01-08T16:06:59Z</time>
      </trkpt>
      <trkpt lat="43.45615" lon="6.42821">
        <ele>107</ele>
        <time>2025-01-08T16:07:03Z</time>
      </trkpt>
      <trkpt lat="43.45616" lon="6.4282">
        <ele>107</ele>
        <time>2025-01-08T16:07:05Z</time>
      </trkpt>
      <trkpt lat="43.45623" lon="6.42812">
        <ele>107</ele>
        <time>2025-01-08T16:07:13Z</time>
      </trkpt>
      <trkpt lat="43.45624" lon="6.42809">
        <ele>106</ele>
        <time>2025-01-08T16:07:15Z</time>
      </trkpt>
      <trkpt lat="43.45625" lon="6.42807">
        <ele>106</ele>
        <time>2025-01-08T16:07:17Z</time>
      </trkpt>
      <trkpt lat="43.45626" lon="6.42804">
        <ele>105</ele>
        <time>2025-01-08T16:07:19Z</time>
      </trkpt>
      <trkpt lat="43.45626" lon="6.428">
        <ele>105</ele>
        <time>2025-01-08T16:07:21Z</time>
      </trkpt>
      <trkpt lat="43.45625" lon="6.42797">
        <ele>103</ele>
        <time>2025-01-08T16:07:23Z</time>
      </trkpt>
      <trkpt lat="43.45623" lon="6.42795">
        <ele>102</ele>
        <time>2025-01-08T16:07:27Z</time>
      </trkpt>
      <trkpt lat="43.45621" lon="6.42794">
        <ele>101</ele>
        <time>2025-01-08T16:07:29Z</time>
      </trkpt>
      <trkpt lat="43.45619" lon="6.42793">
        <ele>101</ele>
        <time>2025-01-08T16:07:31Z</time>
      </trkpt>
      <trkpt lat="43.45613" lon="6.42787">
        <ele>100</ele>
        <time>2025-01-08T16:07:37Z</time>
      </trkpt>
      <trkpt lat="43.45609" lon="6.42783">
        <ele>98</ele>
        <time>2025-01-08T16:07:43Z</time>
      </trkpt>
      <trkpt lat="43.45607" lon="6.42782">
        <ele>98</ele>
        <time>2025-01-08T16:07:45Z</time>
      </trkpt>
      <trkpt lat="43.45603" lon="6.42779">
        <ele>98</ele>
        <time>2025-01-08T16:07:49Z</time>
      </trkpt>
      <trkpt lat="43.45601" lon="6.42778">
        <ele>98</ele>
        <time>2025-01-08T16:07:51Z</time>
      </trkpt>
      <trkpt lat="43.45596" lon="6.42776">
        <ele>98</ele>
        <time>2025-01-08T16:07:55Z</time>
      </trkpt>
      <trkpt lat="43.45594" lon="6.42774">
        <ele>98</ele>
        <time>2025-01-08T16:07:57Z</time>
      </trkpt>
      <trkpt lat="43.45592" lon="6.42772">
        <ele>97</ele>
        <time>2025-01-08T16:07:59Z</time>
      </trkpt>
      <trkpt lat="43.45591" lon="6.42771">
        <ele>97</ele>
        <time>2025-01-08T16:08:01Z</time>
      </trkpt>
      <trkpt lat="43.45589" lon="6.42771">
        <ele>95</ele>
        <time>2025-01-08T16:08:03Z</time>
      </trkpt>
      <trkpt lat="43.45585" lon="6.42766">
        <ele>94</ele>
        <time>2025-01-08T16:08:09Z</time>
      </trkpt>
      <trkpt lat="43.45582" lon="6.42764">
        <ele>93</ele>
        <time>2025-01-08T16:08:11Z</time>
      </trkpt>
      <trkpt lat="43.45581" lon="6.42762">
        <ele>93</ele>
        <time>2025-01-08T16:08:13Z</time>
      </trkpt>
      <trkpt lat="43.45579" lon="6.4276">
        <ele>92</ele>
        <time>2025-01-08T16:08:17Z</time>
      </trkpt>
      <trkpt lat="43.45572" lon="6.42753">
        <ele>90</ele>
        <time>2025-01-08T16:08:25Z</time>
      </trkpt>
      <trkpt lat="43.45568" lon="6.42752">
        <ele>89</ele>
        <time>2025-01-08T16:08:31Z</time>
      </trkpt>
      <trkpt lat="43.45567" lon="6.42751">
        <ele>89</ele>
        <time>2025-01-08T16:08:35Z</time>
      </trkpt>
      <trkpt lat="43.45567" lon="6.42748">
        <ele>91</ele>
        <time>2025-01-08T16:08:37Z</time>
      </trkpt>
      <trkpt lat="43.45566" lon="6.42745">
        <ele>91</ele>
        <time>2025-01-08T16:08:39Z</time>
      </trkpt>
      <trkpt lat="43.45565" lon="6.42741">
        <ele>93</ele>
        <time>2025-01-08T16:08:43Z</time>
      </trkpt>
      <trkpt lat="43.45564" lon="6.42739">
        <ele>93</ele>
        <time>2025-01-08T16:08:47Z</time>
      </trkpt>
      <trkpt lat="43.4556" lon="6.42741">
        <ele>92</ele>
        <time>2025-01-08T16:09:13Z</time>
      </trkpt>
      <trkpt lat="43.45558" lon="6.42742">
        <ele>92</ele>
        <time>2025-01-08T16:09:15Z</time>
      </trkpt>
      <trkpt lat="43.45556" lon="6.42744">
        <ele>93</ele>
        <time>2025-01-08T16:09:21Z</time>
      </trkpt>
      <trkpt lat="43.45554" lon="6.42745">
        <ele>93</ele>
        <time>2025-01-08T16:09:25Z</time>
      </trkpt>
      <trkpt lat="43.45552" lon="6.42748">
        <ele>92</ele>
        <time>2025-01-08T16:09:29Z</time>
      </trkpt>
      <trkpt lat="43.4555" lon="6.42749">
        <ele>91</ele>
        <time>2025-01-08T16:09:31Z</time>
      </trkpt>
      <trkpt lat="43.45548" lon="6.4275">
        <ele>91</ele>
        <time>2025-01-08T16:09:33Z</time>
      </trkpt>
      <trkpt lat="43.45551" lon="6.42752">
        <ele>91</ele>
        <time>2025-01-08T16:09:35Z</time>
      </trkpt>
      <trkpt lat="43.4555" lon="6.42754">
        <ele>90</ele>
        <time>2025-01-08T16:09:39Z</time>
      </trkpt>
      <trkpt lat="43.45541" lon="6.42752">
        <ele>88</ele>
        <time>2025-01-08T16:09:43Z</time>
      </trkpt>
      <trkpt lat="43.45538" lon="6.42751">
        <ele>86</ele>
        <time>2025-01-08T16:09:47Z</time>
      </trkpt>
      <trkpt lat="43.45536" lon="6.4275">
        <ele>84</ele>
        <time>2025-01-08T16:09:49Z</time>
      </trkpt>
      <trkpt lat="43.45534" lon="6.4275">
        <ele>83</ele>
        <time>2025-01-08T16:09:51Z</time>
      </trkpt>
      <trkpt lat="43.45532" lon="6.42749">
        <ele>82</ele>
        <time>2025-01-08T16:09:53Z</time>
      </trkpt>
      <trkpt lat="43.45531" lon="6.42748">
        <ele>81</ele>
        <time>2025-01-08T16:09:55Z</time>
      </trkpt>
      <trkpt lat="43.45529" lon="6.42747">
        <ele>81</ele>
        <time>2025-01-08T16:09:57Z</time>
      </trkpt>
      <trkpt lat="43.45528" lon="6.42746">
        <ele>81</ele>
        <time>2025-01-08T16:09:59Z</time>
      </trkpt>
      <trkpt lat="43.45525" lon="6.42745">
        <ele>81</ele>
        <time>2025-01-08T16:10:01Z</time>
      </trkpt>
      <trkpt lat="43.45523" lon="6.42743">
        <ele>81</ele>
        <time>2025-01-08T16:10:03Z</time>
      </trkpt>
      <trkpt lat="43.45517" lon="6.4274">
        <ele>80</ele>
        <time>2025-01-08T16:10:07Z</time>
      </trkpt>
      <trkpt lat="43.45514" lon="6.42738">
        <ele>80</ele>
        <time>2025-01-08T16:10:11Z</time>
      </trkpt>
      <trkpt lat="43.45513" lon="6.42735">
        <ele>80</ele>
        <time>2025-01-08T16:10:13Z</time>
      </trkpt>
      <trkpt lat="43.45511" lon="6.42733">
        <ele>80</ele>
        <time>2025-01-08T16:10:15Z</time>
      </trkpt>
      <trkpt lat="43.45509" lon="6.42731">
        <ele>79</ele>
        <time>2025-01-08T16:10:17Z</time>
      </trkpt>
      <trkpt lat="43.45507" lon="6.42731">
        <ele>79</ele>
        <time>2025-01-08T16:10:19Z</time>
      </trkpt>
      <trkpt lat="43.45506" lon="6.42729">
        <ele>79</ele>
        <time>2025-01-08T16:10:21Z</time>
      </trkpt>
      <trkpt lat="43.45503" lon="6.42727">
        <ele>79</ele>
        <time>2025-01-08T16:10:23Z</time>
      </trkpt>
      <trkpt lat="43.455" lon="6.42727">
        <ele>79</ele>
        <time>2025-01-08T16:10:25Z</time>
      </trkpt>
      <trkpt lat="43.45497" lon="6.42727">
        <ele>79</ele>
        <time>2025-01-08T16:10:27Z</time>
      </trkpt>
      <trkpt lat="43.45492" lon="6.42727">
        <ele>80</ele>
        <time>2025-01-08T16:10:35Z</time>
      </trkpt>
      <trkpt lat="43.4549" lon="6.42727">
        <ele>80</ele>
        <time>2025-01-08T16:10:37Z</time>
      </trkpt>
      <trkpt lat="43.45488" lon="6.42726">
        <ele>80</ele>
        <time>2025-01-08T16:10:39Z</time>
      </trkpt>
      <trkpt lat="43.45486" lon="6.42725">
        <ele>80</ele>
        <time>2025-01-08T16:10:41Z</time>
      </trkpt>
      <trkpt lat="43.45484" lon="6.42723">
        <ele>80</ele>
        <time>2025-01-08T16:10:43Z</time>
      </trkpt>
      <trkpt lat="43.45481" lon="6.42723">
        <ele>80</ele>
        <time>2025-01-08T16:10:45Z</time>
      </trkpt>
      <trkpt lat="43.45476" lon="6.4272">
        <ele>80</ele>
        <time>2025-01-08T16:10:49Z</time>
      </trkpt>
      <trkpt lat="43.45471" lon="6.42717">
        <ele>81</ele>
        <time>2025-01-08T16:10:55Z</time>
      </trkpt>
      <trkpt lat="43.45468" lon="6.42715">
        <ele>81</ele>
        <time>2025-01-08T16:10:57Z</time>
      </trkpt>
      <trkpt lat="43.45464" lon="6.42712">
        <ele>82</ele>
        <time>2025-01-08T16:11:01Z</time>
      </trkpt>
      <trkpt lat="43.45464" lon="6.4271">
        <ele>82</ele>
        <time>2025-01-08T16:11:05Z</time>
      </trkpt>
      <trkpt lat="43.45462" lon="6.42709">
        <ele>83</ele>
        <time>2025-01-08T16:11:07Z</time>
      </trkpt>
      <trkpt lat="43.4546" lon="6.42708">
        <ele>83</ele>
        <time>2025-01-08T16:11:09Z</time>
      </trkpt>
      <trkpt lat="43.45458" lon="6.42707">
        <ele>83</ele>
        <time>2025-01-08T16:11:11Z</time>
      </trkpt>
      <trkpt lat="43.45453" lon="6.42706">
        <ele>83</ele>
        <time>2025-01-08T16:11:15Z</time>
      </trkpt>
      <trkpt lat="43.45452" lon="6.42707">
        <ele>83</ele>
        <time>2025-01-08T16:11:17Z</time>
      </trkpt>
      <trkpt lat="43.45449" lon="6.42708">
        <ele>83</ele>
        <time>2025-01-08T16:11:19Z</time>
      </trkpt>
      <trkpt lat="43.45447" lon="6.42709">
        <ele>82</ele>
        <time>2025-01-08T16:11:21Z</time>
      </trkpt>
      <trkpt lat="43.45443" lon="6.42706">
        <ele>80</ele>
        <time>2025-01-08T16:11:25Z</time>
      </trkpt>
      <trkpt lat="43.45439" lon="6.42699">
        <ele>78</ele>
        <time>2025-01-08T16:11:29Z</time>
      </trkpt>
      <trkpt lat="43.45436" lon="6.42693">
        <ele>75</ele>
        <time>2025-01-08T16:11:35Z</time>
      </trkpt>
      <trkpt lat="43.45433" lon="6.4269">
        <ele>75</ele>
        <time>2025-01-08T16:11:37Z</time>
      </trkpt>
      <trkpt lat="43.45431" lon="6.42688">
        <ele>73</ele>
        <time>2025-01-08T16:11:39Z</time>
      </trkpt>
      <trkpt lat="43.45421" lon="6.42673">
        <ele>70</ele>
        <time>2025-01-08T16:11:55Z</time>
      </trkpt>
      <trkpt lat="43.45416" lon="6.42662">
        <ele>70</ele>
        <time>2025-01-08T16:12:03Z</time>
      </trkpt>
      <trkpt lat="43.45416" lon="6.4266">
        <ele>70</ele>
        <time>2025-01-08T16:12:05Z</time>
      </trkpt>
      <trkpt lat="43.45416" lon="6.42658">
        <ele>70</ele>
        <time>2025-01-08T16:12:07Z</time>
      </trkpt>
      <trkpt lat="43.45413" lon="6.42652">
        <ele>70</ele>
        <time>2025-01-08T16:12:11Z</time>
      </trkpt>
      <trkpt lat="43.45411" lon="6.42647">
        <ele>69</ele>
        <time>2025-01-08T16:12:15Z</time>
      </trkpt>
      <trkpt lat="43.45407" lon="6.42641">
        <ele>70</ele>
        <time>2025-01-08T16:12:19Z</time>
      </trkpt>
      <trkpt lat="43.45407" lon="6.42639">
        <ele>70</ele>
        <time>2025-01-08T16:12:21Z</time>
      </trkpt>
      <trkpt lat="43.45405" lon="6.42637">
        <ele>70</ele>
        <time>2025-01-08T16:12:25Z</time>
      </trkpt>
      <trkpt lat="43.454" lon="6.42642">
        <ele>70</ele>
        <time>2025-01-08T16:12:35Z</time>
      </trkpt>
      <trkpt lat="43.45396" lon="6.42646">
        <ele>70</ele>
        <time>2025-01-08T16:12:41Z</time>
      </trkpt>
      <trkpt lat="43.45393" lon="6.42647">
        <ele>70</ele>
        <time>2025-01-08T16:12:43Z</time>
      </trkpt>
      <trkpt lat="43.45391" lon="6.42649">
        <ele>69</ele>
        <time>2025-01-08T16:12:47Z</time>
      </trkpt>
      <trkpt lat="43.45389" lon="6.42651">
        <ele>69</ele>
        <time>2025-01-08T16:12:49Z</time>
      </trkpt>
      <trkpt lat="43.45387" lon="6.42652">
        <ele>71</ele>
        <time>2025-01-08T16:13:03Z</time>
      </trkpt>
      <trkpt lat="43.45386" lon="6.42653">
        <ele>70</ele>
        <time>2025-01-08T16:13:05Z</time>
      </trkpt>
    </trkseg>
  </trk>
</gpx>